<?xml version="1.0" encoding="UTF-8" standalone="no" ?>
<gpx xmlns="http://www.topografix.com/GPX/1/1" xmlns:xsi="http://www.w3.org/2001/XMLSchema-instance" xsi:schemaLocation="http://www.topografix.com/GPX/1/1 http://www.topografix.com/GPX/1/1/gpx.xsd" version="1.1" creator="VisuGPX - https://www.visugpx.com">
  <metadata>
    <name>Dou de Moutiers </name>
    <desc><![CDATA[Départ de ND]]></desc>
  </metadata>
  <trk>
    <name><![CDATA[Tracé actuel: 22 JAN 2016 08:28]]></name>
    <trkseg>
      <trkpt lat="45.51337" lon="6.59864">
        <ele>1127.76</ele>
        <time>2016-01-24T07:45:27Z</time>
      </trkpt>
      <trkpt lat="45.51336" lon="6.59829">
        <ele>1133.53</ele>
        <time>2016-01-24T07:45:36Z</time>
      </trkpt>
      <trkpt lat="45.51336" lon="6.59828">
        <ele>1138.82</ele>
        <time>2016-01-24T07:45:37Z</time>
      </trkpt>
      <trkpt lat="45.51336" lon="6.59828">
        <ele>1144.11</ele>
        <time>2016-01-24T07:45:38Z</time>
      </trkpt>
      <trkpt lat="45.51336" lon="6.59828">
        <ele>1149.87</ele>
        <time>2016-01-24T07:45:39Z</time>
      </trkpt>
      <trkpt lat="45.51336" lon="6.59828">
        <ele>1155.16</ele>
        <time>2016-01-24T07:45:40Z</time>
      </trkpt>
      <trkpt lat="45.51336" lon="6.59828">
        <ele>1159.97</ele>
        <time>2016-01-24T07:45:41Z</time>
      </trkpt>
      <trkpt lat="45.51336" lon="6.59828">
        <ele>1164.29</ele>
        <time>2016-01-24T07:45:42Z</time>
      </trkpt>
      <trkpt lat="45.51336" lon="6.59828">
        <ele>1169.1</ele>
        <time>2016-01-24T07:45:43Z</time>
      </trkpt>
      <trkpt lat="45.51336" lon="6.59828">
        <ele>1173.43</ele>
        <time>2016-01-24T07:45:44Z</time>
      </trkpt>
      <trkpt lat="45.51336" lon="6.59828">
        <ele>1177.75</ele>
        <time>2016-01-24T07:45:45Z</time>
      </trkpt>
      <trkpt lat="45.51336" lon="6.59828">
        <ele>1181.6</ele>
        <time>2016-01-24T07:45:46Z</time>
      </trkpt>
      <trkpt lat="45.51336" lon="6.59828">
        <ele>1185.92</ele>
        <time>2016-01-24T07:45:47Z</time>
      </trkpt>
      <trkpt lat="45.51336" lon="6.59828">
        <ele>1189.77</ele>
        <time>2016-01-24T07:45:48Z</time>
      </trkpt>
      <trkpt lat="45.51336" lon="6.59828">
        <ele>1193.13</ele>
        <time>2016-01-24T07:45:49Z</time>
      </trkpt>
      <trkpt lat="45.51336" lon="6.59828">
        <ele>1200.34</ele>
        <time>2016-01-24T07:45:50Z</time>
      </trkpt>
      <trkpt lat="45.51336" lon="6.59828">
        <ele>1203.71</ele>
        <time>2016-01-24T07:45:51Z</time>
      </trkpt>
      <trkpt lat="45.51337" lon="6.59828">
        <ele>1203.71</ele>
        <time>2016-01-24T07:45:52Z</time>
      </trkpt>
      <trkpt lat="45.51337" lon="6.59828">
        <ele>1207.07</ele>
        <time>2016-01-24T07:45:53Z</time>
      </trkpt>
      <trkpt lat="45.51337" lon="6.59828">
        <ele>1209.96</ele>
        <time>2016-01-24T07:45:54Z</time>
      </trkpt>
      <trkpt lat="45.51337" lon="6.59828">
        <ele>1215.72</ele>
        <time>2016-01-24T07:45:56Z</time>
      </trkpt>
      <trkpt lat="45.51337" lon="6.59828">
        <ele>1221.49</ele>
        <time>2016-01-24T07:45:58Z</time>
      </trkpt>
      <trkpt lat="45.51337" lon="6.59828">
        <ele>1226.3</ele>
        <time>2016-01-24T07:46:00Z</time>
      </trkpt>
      <trkpt lat="45.51337" lon="6.59827">
        <ele>1231.11</ele>
        <time>2016-01-24T07:46:05Z</time>
      </trkpt>
      <trkpt lat="45.51337" lon="6.59828">
        <ele>1234.47</ele>
        <time>2016-01-24T07:46:09Z</time>
      </trkpt>
      <trkpt lat="45.51337" lon="6.59828">
        <ele>1238.8</ele>
        <time>2016-01-24T07:46:11Z</time>
      </trkpt>
      <trkpt lat="45.51337" lon="6.59827">
        <ele>1243.12</ele>
        <time>2016-01-24T07:46:13Z</time>
      </trkpt>
      <trkpt lat="45.51337" lon="6.59826">
        <ele>1245.04</ele>
        <time>2016-01-24T07:46:16Z</time>
      </trkpt>
      <trkpt lat="45.51337" lon="6.59824">
        <ele>1246.97</ele>
        <time>2016-01-24T07:46:19Z</time>
      </trkpt>
      <trkpt lat="45.51337" lon="6.59824">
        <ele>1250.33</ele>
        <time>2016-01-24T07:46:23Z</time>
      </trkpt>
      <trkpt lat="45.51337" lon="6.59824">
        <ele>1253.7</ele>
        <time>2016-01-24T07:46:25Z</time>
      </trkpt>
      <trkpt lat="45.51337" lon="6.59824">
        <ele>1256.58</ele>
        <time>2016-01-24T07:46:27Z</time>
      </trkpt>
      <trkpt lat="45.51336" lon="6.59821">
        <ele>1260.91</ele>
        <time>2016-01-24T07:46:30Z</time>
      </trkpt>
      <trkpt lat="45.51336" lon="6.59821">
        <ele>1265.23</ele>
        <time>2016-01-24T07:46:35Z</time>
      </trkpt>
      <trkpt lat="45.51336" lon="6.59822">
        <ele>1268.6</ele>
        <time>2016-01-24T07:46:38Z</time>
      </trkpt>
      <trkpt lat="45.51337" lon="6.59823">
        <ele>1271.96</ele>
        <time>2016-01-24T07:46:40Z</time>
      </trkpt>
      <trkpt lat="45.51337" lon="6.59824">
        <ele>1271.96</ele>
        <time>2016-01-24T07:46:41Z</time>
      </trkpt>
      <trkpt lat="45.51337" lon="6.59825">
        <ele>1275.81</ele>
        <time>2016-01-24T07:46:45Z</time>
      </trkpt>
      <trkpt lat="45.51336" lon="6.59828">
        <ele>1278.69</ele>
        <time>2016-01-24T07:46:49Z</time>
      </trkpt>
      <trkpt lat="45.51336" lon="6.59829">
        <ele>1282.54</ele>
        <time>2016-01-24T07:46:54Z</time>
      </trkpt>
      <trkpt lat="45.51336" lon="6.5983">
        <ele>1285.9</ele>
        <time>2016-01-24T07:47:00Z</time>
      </trkpt>
      <trkpt lat="45.51337" lon="6.5983">
        <ele>1288.3</ele>
        <time>2016-01-24T07:47:05Z</time>
      </trkpt>
      <trkpt lat="45.51337" lon="6.59831">
        <ele>1291.19</ele>
        <time>2016-01-24T07:47:15Z</time>
      </trkpt>
      <trkpt lat="45.51337" lon="6.59825">
        <ele>1294.55</ele>
        <time>2016-01-24T07:47:27Z</time>
      </trkpt>
      <trkpt lat="45.51336" lon="6.59827">
        <ele>1296.48</ele>
        <time>2016-01-24T07:47:37Z</time>
      </trkpt>
      <trkpt lat="45.51337" lon="6.59828">
        <ele>1296.96</ele>
        <time>2016-01-24T07:47:51Z</time>
      </trkpt>
      <trkpt lat="45.51335" lon="6.59837">
        <ele>1297.44</ele>
        <time>2016-01-24T07:47:57Z</time>
      </trkpt>
      <trkpt lat="45.51329" lon="6.59856">
        <ele>1297.92</ele>
        <time>2016-01-24T07:48:07Z</time>
      </trkpt>
      <trkpt lat="45.51307" lon="6.59866">
        <ele>1299.84</ele>
        <time>2016-01-24T07:48:24Z</time>
      </trkpt>
      <trkpt lat="45.51304" lon="6.59868">
        <ele>1299.84</ele>
        <time>2016-01-24T07:48:27Z</time>
      </trkpt>
      <trkpt lat="45.51293" lon="6.59888">
        <ele>1301.76</ele>
        <time>2016-01-24T07:48:41Z</time>
      </trkpt>
      <trkpt lat="45.51291" lon="6.59912">
        <ele>1303.2</ele>
        <time>2016-01-24T07:48:54Z</time>
      </trkpt>
      <trkpt lat="45.51291" lon="6.59914">
        <ele>1303.2</ele>
        <time>2016-01-24T07:49:04Z</time>
      </trkpt>
      <trkpt lat="45.51291" lon="6.59914">
        <ele>1303.2</ele>
        <time>2016-01-24T07:49:16Z</time>
      </trkpt>
      <trkpt lat="45.51291" lon="6.59914">
        <ele>1303.2</ele>
        <time>2016-01-24T07:49:31Z</time>
      </trkpt>
      <trkpt lat="45.51291" lon="6.59924">
        <ele>1303.69</ele>
        <time>2016-01-24T07:49:41Z</time>
      </trkpt>
      <trkpt lat="45.51289" lon="6.59942">
        <ele>1304.65</ele>
        <time>2016-01-24T07:50:00Z</time>
      </trkpt>
      <trkpt lat="45.5129" lon="6.59952">
        <ele>1305.13</ele>
        <time>2016-01-24T07:50:15Z</time>
      </trkpt>
      <trkpt lat="45.51289" lon="6.59955">
        <ele>1305.61</ele>
        <time>2016-01-24T07:50:26Z</time>
      </trkpt>
      <trkpt lat="45.51287" lon="6.59964">
        <ele>1306.09</ele>
        <time>2016-01-24T07:50:41Z</time>
      </trkpt>
      <trkpt lat="45.51282" lon="6.59975">
        <ele>1307.05</ele>
        <time>2016-01-24T07:50:55Z</time>
      </trkpt>
      <trkpt lat="45.51282" lon="6.59976">
        <ele>1307.05</ele>
        <time>2016-01-24T07:50:56Z</time>
      </trkpt>
      <trkpt lat="45.51277" lon="6.59987">
        <ele>1308.01</ele>
        <time>2016-01-24T07:51:06Z</time>
      </trkpt>
      <trkpt lat="45.51267" lon="6.59997">
        <ele>1308.49</ele>
        <time>2016-01-24T07:51:20Z</time>
      </trkpt>
      <trkpt lat="45.51256" lon="6.60006">
        <ele>1309.45</ele>
        <time>2016-01-24T07:51:36Z</time>
      </trkpt>
      <trkpt lat="45.51241" lon="6.60014">
        <ele>1310.9</ele>
        <time>2016-01-24T07:51:53Z</time>
      </trkpt>
      <trkpt lat="45.51229" lon="6.60022">
        <ele>1311.86</ele>
        <time>2016-01-24T07:52:08Z</time>
      </trkpt>
      <trkpt lat="45.51216" lon="6.60029">
        <ele>1312.82</ele>
        <time>2016-01-24T07:52:23Z</time>
      </trkpt>
      <trkpt lat="45.51205" lon="6.60034">
        <ele>1313.3</ele>
        <time>2016-01-24T07:52:36Z</time>
      </trkpt>
      <trkpt lat="45.51201" lon="6.60036">
        <ele>1313.78</ele>
        <time>2016-01-24T07:52:41Z</time>
      </trkpt>
      <trkpt lat="45.51185" lon="6.60047">
        <ele>1315.22</ele>
        <time>2016-01-24T07:52:58Z</time>
      </trkpt>
      <trkpt lat="45.51176" lon="6.60056">
        <ele>1316.18</ele>
        <time>2016-01-24T07:53:12Z</time>
      </trkpt>
      <trkpt lat="45.51166" lon="6.60066">
        <ele>1317.14</ele>
        <time>2016-01-24T07:53:25Z</time>
      </trkpt>
      <trkpt lat="45.51158" lon="6.60077">
        <ele>1318.59</ele>
        <time>2016-01-24T07:53:39Z</time>
      </trkpt>
      <trkpt lat="45.51152" lon="6.60084">
        <ele>1319.07</ele>
        <time>2016-01-24T07:53:47Z</time>
      </trkpt>
      <trkpt lat="45.5115" lon="6.60086">
        <ele>1319.07</ele>
        <time>2016-01-24T07:53:49Z</time>
      </trkpt>
      <trkpt lat="45.51136" lon="6.60092">
        <ele>1320.99</ele>
        <time>2016-01-24T07:54:06Z</time>
      </trkpt>
      <trkpt lat="45.51129" lon="6.60094">
        <ele>1321.47</ele>
        <time>2016-01-24T07:54:15Z</time>
      </trkpt>
      <trkpt lat="45.51117" lon="6.60095">
        <ele>1322.91</ele>
        <time>2016-01-24T07:54:29Z</time>
      </trkpt>
      <trkpt lat="45.51107" lon="6.60096">
        <ele>1323.87</ele>
        <time>2016-01-24T07:54:43Z</time>
      </trkpt>
      <trkpt lat="45.51094" lon="6.60099">
        <ele>1325.8</ele>
        <time>2016-01-24T07:55:02Z</time>
      </trkpt>
      <trkpt lat="45.5108" lon="6.601">
        <ele>1326.28</ele>
        <time>2016-01-24T07:55:17Z</time>
      </trkpt>
      <trkpt lat="45.51067" lon="6.60096">
        <ele>1328.2</ele>
        <time>2016-01-24T07:55:35Z</time>
      </trkpt>
      <trkpt lat="45.51054" lon="6.60083">
        <ele>1329.16</ele>
        <time>2016-01-24T07:55:52Z</time>
      </trkpt>
      <trkpt lat="45.5105" lon="6.60079">
        <ele>1329.64</ele>
        <time>2016-01-24T07:55:57Z</time>
      </trkpt>
      <trkpt lat="45.51041" lon="6.60071">
        <ele>1331.56</ele>
        <time>2016-01-24T07:56:10Z</time>
      </trkpt>
      <trkpt lat="45.51029" lon="6.60065">
        <ele>1332.52</ele>
        <time>2016-01-24T07:56:26Z</time>
      </trkpt>
      <trkpt lat="45.51016" lon="6.60059">
        <ele>1333.49</ele>
        <time>2016-01-24T07:56:43Z</time>
      </trkpt>
      <trkpt lat="45.51001" lon="6.60049">
        <ele>1334.93</ele>
        <time>2016-01-24T07:57:02Z</time>
      </trkpt>
      <trkpt lat="45.50991" lon="6.60043">
        <ele>1336.37</ele>
        <time>2016-01-24T07:57:15Z</time>
      </trkpt>
      <trkpt lat="45.50982" lon="6.60037">
        <ele>1337.81</ele>
        <time>2016-01-24T07:57:30Z</time>
      </trkpt>
      <trkpt lat="45.50972" lon="6.60028">
        <ele>1338.29</ele>
        <time>2016-01-24T07:57:44Z</time>
      </trkpt>
      <trkpt lat="45.50962" lon="6.6002">
        <ele>1339.25</ele>
        <time>2016-01-24T07:57:57Z</time>
      </trkpt>
      <trkpt lat="45.50953" lon="6.60013">
        <ele>1340.22</ele>
        <time>2016-01-24T07:58:09Z</time>
      </trkpt>
      <trkpt lat="45.50943" lon="6.6">
        <ele>1341.18</ele>
        <time>2016-01-24T07:58:23Z</time>
      </trkpt>
      <trkpt lat="45.50935" lon="6.59987">
        <ele>1342.14</ele>
        <time>2016-01-24T07:58:36Z</time>
      </trkpt>
      <trkpt lat="45.50927" lon="6.5997">
        <ele>1343.1</ele>
        <time>2016-01-24T07:58:52Z</time>
      </trkpt>
      <trkpt lat="45.50921" lon="6.59952">
        <ele>1344.06</ele>
        <time>2016-01-24T07:59:08Z</time>
      </trkpt>
      <trkpt lat="45.50913" lon="6.59938">
        <ele>1345.5</ele>
        <time>2016-01-24T07:59:22Z</time>
      </trkpt>
      <trkpt lat="45.50909" lon="6.59929">
        <ele>1347.43</ele>
        <time>2016-01-24T07:59:37Z</time>
      </trkpt>
      <trkpt lat="45.50901" lon="6.59918">
        <ele>1348.87</ele>
        <time>2016-01-24T07:59:51Z</time>
      </trkpt>
      <trkpt lat="45.50891" lon="6.59905">
        <ele>1350.31</ele>
        <time>2016-01-24T08:00:09Z</time>
      </trkpt>
      <trkpt lat="45.50883" lon="6.59898">
        <ele>1352.71</ele>
        <time>2016-01-24T08:00:26Z</time>
      </trkpt>
      <trkpt lat="45.50874" lon="6.59893">
        <ele>1354.63</ele>
        <time>2016-01-24T08:00:42Z</time>
      </trkpt>
      <trkpt lat="45.50865" lon="6.59886">
        <ele>1357.04</ele>
        <time>2016-01-24T08:01:00Z</time>
      </trkpt>
      <trkpt lat="45.50857" lon="6.59881">
        <ele>1358.96</ele>
        <time>2016-01-24T08:01:15Z</time>
      </trkpt>
      <trkpt lat="45.50845" lon="6.59879">
        <ele>1361.36</ele>
        <time>2016-01-24T08:01:33Z</time>
      </trkpt>
      <trkpt lat="45.50837" lon="6.59877">
        <ele>1363.29</ele>
        <time>2016-01-24T08:01:48Z</time>
      </trkpt>
      <trkpt lat="45.5083" lon="6.59873">
        <ele>1364.73</ele>
        <time>2016-01-24T08:02:02Z</time>
      </trkpt>
      <trkpt lat="45.50822" lon="6.59871">
        <ele>1367.13</ele>
        <time>2016-01-24T08:02:19Z</time>
      </trkpt>
      <trkpt lat="45.50815" lon="6.59868">
        <ele>1370.02</ele>
        <time>2016-01-24T08:02:34Z</time>
      </trkpt>
      <trkpt lat="45.50806" lon="6.5986">
        <ele>1371.94</ele>
        <time>2016-01-24T08:02:49Z</time>
      </trkpt>
      <trkpt lat="45.50797" lon="6.59858">
        <ele>1374.34</ele>
        <time>2016-01-24T08:03:05Z</time>
      </trkpt>
      <trkpt lat="45.50787" lon="6.59855">
        <ele>1375.78</ele>
        <time>2016-01-24T08:03:21Z</time>
      </trkpt>
      <trkpt lat="45.50776" lon="6.59854">
        <ele>1376.75</ele>
        <time>2016-01-24T08:03:37Z</time>
      </trkpt>
      <trkpt lat="45.50766" lon="6.59852">
        <ele>1379.15</ele>
        <time>2016-01-24T08:03:53Z</time>
      </trkpt>
      <trkpt lat="45.5076" lon="6.59844">
        <ele>1381.07</ele>
        <time>2016-01-24T08:04:09Z</time>
      </trkpt>
      <trkpt lat="45.50754" lon="6.59838">
        <ele>1383.96</ele>
        <time>2016-01-24T08:04:23Z</time>
      </trkpt>
      <trkpt lat="45.50745" lon="6.59828">
        <ele>1386.84</ele>
        <time>2016-01-24T08:04:41Z</time>
      </trkpt>
      <trkpt lat="45.50738" lon="6.5982">
        <ele>1388.76</ele>
        <time>2016-01-24T08:04:57Z</time>
      </trkpt>
      <trkpt lat="45.50732" lon="6.59815">
        <ele>1391.17</ele>
        <time>2016-01-24T08:05:11Z</time>
      </trkpt>
      <trkpt lat="45.50727" lon="6.59814">
        <ele>1393.09</ele>
        <time>2016-01-24T08:05:24Z</time>
      </trkpt>
      <trkpt lat="45.50726" lon="6.59825">
        <ele>1395.01</ele>
        <time>2016-01-24T08:05:38Z</time>
      </trkpt>
      <trkpt lat="45.50723" lon="6.59835">
        <ele>1397.41</ele>
        <time>2016-01-24T08:05:52Z</time>
      </trkpt>
      <trkpt lat="45.50719" lon="6.59842">
        <ele>1399.82</ele>
        <time>2016-01-24T08:06:06Z</time>
      </trkpt>
      <trkpt lat="45.50716" lon="6.59848">
        <ele>1401.74</ele>
        <time>2016-01-24T08:06:19Z</time>
      </trkpt>
      <trkpt lat="45.50712" lon="6.59854">
        <ele>1403.18</ele>
        <time>2016-01-24T08:06:33Z</time>
      </trkpt>
      <trkpt lat="45.50709" lon="6.59857">
        <ele>1406.07</ele>
        <time>2016-01-24T08:06:47Z</time>
      </trkpt>
      <trkpt lat="45.50704" lon="6.59856">
        <ele>1407.99</ele>
        <time>2016-01-24T08:07:01Z</time>
      </trkpt>
      <trkpt lat="45.50703" lon="6.59857">
        <ele>1407.99</ele>
        <time>2016-01-24T08:07:24Z</time>
      </trkpt>
      <trkpt lat="45.50701" lon="6.59852">
        <ele>1409.91</ele>
        <time>2016-01-24T08:07:36Z</time>
      </trkpt>
      <trkpt lat="45.507" lon="6.59851">
        <ele>1410.87</ele>
        <time>2016-01-24T08:07:47Z</time>
      </trkpt>
      <trkpt lat="45.50693" lon="6.59843">
        <ele>1413.76</ele>
        <time>2016-01-24T08:08:03Z</time>
      </trkpt>
      <trkpt lat="45.5069" lon="6.59842">
        <ele>1414.72</ele>
        <time>2016-01-24T08:08:17Z</time>
      </trkpt>
      <trkpt lat="45.50689" lon="6.59847">
        <ele>1415.2</ele>
        <time>2016-01-24T08:08:32Z</time>
      </trkpt>
      <trkpt lat="45.50686" lon="6.59855">
        <ele>1417.6</ele>
        <time>2016-01-24T08:08:46Z</time>
      </trkpt>
      <trkpt lat="45.50683" lon="6.59863">
        <ele>1419.52</ele>
        <time>2016-01-24T08:09:01Z</time>
      </trkpt>
      <trkpt lat="45.50682" lon="6.59861">
        <ele>1420.49</ele>
        <time>2016-01-24T08:09:15Z</time>
      </trkpt>
      <trkpt lat="45.50679" lon="6.59858">
        <ele>1421.93</ele>
        <time>2016-01-24T08:09:31Z</time>
      </trkpt>
      <trkpt lat="45.50674" lon="6.59856">
        <ele>1423.85</ele>
        <time>2016-01-24T08:09:45Z</time>
      </trkpt>
      <trkpt lat="45.50673" lon="6.5986">
        <ele>1425.29</ele>
        <time>2016-01-24T08:09:59Z</time>
      </trkpt>
      <trkpt lat="45.50671" lon="6.59865">
        <ele>1426.73</ele>
        <time>2016-01-24T08:10:16Z</time>
      </trkpt>
      <trkpt lat="45.50668" lon="6.59871">
        <ele>1428.66</ele>
        <time>2016-01-24T08:10:31Z</time>
      </trkpt>
      <trkpt lat="45.50666" lon="6.59878">
        <ele>1430.58</ele>
        <time>2016-01-24T08:10:45Z</time>
      </trkpt>
      <trkpt lat="45.50662" lon="6.59875">
        <ele>1432.02</ele>
        <time>2016-01-24T08:10:57Z</time>
      </trkpt>
      <trkpt lat="45.50658" lon="6.59873">
        <ele>1434.42</ele>
        <time>2016-01-24T08:11:10Z</time>
      </trkpt>
      <trkpt lat="45.50653" lon="6.59869">
        <ele>1436.35</ele>
        <time>2016-01-24T08:11:24Z</time>
      </trkpt>
      <trkpt lat="45.50648" lon="6.59868">
        <ele>1438.27</ele>
        <time>2016-01-24T08:11:38Z</time>
      </trkpt>
      <trkpt lat="45.50642" lon="6.59866">
        <ele>1440.19</ele>
        <time>2016-01-24T08:11:53Z</time>
      </trkpt>
      <trkpt lat="45.50635" lon="6.59859">
        <ele>1442.6</ele>
        <time>2016-01-24T08:12:09Z</time>
      </trkpt>
      <trkpt lat="45.50635" lon="6.59862">
        <ele>1443.56</ele>
        <time>2016-01-24T08:12:19Z</time>
      </trkpt>
      <trkpt lat="45.50637" lon="6.59871">
        <ele>1445.48</ele>
        <time>2016-01-24T08:12:34Z</time>
      </trkpt>
      <trkpt lat="45.50637" lon="6.59879">
        <ele>1446.92</ele>
        <time>2016-01-24T08:12:47Z</time>
      </trkpt>
      <trkpt lat="45.50638" lon="6.59889">
        <ele>1448.36</ele>
        <time>2016-01-24T08:13:00Z</time>
      </trkpt>
      <trkpt lat="45.50638" lon="6.59897">
        <ele>1450.77</ele>
        <time>2016-01-24T08:13:14Z</time>
      </trkpt>
      <trkpt lat="45.50638" lon="6.59907">
        <ele>1452.21</ele>
        <time>2016-01-24T08:13:28Z</time>
      </trkpt>
      <trkpt lat="45.50636" lon="6.59915">
        <ele>1454.61</ele>
        <time>2016-01-24T08:13:42Z</time>
      </trkpt>
      <trkpt lat="45.50636" lon="6.59926">
        <ele>1457.02</ele>
        <time>2016-01-24T08:13:57Z</time>
      </trkpt>
      <trkpt lat="45.5063" lon="6.59927">
        <ele>1458.46</ele>
        <time>2016-01-24T08:14:08Z</time>
      </trkpt>
      <trkpt lat="45.50625" lon="6.5993">
        <ele>1460.38</ele>
        <time>2016-01-24T08:14:23Z</time>
      </trkpt>
      <trkpt lat="45.50625" lon="6.5994">
        <ele>1462.3</ele>
        <time>2016-01-24T08:14:37Z</time>
      </trkpt>
      <trkpt lat="45.50625" lon="6.59951">
        <ele>1463.74</ele>
        <time>2016-01-24T08:14:52Z</time>
      </trkpt>
      <trkpt lat="45.50622" lon="6.59958">
        <ele>1466.15</ele>
        <time>2016-01-24T08:15:07Z</time>
      </trkpt>
      <trkpt lat="45.50619" lon="6.59966">
        <ele>1468.55</ele>
        <time>2016-01-24T08:15:20Z</time>
      </trkpt>
      <trkpt lat="45.50613" lon="6.59967">
        <ele>1469.99</ele>
        <time>2016-01-24T08:15:32Z</time>
      </trkpt>
      <trkpt lat="45.50606" lon="6.59972">
        <ele>1472.4</ele>
        <time>2016-01-24T08:15:49Z</time>
      </trkpt>
      <trkpt lat="45.50601" lon="6.59981">
        <ele>1474.32</ele>
        <time>2016-01-24T08:16:03Z</time>
      </trkpt>
      <trkpt lat="45.50596" lon="6.59989">
        <ele>1476.24</ele>
        <time>2016-01-24T08:16:18Z</time>
      </trkpt>
      <trkpt lat="45.50592" lon="6.6">
        <ele>1478.16</ele>
        <time>2016-01-24T08:16:34Z</time>
      </trkpt>
      <trkpt lat="45.50587" lon="6.60012">
        <ele>1479.61</ele>
        <time>2016-01-24T08:16:51Z</time>
      </trkpt>
      <trkpt lat="45.50587" lon="6.60024">
        <ele>1481.53</ele>
        <time>2016-01-24T08:17:06Z</time>
      </trkpt>
      <trkpt lat="45.50586" lon="6.60034">
        <ele>1483.45</ele>
        <time>2016-01-24T08:17:20Z</time>
      </trkpt>
      <trkpt lat="45.50582" lon="6.60047">
        <ele>1485.37</ele>
        <time>2016-01-24T08:17:37Z</time>
      </trkpt>
      <trkpt lat="45.5058" lon="6.60058">
        <ele>1487.3</ele>
        <time>2016-01-24T08:17:51Z</time>
      </trkpt>
      <trkpt lat="45.50578" lon="6.60068">
        <ele>1488.74</ele>
        <time>2016-01-24T08:18:06Z</time>
      </trkpt>
      <trkpt lat="45.50576" lon="6.6008">
        <ele>1491.14</ele>
        <time>2016-01-24T08:18:21Z</time>
      </trkpt>
      <trkpt lat="45.50576" lon="6.6009">
        <ele>1493.55</ele>
        <time>2016-01-24T08:18:36Z</time>
      </trkpt>
      <trkpt lat="45.50575" lon="6.60103">
        <ele>1495.47</ele>
        <time>2016-01-24T08:18:53Z</time>
      </trkpt>
      <trkpt lat="45.50574" lon="6.60113">
        <ele>1498.35</ele>
        <time>2016-01-24T08:19:08Z</time>
      </trkpt>
      <trkpt lat="45.50577" lon="6.60124">
        <ele>1500.27</ele>
        <time>2016-01-24T08:19:24Z</time>
      </trkpt>
      <trkpt lat="45.50577" lon="6.60136">
        <ele>1502.2</ele>
        <time>2016-01-24T08:19:40Z</time>
      </trkpt>
      <trkpt lat="45.50578" lon="6.60148">
        <ele>1504.12</ele>
        <time>2016-01-24T08:19:55Z</time>
      </trkpt>
      <trkpt lat="45.50575" lon="6.60159">
        <ele>1506.04</ele>
        <time>2016-01-24T08:20:11Z</time>
      </trkpt>
      <trkpt lat="45.50571" lon="6.60168">
        <ele>1508.45</ele>
        <time>2016-01-24T08:20:27Z</time>
      </trkpt>
      <trkpt lat="45.50572" lon="6.60179">
        <ele>1510.85</ele>
        <time>2016-01-24T08:20:43Z</time>
      </trkpt>
      <trkpt lat="45.50575" lon="6.60189">
        <ele>1512.77</ele>
        <time>2016-01-24T08:20:57Z</time>
      </trkpt>
      <trkpt lat="45.50573" lon="6.60197">
        <ele>1514.69</ele>
        <time>2016-01-24T08:21:11Z</time>
      </trkpt>
      <trkpt lat="45.50567" lon="6.60205">
        <ele>1516.14</ele>
        <time>2016-01-24T08:21:27Z</time>
      </trkpt>
      <trkpt lat="45.50558" lon="6.60207">
        <ele>1518.54</ele>
        <time>2016-01-24T08:21:43Z</time>
      </trkpt>
      <trkpt lat="45.50549" lon="6.60215">
        <ele>1520.94</ele>
        <time>2016-01-24T08:22:00Z</time>
      </trkpt>
      <trkpt lat="45.50552" lon="6.60225">
        <ele>1523.35</ele>
        <time>2016-01-24T08:22:16Z</time>
      </trkpt>
      <trkpt lat="45.50551" lon="6.60232">
        <ele>1525.27</ele>
        <time>2016-01-24T08:22:29Z</time>
      </trkpt>
      <trkpt lat="45.50545" lon="6.60239">
        <ele>1527.67</ele>
        <time>2016-01-24T08:22:45Z</time>
      </trkpt>
      <trkpt lat="45.50548" lon="6.60246">
        <ele>1529.59</ele>
        <time>2016-01-24T08:22:56Z</time>
      </trkpt>
      <trkpt lat="45.50544" lon="6.60253">
        <ele>1531.04</ele>
        <time>2016-01-24T08:23:08Z</time>
      </trkpt>
      <trkpt lat="45.50535" lon="6.60256">
        <ele>1532.96</ele>
        <time>2016-01-24T08:23:24Z</time>
      </trkpt>
      <trkpt lat="45.50533" lon="6.60259">
        <ele>1534.88</ele>
        <time>2016-01-24T08:23:39Z</time>
      </trkpt>
      <trkpt lat="45.50536" lon="6.60268">
        <ele>1536.8</ele>
        <time>2016-01-24T08:23:54Z</time>
      </trkpt>
      <trkpt lat="45.50539" lon="6.60274">
        <ele>1538.73</ele>
        <time>2016-01-24T08:24:07Z</time>
      </trkpt>
      <trkpt lat="45.50543" lon="6.6028">
        <ele>1540.17</ele>
        <time>2016-01-24T08:24:20Z</time>
      </trkpt>
      <trkpt lat="45.5055" lon="6.60289">
        <ele>1542.09</ele>
        <time>2016-01-24T08:24:35Z</time>
      </trkpt>
      <trkpt lat="45.50554" lon="6.603">
        <ele>1544.01</ele>
        <time>2016-01-24T08:24:52Z</time>
      </trkpt>
      <trkpt lat="45.50554" lon="6.60312">
        <ele>1546.42</ele>
        <time>2016-01-24T08:25:08Z</time>
      </trkpt>
      <trkpt lat="45.50556" lon="6.60317">
        <ele>1548.82</ele>
        <time>2016-01-24T08:25:23Z</time>
      </trkpt>
      <trkpt lat="45.50563" lon="6.60319">
        <ele>1550.26</ele>
        <time>2016-01-24T08:25:39Z</time>
      </trkpt>
      <trkpt lat="45.50568" lon="6.60322">
        <ele>1551.22</ele>
        <time>2016-01-24T08:25:57Z</time>
      </trkpt>
      <trkpt lat="45.50574" lon="6.60325">
        <ele>1553.63</ele>
        <time>2016-01-24T08:26:13Z</time>
      </trkpt>
      <trkpt lat="45.50581" lon="6.60327">
        <ele>1556.03</ele>
        <time>2016-01-24T08:26:26Z</time>
      </trkpt>
      <trkpt lat="45.50583" lon="6.60336">
        <ele>1558.43</ele>
        <time>2016-01-24T08:26:40Z</time>
      </trkpt>
      <trkpt lat="45.50586" lon="6.60344">
        <ele>1560.36</ele>
        <time>2016-01-24T08:26:55Z</time>
      </trkpt>
      <trkpt lat="45.50591" lon="6.60349">
        <ele>1562.76</ele>
        <time>2016-01-24T08:27:10Z</time>
      </trkpt>
      <trkpt lat="45.50596" lon="6.60358">
        <ele>1564.68</ele>
        <time>2016-01-24T08:27:24Z</time>
      </trkpt>
      <trkpt lat="45.50593" lon="6.60363">
        <ele>1566.61</ele>
        <time>2016-01-24T08:27:37Z</time>
      </trkpt>
      <trkpt lat="45.50587" lon="6.60364">
        <ele>1569.01</ele>
        <time>2016-01-24T08:27:52Z</time>
      </trkpt>
      <trkpt lat="45.5058" lon="6.60367">
        <ele>1570.93</ele>
        <time>2016-01-24T08:28:06Z</time>
      </trkpt>
      <trkpt lat="45.50579" lon="6.60374">
        <ele>1572.85</ele>
        <time>2016-01-24T08:28:20Z</time>
      </trkpt>
      <trkpt lat="45.50583" lon="6.60376">
        <ele>1575.74</ele>
        <time>2016-01-24T08:28:36Z</time>
      </trkpt>
      <trkpt lat="45.50589" lon="6.60378">
        <ele>1577.18</ele>
        <time>2016-01-24T08:28:50Z</time>
      </trkpt>
      <trkpt lat="45.50595" lon="6.60384">
        <ele>1579.1</ele>
        <time>2016-01-24T08:29:03Z</time>
      </trkpt>
      <trkpt lat="45.506" lon="6.60389">
        <ele>1581.03</ele>
        <time>2016-01-24T08:29:17Z</time>
      </trkpt>
      <trkpt lat="45.50604" lon="6.60396">
        <ele>1582.95</ele>
        <time>2016-01-24T08:29:30Z</time>
      </trkpt>
      <trkpt lat="45.50609" lon="6.60403">
        <ele>1585.35</ele>
        <time>2016-01-24T08:29:44Z</time>
      </trkpt>
      <trkpt lat="45.50613" lon="6.60408">
        <ele>1587.27</ele>
        <time>2016-01-24T08:29:58Z</time>
      </trkpt>
      <trkpt lat="45.50621" lon="6.60413">
        <ele>1590.16</ele>
        <time>2016-01-24T08:30:14Z</time>
      </trkpt>
      <trkpt lat="45.50628" lon="6.60422">
        <ele>1592.56</ele>
        <time>2016-01-24T08:30:31Z</time>
      </trkpt>
      <trkpt lat="45.50633" lon="6.60427">
        <ele>1594.96</ele>
        <time>2016-01-24T08:30:46Z</time>
      </trkpt>
      <trkpt lat="45.50639" lon="6.60435">
        <ele>1596.89</ele>
        <time>2016-01-24T08:30:59Z</time>
      </trkpt>
      <trkpt lat="45.50642" lon="6.60438">
        <ele>1597.85</ele>
        <time>2016-01-24T08:31:07Z</time>
      </trkpt>
      <trkpt lat="45.50647" lon="6.60443">
        <ele>1599.77</ele>
        <time>2016-01-24T08:31:19Z</time>
      </trkpt>
      <trkpt lat="45.50652" lon="6.60445">
        <ele>1602.17</ele>
        <time>2016-01-24T08:31:31Z</time>
      </trkpt>
      <trkpt lat="45.50655" lon="6.60453">
        <ele>1603.62</ele>
        <time>2016-01-24T08:31:42Z</time>
      </trkpt>
      <trkpt lat="45.5065" lon="6.60458">
        <ele>1604.58</ele>
        <time>2016-01-24T08:31:54Z</time>
      </trkpt>
      <trkpt lat="45.50644" lon="6.60461">
        <ele>1606.5</ele>
        <time>2016-01-24T08:32:09Z</time>
      </trkpt>
      <trkpt lat="45.50642" lon="6.60464">
        <ele>1608.42</ele>
        <time>2016-01-24T08:32:22Z</time>
      </trkpt>
      <trkpt lat="45.50634" lon="6.60467">
        <ele>1609.86</ele>
        <time>2016-01-24T08:32:35Z</time>
      </trkpt>
      <trkpt lat="45.50623" lon="6.60465">
        <ele>1611.31</ele>
        <time>2016-01-24T08:32:49Z</time>
      </trkpt>
      <trkpt lat="45.50612" lon="6.60467">
        <ele>1613.71</ele>
        <time>2016-01-24T08:33:07Z</time>
      </trkpt>
      <trkpt lat="45.50605" lon="6.60472">
        <ele>1615.63</ele>
        <time>2016-01-24T08:33:22Z</time>
      </trkpt>
      <trkpt lat="45.50597" lon="6.60473">
        <ele>1617.56</ele>
        <time>2016-01-24T08:33:37Z</time>
      </trkpt>
      <trkpt lat="45.50588" lon="6.60476">
        <ele>1618.52</ele>
        <time>2016-01-24T08:33:51Z</time>
      </trkpt>
      <trkpt lat="45.50574" lon="6.60474">
        <ele>1619.48</ele>
        <time>2016-01-24T08:34:06Z</time>
      </trkpt>
      <trkpt lat="45.50557" lon="6.60467">
        <ele>1621.4</ele>
        <time>2016-01-24T08:34:25Z</time>
      </trkpt>
      <trkpt lat="45.50553" lon="6.60472">
        <ele>1623.8</ele>
        <time>2016-01-24T08:34:41Z</time>
      </trkpt>
      <trkpt lat="45.50561" lon="6.60477">
        <ele>1625.25</ele>
        <time>2016-01-24T08:34:56Z</time>
      </trkpt>
      <trkpt lat="45.5057" lon="6.60481">
        <ele>1626.69</ele>
        <time>2016-01-24T08:35:13Z</time>
      </trkpt>
      <trkpt lat="45.50576" lon="6.60485">
        <ele>1627.65</ele>
        <time>2016-01-24T08:35:29Z</time>
      </trkpt>
      <trkpt lat="45.50585" lon="6.60489">
        <ele>1630.05</ele>
        <time>2016-01-24T08:35:46Z</time>
      </trkpt>
      <trkpt lat="45.50596" lon="6.60495">
        <ele>1632.94</ele>
        <time>2016-01-24T08:36:05Z</time>
      </trkpt>
      <trkpt lat="45.50603" lon="6.605">
        <ele>1635.34</ele>
        <time>2016-01-24T08:36:21Z</time>
      </trkpt>
      <trkpt lat="45.50604" lon="6.60507">
        <ele>1637.26</ele>
        <time>2016-01-24T08:36:36Z</time>
      </trkpt>
      <trkpt lat="45.50599" lon="6.60507">
        <ele>1638.7</ele>
        <time>2016-01-24T08:36:50Z</time>
      </trkpt>
      <trkpt lat="45.50594" lon="6.60512">
        <ele>1641.11</ele>
        <time>2016-01-24T08:37:05Z</time>
      </trkpt>
      <trkpt lat="45.50586" lon="6.60517">
        <ele>1643.03</ele>
        <time>2016-01-24T08:37:21Z</time>
      </trkpt>
      <trkpt lat="45.5058" lon="6.60521">
        <ele>1644.47</ele>
        <time>2016-01-24T08:37:34Z</time>
      </trkpt>
      <trkpt lat="45.50572" lon="6.60525">
        <ele>1646.88</ele>
        <time>2016-01-24T08:37:48Z</time>
      </trkpt>
      <trkpt lat="45.50564" lon="6.6053">
        <ele>1649.28</ele>
        <time>2016-01-24T08:38:04Z</time>
      </trkpt>
      <trkpt lat="45.50555" lon="6.60532">
        <ele>1651.2</ele>
        <time>2016-01-24T08:38:20Z</time>
      </trkpt>
      <trkpt lat="45.50548" lon="6.6053">
        <ele>1652.64</ele>
        <time>2016-01-24T08:38:35Z</time>
      </trkpt>
      <trkpt lat="45.50542" lon="6.60528">
        <ele>1653.6</ele>
        <time>2016-01-24T08:38:50Z</time>
      </trkpt>
      <trkpt lat="45.50537" lon="6.60528">
        <ele>1654.57</ele>
        <time>2016-01-24T08:39:03Z</time>
      </trkpt>
      <trkpt lat="45.50534" lon="6.60532">
        <ele>1656.49</ele>
        <time>2016-01-24T08:39:18Z</time>
      </trkpt>
      <trkpt lat="45.50524" lon="6.60537">
        <ele>1658.41</ele>
        <time>2016-01-24T08:39:31Z</time>
      </trkpt>
      <trkpt lat="45.50514" lon="6.6054">
        <ele>1659.85</ele>
        <time>2016-01-24T08:39:47Z</time>
      </trkpt>
      <trkpt lat="45.50508" lon="6.60548">
        <ele>1661.78</ele>
        <time>2016-01-24T08:40:02Z</time>
      </trkpt>
      <trkpt lat="45.50503" lon="6.60555">
        <ele>1664.18</ele>
        <time>2016-01-24T08:40:17Z</time>
      </trkpt>
      <trkpt lat="45.50502" lon="6.60561">
        <ele>1665.14</ele>
        <time>2016-01-24T08:40:29Z</time>
      </trkpt>
      <trkpt lat="45.50506" lon="6.60563">
        <ele>1666.58</ele>
        <time>2016-01-24T08:40:43Z</time>
      </trkpt>
      <trkpt lat="45.50511" lon="6.60558">
        <ele>1669.47</ele>
        <time>2016-01-24T08:41:01Z</time>
      </trkpt>
      <trkpt lat="45.50516" lon="6.60558">
        <ele>1671.39</ele>
        <time>2016-01-24T08:41:14Z</time>
      </trkpt>
      <trkpt lat="45.50523" lon="6.6056">
        <ele>1672.83</ele>
        <time>2016-01-24T08:41:28Z</time>
      </trkpt>
      <trkpt lat="45.50523" lon="6.60568">
        <ele>1675.23</ele>
        <time>2016-01-24T08:41:43Z</time>
      </trkpt>
      <trkpt lat="45.50518" lon="6.60572">
        <ele>1676.68</ele>
        <time>2016-01-24T08:41:58Z</time>
      </trkpt>
      <trkpt lat="45.50513" lon="6.60577">
        <ele>1678.6</ele>
        <time>2016-01-24T08:42:12Z</time>
      </trkpt>
      <trkpt lat="45.50512" lon="6.60583">
        <ele>1680.04</ele>
        <time>2016-01-24T08:42:24Z</time>
      </trkpt>
      <trkpt lat="45.50517" lon="6.60579">
        <ele>1682.44</ele>
        <time>2016-01-24T08:42:39Z</time>
      </trkpt>
      <trkpt lat="45.50526" lon="6.60582">
        <ele>1684.37</ele>
        <time>2016-01-24T08:42:55Z</time>
      </trkpt>
      <trkpt lat="45.50532" lon="6.60586">
        <ele>1686.29</ele>
        <time>2016-01-24T08:43:08Z</time>
      </trkpt>
      <trkpt lat="45.50536" lon="6.60588">
        <ele>1688.21</ele>
        <time>2016-01-24T08:43:20Z</time>
      </trkpt>
      <trkpt lat="45.50543" lon="6.60594">
        <ele>1691.1</ele>
        <time>2016-01-24T08:43:34Z</time>
      </trkpt>
      <trkpt lat="45.5055" lon="6.60599">
        <ele>1693.5</ele>
        <time>2016-01-24T08:43:49Z</time>
      </trkpt>
      <trkpt lat="45.50557" lon="6.60605">
        <ele>1694.94</ele>
        <time>2016-01-24T08:44:03Z</time>
      </trkpt>
      <trkpt lat="45.50565" lon="6.60609">
        <ele>1696.86</ele>
        <time>2016-01-24T08:44:18Z</time>
      </trkpt>
      <trkpt lat="45.50573" lon="6.60613">
        <ele>1699.75</ele>
        <time>2016-01-24T08:44:34Z</time>
      </trkpt>
      <trkpt lat="45.50581" lon="6.60616">
        <ele>1702.15</ele>
        <time>2016-01-24T08:44:50Z</time>
      </trkpt>
      <trkpt lat="45.50588" lon="6.6062">
        <ele>1704.07</ele>
        <time>2016-01-24T08:45:05Z</time>
      </trkpt>
      <trkpt lat="45.50596" lon="6.60625">
        <ele>1706</ele>
        <time>2016-01-24T08:45:20Z</time>
      </trkpt>
      <trkpt lat="45.50601" lon="6.60629">
        <ele>1708.4</ele>
        <time>2016-01-24T08:45:36Z</time>
      </trkpt>
      <trkpt lat="45.50594" lon="6.60638">
        <ele>1710.32</ele>
        <time>2016-01-24T08:45:53Z</time>
      </trkpt>
      <trkpt lat="45.50586" lon="6.60645">
        <ele>1712.25</ele>
        <time>2016-01-24T08:46:08Z</time>
      </trkpt>
      <trkpt lat="45.50577" lon="6.60656">
        <ele>1714.17</ele>
        <time>2016-01-24T08:46:26Z</time>
      </trkpt>
      <trkpt lat="45.50569" lon="6.60669">
        <ele>1716.57</ele>
        <time>2016-01-24T08:46:46Z</time>
      </trkpt>
      <trkpt lat="45.50562" lon="6.60677">
        <ele>1718.49</ele>
        <time>2016-01-24T08:47:01Z</time>
      </trkpt>
      <trkpt lat="45.50554" lon="6.60686">
        <ele>1720.9</ele>
        <time>2016-01-24T08:47:17Z</time>
      </trkpt>
      <trkpt lat="45.50546" lon="6.60694">
        <ele>1723.3</ele>
        <time>2016-01-24T08:47:33Z</time>
      </trkpt>
      <trkpt lat="45.50539" lon="6.60702">
        <ele>1725.7</ele>
        <time>2016-01-24T08:47:50Z</time>
      </trkpt>
      <trkpt lat="45.5053" lon="6.60709">
        <ele>1727.63</ele>
        <time>2016-01-24T08:48:07Z</time>
      </trkpt>
      <trkpt lat="45.50522" lon="6.60711">
        <ele>1730.51</ele>
        <time>2016-01-24T08:48:24Z</time>
      </trkpt>
      <trkpt lat="45.50516" lon="6.60712">
        <ele>1731.95</ele>
        <time>2016-01-24T08:48:38Z</time>
      </trkpt>
      <trkpt lat="45.50509" lon="6.60718">
        <ele>1733.88</ele>
        <time>2016-01-24T08:48:53Z</time>
      </trkpt>
      <trkpt lat="45.50505" lon="6.60725">
        <ele>1736.28</ele>
        <time>2016-01-24T08:49:06Z</time>
      </trkpt>
      <trkpt lat="45.505" lon="6.60733">
        <ele>1738.2</ele>
        <time>2016-01-24T08:49:23Z</time>
      </trkpt>
      <trkpt lat="45.50498" lon="6.60739">
        <ele>1740.6</ele>
        <time>2016-01-24T08:49:35Z</time>
      </trkpt>
      <trkpt lat="45.50493" lon="6.60742">
        <ele>1742.53</ele>
        <time>2016-01-24T08:49:48Z</time>
      </trkpt>
      <trkpt lat="45.50491" lon="6.6075">
        <ele>1743.97</ele>
        <time>2016-01-24T08:50:01Z</time>
      </trkpt>
      <trkpt lat="45.5049" lon="6.60757">
        <ele>1745.89</ele>
        <time>2016-01-24T08:50:18Z</time>
      </trkpt>
      <trkpt lat="45.50485" lon="6.60767">
        <ele>1748.78</ele>
        <time>2016-01-24T08:50:36Z</time>
      </trkpt>
      <trkpt lat="45.5048" lon="6.60775">
        <ele>1750.7</ele>
        <time>2016-01-24T08:50:50Z</time>
      </trkpt>
      <trkpt lat="45.50475" lon="6.60781">
        <ele>1752.62</ele>
        <time>2016-01-24T08:51:04Z</time>
      </trkpt>
      <trkpt lat="45.50469" lon="6.60787">
        <ele>1754.54</ele>
        <time>2016-01-24T08:51:19Z</time>
      </trkpt>
      <trkpt lat="45.50463" lon="6.60793">
        <ele>1756.95</ele>
        <time>2016-01-24T08:51:34Z</time>
      </trkpt>
      <trkpt lat="45.50456" lon="6.60799">
        <ele>1758.87</ele>
        <time>2016-01-24T08:51:50Z</time>
      </trkpt>
      <trkpt lat="45.50449" lon="6.60803">
        <ele>1760.79</ele>
        <time>2016-01-24T08:52:05Z</time>
      </trkpt>
      <trkpt lat="45.5044" lon="6.60807">
        <ele>1763.2</ele>
        <time>2016-01-24T08:52:22Z</time>
      </trkpt>
      <trkpt lat="45.50431" lon="6.60811">
        <ele>1764.64</ele>
        <time>2016-01-24T08:52:39Z</time>
      </trkpt>
      <trkpt lat="45.50423" lon="6.60815">
        <ele>1767.04</ele>
        <time>2016-01-24T08:52:54Z</time>
      </trkpt>
      <trkpt lat="45.50413" lon="6.60823">
        <ele>1769.44</ele>
        <time>2016-01-24T08:53:13Z</time>
      </trkpt>
      <trkpt lat="45.50407" lon="6.60832">
        <ele>1771.85</ele>
        <time>2016-01-24T08:53:30Z</time>
      </trkpt>
      <trkpt lat="45.50401" lon="6.60838">
        <ele>1773.29</ele>
        <time>2016-01-24T08:53:44Z</time>
      </trkpt>
      <trkpt lat="45.50395" lon="6.60846">
        <ele>1775.69</ele>
        <time>2016-01-24T08:54:00Z</time>
      </trkpt>
      <trkpt lat="45.50389" lon="6.60853">
        <ele>1777.61</ele>
        <time>2016-01-24T08:54:14Z</time>
      </trkpt>
      <trkpt lat="45.5038" lon="6.60859">
        <ele>1780.5</ele>
        <time>2016-01-24T08:54:30Z</time>
      </trkpt>
      <trkpt lat="45.50377" lon="6.60865">
        <ele>1781.94</ele>
        <time>2016-01-24T08:54:45Z</time>
      </trkpt>
      <trkpt lat="45.50374" lon="6.60866">
        <ele>1782.9</ele>
        <time>2016-01-24T08:54:58Z</time>
      </trkpt>
      <trkpt lat="45.50374" lon="6.6087">
        <ele>1784.34</ele>
        <time>2016-01-24T08:55:12Z</time>
      </trkpt>
      <trkpt lat="45.50374" lon="6.60871">
        <ele>1784.34</ele>
        <time>2016-01-24T08:55:27Z</time>
      </trkpt>
      <trkpt lat="45.50372" lon="6.60873">
        <ele>1784.34</ele>
        <time>2016-01-24T08:55:49Z</time>
      </trkpt>
      <trkpt lat="45.50375" lon="6.60869">
        <ele>1784.34</ele>
        <time>2016-01-24T08:56:07Z</time>
      </trkpt>
      <trkpt lat="45.50374" lon="6.60875">
        <ele>1784.34</ele>
        <time>2016-01-24T08:56:21Z</time>
      </trkpt>
      <trkpt lat="45.50373" lon="6.60873">
        <ele>1784.34</ele>
        <time>2016-01-24T08:56:35Z</time>
      </trkpt>
      <trkpt lat="45.50377" lon="6.60876">
        <ele>1784.34</ele>
        <time>2016-01-24T08:57:04Z</time>
      </trkpt>
      <trkpt lat="45.50376" lon="6.60873">
        <ele>1784.34</ele>
        <time>2016-01-24T08:57:20Z</time>
      </trkpt>
      <trkpt lat="45.50375" lon="6.60871">
        <ele>1784.34</ele>
        <time>2016-01-24T08:57:42Z</time>
      </trkpt>
      <trkpt lat="45.50375" lon="6.60872">
        <ele>1784.82</ele>
        <time>2016-01-24T08:58:01Z</time>
      </trkpt>
      <trkpt lat="45.50377" lon="6.60869">
        <ele>1784.82</ele>
        <time>2016-01-24T08:58:22Z</time>
      </trkpt>
      <trkpt lat="45.50375" lon="6.60872">
        <ele>1784.82</ele>
        <time>2016-01-24T08:58:46Z</time>
      </trkpt>
      <trkpt lat="45.50372" lon="6.60872">
        <ele>1784.82</ele>
        <time>2016-01-24T08:59:03Z</time>
      </trkpt>
      <trkpt lat="45.50371" lon="6.60872">
        <ele>1784.34</ele>
        <time>2016-01-24T08:59:37Z</time>
      </trkpt>
      <trkpt lat="45.50372" lon="6.60869">
        <ele>1784.34</ele>
        <time>2016-01-24T09:00:00Z</time>
      </trkpt>
      <trkpt lat="45.50371" lon="6.60871">
        <ele>1784.34</ele>
        <time>2016-01-24T09:00:32Z</time>
      </trkpt>
      <trkpt lat="45.50371" lon="6.60871">
        <ele>1784.34</ele>
        <time>2016-01-24T09:00:55Z</time>
      </trkpt>
      <trkpt lat="45.50373" lon="6.60874">
        <ele>1784.82</ele>
        <time>2016-01-24T09:01:17Z</time>
      </trkpt>
      <trkpt lat="45.50373" lon="6.60874">
        <ele>1784.82</ele>
        <time>2016-01-24T09:01:41Z</time>
      </trkpt>
      <trkpt lat="45.50377" lon="6.60874">
        <ele>1785.31</ele>
        <time>2016-01-24T09:01:57Z</time>
      </trkpt>
      <trkpt lat="45.50382" lon="6.60879">
        <ele>1786.27</ele>
        <time>2016-01-24T09:02:12Z</time>
      </trkpt>
      <trkpt lat="45.5038" lon="6.60885">
        <ele>1788.67</ele>
        <time>2016-01-24T09:02:26Z</time>
      </trkpt>
      <trkpt lat="45.50375" lon="6.60893">
        <ele>1791.07</ele>
        <time>2016-01-24T09:02:41Z</time>
      </trkpt>
      <trkpt lat="45.50366" lon="6.60892">
        <ele>1793.96</ele>
        <time>2016-01-24T09:02:58Z</time>
      </trkpt>
      <trkpt lat="45.5036" lon="6.60892">
        <ele>1796.36</ele>
        <time>2016-01-24T09:03:12Z</time>
      </trkpt>
      <trkpt lat="45.50354" lon="6.60892">
        <ele>1798.28</ele>
        <time>2016-01-24T09:03:26Z</time>
      </trkpt>
      <trkpt lat="45.50346" lon="6.60891">
        <ele>1801.17</ele>
        <time>2016-01-24T09:03:43Z</time>
      </trkpt>
      <trkpt lat="45.50338" lon="6.60894">
        <ele>1803.09</ele>
        <time>2016-01-24T09:03:58Z</time>
      </trkpt>
      <trkpt lat="45.50331" lon="6.60897">
        <ele>1805.01</ele>
        <time>2016-01-24T09:04:12Z</time>
      </trkpt>
      <trkpt lat="45.50326" lon="6.60902">
        <ele>1807.42</ele>
        <time>2016-01-24T09:04:26Z</time>
      </trkpt>
      <trkpt lat="45.50323" lon="6.60907">
        <ele>1809.82</ele>
        <time>2016-01-24T09:04:41Z</time>
      </trkpt>
      <trkpt lat="45.50318" lon="6.60911">
        <ele>1811.74</ele>
        <time>2016-01-24T09:04:55Z</time>
      </trkpt>
      <trkpt lat="45.50312" lon="6.60916">
        <ele>1814.63</ele>
        <time>2016-01-24T09:05:10Z</time>
      </trkpt>
      <trkpt lat="45.50305" lon="6.6092">
        <ele>1817.03</ele>
        <time>2016-01-24T09:05:26Z</time>
      </trkpt>
      <trkpt lat="45.50298" lon="6.60928">
        <ele>1819.91</ele>
        <time>2016-01-24T09:05:42Z</time>
      </trkpt>
      <trkpt lat="45.50292" lon="6.60937">
        <ele>1822.32</ele>
        <time>2016-01-24T09:05:56Z</time>
      </trkpt>
      <trkpt lat="45.50284" lon="6.60945">
        <ele>1824.24</ele>
        <time>2016-01-24T09:06:11Z</time>
      </trkpt>
      <trkpt lat="45.50275" lon="6.60952">
        <ele>1826.16</ele>
        <time>2016-01-24T09:06:29Z</time>
      </trkpt>
      <trkpt lat="45.50265" lon="6.60955">
        <ele>1827.6</ele>
        <time>2016-01-24T09:06:46Z</time>
      </trkpt>
      <trkpt lat="45.50255" lon="6.60955">
        <ele>1829.53</ele>
        <time>2016-01-24T09:07:01Z</time>
      </trkpt>
      <trkpt lat="45.50248" lon="6.60955">
        <ele>1831.45</ele>
        <time>2016-01-24T09:07:15Z</time>
      </trkpt>
      <trkpt lat="45.5024" lon="6.60956">
        <ele>1834.33</ele>
        <time>2016-01-24T09:07:31Z</time>
      </trkpt>
      <trkpt lat="45.50235" lon="6.6096">
        <ele>1837.22</ele>
        <time>2016-01-24T09:07:46Z</time>
      </trkpt>
      <trkpt lat="45.50236" lon="6.6097">
        <ele>1839.14</ele>
        <time>2016-01-24T09:08:03Z</time>
      </trkpt>
      <trkpt lat="45.50243" lon="6.60977">
        <ele>1840.58</ele>
        <time>2016-01-24T09:08:17Z</time>
      </trkpt>
      <trkpt lat="45.50248" lon="6.60989">
        <ele>1843.47</ele>
        <time>2016-01-24T09:08:34Z</time>
      </trkpt>
      <trkpt lat="45.50251" lon="6.61">
        <ele>1843.95</ele>
        <time>2016-01-24T09:08:48Z</time>
      </trkpt>
      <trkpt lat="45.50256" lon="6.61008">
        <ele>1845.39</ele>
        <time>2016-01-24T09:09:03Z</time>
      </trkpt>
      <trkpt lat="45.50261" lon="6.61004">
        <ele>1846.83</ele>
        <time>2016-01-24T09:09:17Z</time>
      </trkpt>
      <trkpt lat="45.50266" lon="6.61006">
        <ele>1848.27</ele>
        <time>2016-01-24T09:09:30Z</time>
      </trkpt>
      <trkpt lat="45.50261" lon="6.61022">
        <ele>1848.75</ele>
        <time>2016-01-24T09:09:46Z</time>
      </trkpt>
      <trkpt lat="45.50258" lon="6.61034">
        <ele>1849.23</ele>
        <time>2016-01-24T09:10:03Z</time>
      </trkpt>
      <trkpt lat="45.50255" lon="6.61052">
        <ele>1851.16</ele>
        <time>2016-01-24T09:10:18Z</time>
      </trkpt>
      <trkpt lat="45.50251" lon="6.61072">
        <ele>1852.12</ele>
        <time>2016-01-24T09:10:37Z</time>
      </trkpt>
      <trkpt lat="45.5025" lon="6.61092">
        <ele>1853.56</ele>
        <time>2016-01-24T09:10:55Z</time>
      </trkpt>
      <trkpt lat="45.50248" lon="6.61109">
        <ele>1856.44</ele>
        <time>2016-01-24T09:11:14Z</time>
      </trkpt>
      <trkpt lat="45.50246" lon="6.61125">
        <ele>1858.37</ele>
        <time>2016-01-24T09:11:31Z</time>
      </trkpt>
      <trkpt lat="45.50242" lon="6.61126">
        <ele>1860.77</ele>
        <time>2016-01-24T09:11:43Z</time>
      </trkpt>
      <trkpt lat="45.50235" lon="6.6113">
        <ele>1862.69</ele>
        <time>2016-01-24T09:11:59Z</time>
      </trkpt>
      <trkpt lat="45.50232" lon="6.61147">
        <ele>1864.61</ele>
        <time>2016-01-24T09:12:17Z</time>
      </trkpt>
      <trkpt lat="45.50233" lon="6.61161">
        <ele>1867.02</ele>
        <time>2016-01-24T09:12:34Z</time>
      </trkpt>
      <trkpt lat="45.5024" lon="6.61166">
        <ele>1868.94</ele>
        <time>2016-01-24T09:12:48Z</time>
      </trkpt>
      <trkpt lat="45.50243" lon="6.61177">
        <ele>1870.38</ele>
        <time>2016-01-24T09:13:03Z</time>
      </trkpt>
      <trkpt lat="45.50234" lon="6.61177">
        <ele>1872.79</ele>
        <time>2016-01-24T09:13:19Z</time>
      </trkpt>
      <trkpt lat="45.50226" lon="6.61174">
        <ele>1875.19</ele>
        <time>2016-01-24T09:13:35Z</time>
      </trkpt>
      <trkpt lat="45.50217" lon="6.61167">
        <ele>1876.63</ele>
        <time>2016-01-24T09:13:52Z</time>
      </trkpt>
      <trkpt lat="45.50206" lon="6.61168">
        <ele>1879.03</ele>
        <time>2016-01-24T09:14:10Z</time>
      </trkpt>
      <trkpt lat="45.50205" lon="6.61188">
        <ele>1881.44</ele>
        <time>2016-01-24T09:14:30Z</time>
      </trkpt>
      <trkpt lat="45.50206" lon="6.61201">
        <ele>1883.36</ele>
        <time>2016-01-24T09:14:44Z</time>
      </trkpt>
      <trkpt lat="45.50207" lon="6.61219">
        <ele>1885.76</ele>
        <time>2016-01-24T09:15:02Z</time>
      </trkpt>
      <trkpt lat="45.50202" lon="6.61221">
        <ele>1887.21</ele>
        <time>2016-01-24T09:15:15Z</time>
      </trkpt>
      <trkpt lat="45.50193" lon="6.6122">
        <ele>1889.13</ele>
        <time>2016-01-24T09:15:30Z</time>
      </trkpt>
      <trkpt lat="45.50182" lon="6.61221">
        <ele>1891.05</ele>
        <time>2016-01-24T09:15:47Z</time>
      </trkpt>
      <trkpt lat="45.50172" lon="6.6122">
        <ele>1893.45</ele>
        <time>2016-01-24T09:16:03Z</time>
      </trkpt>
      <trkpt lat="45.50166" lon="6.61218">
        <ele>1894.42</ele>
        <time>2016-01-24T09:16:20Z</time>
      </trkpt>
      <trkpt lat="45.50159" lon="6.61215">
        <ele>1895.86</ele>
        <time>2016-01-24T09:16:38Z</time>
      </trkpt>
      <trkpt lat="45.50145" lon="6.61213">
        <ele>1898.26</ele>
        <time>2016-01-24T09:16:55Z</time>
      </trkpt>
      <trkpt lat="45.50138" lon="6.61219">
        <ele>1900.66</ele>
        <time>2016-01-24T09:17:09Z</time>
      </trkpt>
      <trkpt lat="45.50134" lon="6.61222">
        <ele>1901.63</ele>
        <time>2016-01-24T09:17:16Z</time>
      </trkpt>
      <trkpt lat="45.50132" lon="6.61224">
        <ele>1901.63</ele>
        <time>2016-01-24T09:17:19Z</time>
      </trkpt>
      <trkpt lat="45.50126" lon="6.61224">
        <ele>1901.63</ele>
        <time>2016-01-24T09:17:25Z</time>
      </trkpt>
      <trkpt lat="45.50115" lon="6.61223">
        <ele>1903.07</ele>
        <time>2016-01-24T09:17:43Z</time>
      </trkpt>
      <trkpt lat="45.50121" lon="6.6123">
        <ele>1904.99</ele>
        <time>2016-01-24T09:17:58Z</time>
      </trkpt>
      <trkpt lat="45.50118" lon="6.61234">
        <ele>1906.43</ele>
        <time>2016-01-24T09:18:07Z</time>
      </trkpt>
      <trkpt lat="45.5011" lon="6.61238">
        <ele>1909.32</ele>
        <time>2016-01-24T09:18:23Z</time>
      </trkpt>
      <trkpt lat="45.501" lon="6.61243">
        <ele>1912.2</ele>
        <time>2016-01-24T09:18:42Z</time>
      </trkpt>
      <trkpt lat="45.50092" lon="6.61248">
        <ele>1915.08</ele>
        <time>2016-01-24T09:18:59Z</time>
      </trkpt>
      <trkpt lat="45.50087" lon="6.61262">
        <ele>1917.97</ele>
        <time>2016-01-24T09:19:18Z</time>
      </trkpt>
      <trkpt lat="45.50088" lon="6.61273">
        <ele>1919.41</ele>
        <time>2016-01-24T09:19:32Z</time>
      </trkpt>
      <trkpt lat="45.5009" lon="6.61284">
        <ele>1920.85</ele>
        <time>2016-01-24T09:19:43Z</time>
      </trkpt>
      <trkpt lat="45.50095" lon="6.61305">
        <ele>1922.29</ele>
        <time>2016-01-24T09:20:04Z</time>
      </trkpt>
      <trkpt lat="45.50098" lon="6.61322">
        <ele>1923.74</ele>
        <time>2016-01-24T09:20:23Z</time>
      </trkpt>
      <trkpt lat="45.50099" lon="6.61335">
        <ele>1926.62</ele>
        <time>2016-01-24T09:20:39Z</time>
      </trkpt>
      <trkpt lat="45.5009" lon="6.61343">
        <ele>1928.54</ele>
        <time>2016-01-24T09:20:56Z</time>
      </trkpt>
      <trkpt lat="45.50081" lon="6.61345">
        <ele>1930.46</ele>
        <time>2016-01-24T09:21:11Z</time>
      </trkpt>
      <trkpt lat="45.5007" lon="6.61347">
        <ele>1932.87</ele>
        <time>2016-01-24T09:21:29Z</time>
      </trkpt>
      <trkpt lat="45.50064" lon="6.61352">
        <ele>1935.27</ele>
        <time>2016-01-24T09:21:44Z</time>
      </trkpt>
      <trkpt lat="45.50059" lon="6.61364">
        <ele>1937.19</ele>
        <time>2016-01-24T09:22:02Z</time>
      </trkpt>
      <trkpt lat="45.50053" lon="6.61374">
        <ele>1939.6</ele>
        <time>2016-01-24T09:22:19Z</time>
      </trkpt>
      <trkpt lat="45.50049" lon="6.61383">
        <ele>1941.52</ele>
        <time>2016-01-24T09:22:33Z</time>
      </trkpt>
      <trkpt lat="45.50045" lon="6.61394">
        <ele>1943.44</ele>
        <time>2016-01-24T09:22:49Z</time>
      </trkpt>
      <trkpt lat="45.5004" lon="6.61404">
        <ele>1945.36</ele>
        <time>2016-01-24T09:23:06Z</time>
      </trkpt>
      <trkpt lat="45.50035" lon="6.61416">
        <ele>1947.29</ele>
        <time>2016-01-24T09:23:22Z</time>
      </trkpt>
      <trkpt lat="45.50031" lon="6.61426">
        <ele>1950.17</ele>
        <time>2016-01-24T09:23:40Z</time>
      </trkpt>
      <trkpt lat="45.50031" lon="6.61438">
        <ele>1952.09</ele>
        <time>2016-01-24T09:23:56Z</time>
      </trkpt>
      <trkpt lat="45.50035" lon="6.6145">
        <ele>1954.5</ele>
        <time>2016-01-24T09:24:14Z</time>
      </trkpt>
      <trkpt lat="45.50038" lon="6.61466">
        <ele>1955.46</ele>
        <time>2016-01-24T09:24:32Z</time>
      </trkpt>
      <trkpt lat="45.5004" lon="6.61478">
        <ele>1957.38</ele>
        <time>2016-01-24T09:24:49Z</time>
      </trkpt>
      <trkpt lat="45.50041" lon="6.61488">
        <ele>1959.3</ele>
        <time>2016-01-24T09:25:03Z</time>
      </trkpt>
      <trkpt lat="45.50032" lon="6.61484">
        <ele>1960.75</ele>
        <time>2016-01-24T09:25:19Z</time>
      </trkpt>
      <trkpt lat="45.50023" lon="6.61478">
        <ele>1962.19</ele>
        <time>2016-01-24T09:25:36Z</time>
      </trkpt>
      <trkpt lat="45.50015" lon="6.61473">
        <ele>1963.63</ele>
        <time>2016-01-24T09:25:52Z</time>
      </trkpt>
      <trkpt lat="45.50006" lon="6.61469">
        <ele>1966.51</ele>
        <time>2016-01-24T09:26:10Z</time>
      </trkpt>
      <trkpt lat="45.49997" lon="6.61466">
        <ele>1968.92</ele>
        <time>2016-01-24T09:26:27Z</time>
      </trkpt>
      <trkpt lat="45.49997" lon="6.61474">
        <ele>1970.36</ele>
        <time>2016-01-24T09:26:39Z</time>
      </trkpt>
      <trkpt lat="45.49999" lon="6.61485">
        <ele>1972.28</ele>
        <time>2016-01-24T09:26:54Z</time>
      </trkpt>
      <trkpt lat="45.50002" lon="6.61498">
        <ele>1974.69</ele>
        <time>2016-01-24T09:27:10Z</time>
      </trkpt>
      <trkpt lat="45.50004" lon="6.61511">
        <ele>1977.57</ele>
        <time>2016-01-24T09:27:27Z</time>
      </trkpt>
      <trkpt lat="45.49999" lon="6.61513">
        <ele>1978.05</ele>
        <time>2016-01-24T09:27:36Z</time>
      </trkpt>
      <trkpt lat="45.49989" lon="6.61504">
        <ele>1978.05</ele>
        <time>2016-01-24T09:27:51Z</time>
      </trkpt>
      <trkpt lat="45.49987" lon="6.61502">
        <ele>1978.05</ele>
        <time>2016-01-24T09:27:54Z</time>
      </trkpt>
      <trkpt lat="45.49977" lon="6.6149">
        <ele>1976.61</ele>
        <time>2016-01-24T09:28:08Z</time>
      </trkpt>
      <trkpt lat="45.49966" lon="6.61481">
        <ele>1975.65</ele>
        <time>2016-01-24T09:28:21Z</time>
      </trkpt>
      <trkpt lat="45.49961" lon="6.6148">
        <ele>1976.13</ele>
        <time>2016-01-24T09:28:27Z</time>
      </trkpt>
      <trkpt lat="45.49958" lon="6.61483">
        <ele>1976.13</ele>
        <time>2016-01-24T09:28:40Z</time>
      </trkpt>
      <trkpt lat="45.49958" lon="6.6148">
        <ele>1976.13</ele>
        <time>2016-01-24T09:29:05Z</time>
      </trkpt>
      <trkpt lat="45.49949" lon="6.61485">
        <ele>1975.17</ele>
        <time>2016-01-24T09:29:19Z</time>
      </trkpt>
      <trkpt lat="45.49936" lon="6.61493">
        <ele>1973.24</ele>
        <time>2016-01-24T09:29:32Z</time>
      </trkpt>
      <trkpt lat="45.49915" lon="6.61493">
        <ele>1970.36</ele>
        <time>2016-01-24T09:29:46Z</time>
      </trkpt>
      <trkpt lat="45.49911" lon="6.61493">
        <ele>1970.36</ele>
        <time>2016-01-24T09:29:58Z</time>
      </trkpt>
      <trkpt lat="45.49896" lon="6.6149">
        <ele>1968.92</ele>
        <time>2016-01-24T09:30:13Z</time>
      </trkpt>
      <trkpt lat="45.49879" lon="6.61486">
        <ele>1966.51</ele>
        <time>2016-01-24T09:30:25Z</time>
      </trkpt>
      <trkpt lat="45.49863" lon="6.61482">
        <ele>1964.59</ele>
        <time>2016-01-24T09:30:37Z</time>
      </trkpt>
      <trkpt lat="45.49844" lon="6.61478">
        <ele>1961.23</ele>
        <time>2016-01-24T09:30:50Z</time>
      </trkpt>
      <trkpt lat="45.49824" lon="6.61469">
        <ele>1958.82</ele>
        <time>2016-01-24T09:31:04Z</time>
      </trkpt>
      <trkpt lat="45.49798" lon="6.61467">
        <ele>1957.38</ele>
        <time>2016-01-24T09:31:24Z</time>
      </trkpt>
      <trkpt lat="45.49792" lon="6.61465">
        <ele>1956.42</ele>
        <time>2016-01-24T09:31:31Z</time>
      </trkpt>
      <trkpt lat="45.49775" lon="6.61454">
        <ele>1953.54</ele>
        <time>2016-01-24T09:31:46Z</time>
      </trkpt>
      <trkpt lat="45.4976" lon="6.61436">
        <ele>1952.09</ele>
        <time>2016-01-24T09:32:03Z</time>
      </trkpt>
      <trkpt lat="45.49746" lon="6.61412">
        <ele>1950.17</ele>
        <time>2016-01-24T09:32:23Z</time>
      </trkpt>
      <trkpt lat="45.49744" lon="6.61409">
        <ele>1950.17</ele>
        <time>2016-01-24T09:32:26Z</time>
      </trkpt>
      <trkpt lat="45.49731" lon="6.61393">
        <ele>1947.77</ele>
        <time>2016-01-24T09:32:41Z</time>
      </trkpt>
      <trkpt lat="45.49717" lon="6.61375">
        <ele>1946.33</ele>
        <time>2016-01-24T09:32:58Z</time>
      </trkpt>
      <trkpt lat="45.49709" lon="6.61366">
        <ele>1945.85</ele>
        <time>2016-01-24T09:33:13Z</time>
      </trkpt>
      <trkpt lat="45.49702" lon="6.61357">
        <ele>1947.77</ele>
        <time>2016-01-24T09:33:27Z</time>
      </trkpt>
      <trkpt lat="45.49692" lon="6.61349">
        <ele>1948.73</ele>
        <time>2016-01-24T09:33:44Z</time>
      </trkpt>
      <trkpt lat="45.49683" lon="6.61341">
        <ele>1950.17</ele>
        <time>2016-01-24T09:34:01Z</time>
      </trkpt>
      <trkpt lat="45.49674" lon="6.61333">
        <ele>1951.13</ele>
        <time>2016-01-24T09:34:18Z</time>
      </trkpt>
      <trkpt lat="45.49661" lon="6.61326">
        <ele>1952.57</ele>
        <time>2016-01-24T09:34:37Z</time>
      </trkpt>
      <trkpt lat="45.49651" lon="6.6132">
        <ele>1954.02</ele>
        <time>2016-01-24T09:34:54Z</time>
      </trkpt>
      <trkpt lat="45.49637" lon="6.61314">
        <ele>1954.98</ele>
        <time>2016-01-24T09:35:13Z</time>
      </trkpt>
      <trkpt lat="45.49625" lon="6.61311">
        <ele>1955.94</ele>
        <time>2016-01-24T09:35:29Z</time>
      </trkpt>
      <trkpt lat="45.49613" lon="6.61311">
        <ele>1956.9</ele>
        <time>2016-01-24T09:35:45Z</time>
      </trkpt>
      <trkpt lat="45.496" lon="6.61312">
        <ele>1958.34</ele>
        <time>2016-01-24T09:36:03Z</time>
      </trkpt>
      <trkpt lat="45.49592" lon="6.61311">
        <ele>1959.3</ele>
        <time>2016-01-24T09:36:18Z</time>
      </trkpt>
      <trkpt lat="45.4958" lon="6.61306">
        <ele>1960.75</ele>
        <time>2016-01-24T09:36:37Z</time>
      </trkpt>
      <trkpt lat="45.4957" lon="6.613">
        <ele>1962.67</ele>
        <time>2016-01-24T09:36:55Z</time>
      </trkpt>
      <trkpt lat="45.49556" lon="6.61294">
        <ele>1964.11</ele>
        <time>2016-01-24T09:37:14Z</time>
      </trkpt>
      <trkpt lat="45.49545" lon="6.61292">
        <ele>1965.55</ele>
        <time>2016-01-24T09:37:32Z</time>
      </trkpt>
      <trkpt lat="45.49538" lon="6.61289">
        <ele>1966.51</ele>
        <time>2016-01-24T09:37:45Z</time>
      </trkpt>
      <trkpt lat="45.49535" lon="6.61289">
        <ele>1966.51</ele>
        <time>2016-01-24T09:37:47Z</time>
      </trkpt>
      <trkpt lat="45.49526" lon="6.61286">
        <ele>1967.96</ele>
        <time>2016-01-24T09:38:04Z</time>
      </trkpt>
      <trkpt lat="45.49522" lon="6.61277">
        <ele>1968.92</ele>
        <time>2016-01-24T09:38:20Z</time>
      </trkpt>
      <trkpt lat="45.49516" lon="6.61266">
        <ele>1969.88</ele>
        <time>2016-01-24T09:38:34Z</time>
      </trkpt>
      <trkpt lat="45.49511" lon="6.61252">
        <ele>1971.8</ele>
        <time>2016-01-24T09:38:51Z</time>
      </trkpt>
      <trkpt lat="45.49501" lon="6.61244">
        <ele>1972.76</ele>
        <time>2016-01-24T09:39:06Z</time>
      </trkpt>
      <trkpt lat="45.4949" lon="6.61238">
        <ele>1974.69</ele>
        <time>2016-01-24T09:39:21Z</time>
      </trkpt>
      <trkpt lat="45.4948" lon="6.61236">
        <ele>1975.17</ele>
        <time>2016-01-24T09:39:35Z</time>
      </trkpt>
      <trkpt lat="45.49467" lon="6.61234">
        <ele>1977.09</ele>
        <time>2016-01-24T09:39:53Z</time>
      </trkpt>
      <trkpt lat="45.49464" lon="6.61233">
        <ele>1977.09</ele>
        <time>2016-01-24T09:39:56Z</time>
      </trkpt>
      <trkpt lat="45.49452" lon="6.6123">
        <ele>1978.05</ele>
        <time>2016-01-24T09:40:12Z</time>
      </trkpt>
      <trkpt lat="45.49441" lon="6.61227">
        <ele>1979.97</ele>
        <time>2016-01-24T09:40:27Z</time>
      </trkpt>
      <trkpt lat="45.49437" lon="6.61226">
        <ele>1980.45</ele>
        <time>2016-01-24T09:40:36Z</time>
      </trkpt>
      <trkpt lat="45.4943" lon="6.61209">
        <ele>1980.93</ele>
        <time>2016-01-24T09:40:55Z</time>
      </trkpt>
      <trkpt lat="45.49424" lon="6.61191">
        <ele>1981.9</ele>
        <time>2016-01-24T09:41:13Z</time>
      </trkpt>
      <trkpt lat="45.49416" lon="6.61177">
        <ele>1982.38</ele>
        <time>2016-01-24T09:41:30Z</time>
      </trkpt>
      <trkpt lat="45.49406" lon="6.61161">
        <ele>1983.34</ele>
        <time>2016-01-24T09:41:49Z</time>
      </trkpt>
      <trkpt lat="45.49395" lon="6.61154">
        <ele>1984.3</ele>
        <time>2016-01-24T09:42:06Z</time>
      </trkpt>
      <trkpt lat="45.49382" lon="6.61152">
        <ele>1985.74</ele>
        <time>2016-01-24T09:42:23Z</time>
      </trkpt>
      <trkpt lat="45.4937" lon="6.6115">
        <ele>1986.7</ele>
        <time>2016-01-24T09:42:41Z</time>
      </trkpt>
      <trkpt lat="45.49358" lon="6.6115">
        <ele>1988.14</ele>
        <time>2016-01-24T09:42:58Z</time>
      </trkpt>
      <trkpt lat="45.49347" lon="6.6115">
        <ele>1989.1</ele>
        <time>2016-01-24T09:43:13Z</time>
      </trkpt>
      <trkpt lat="45.49335" lon="6.61147">
        <ele>1990.07</ele>
        <time>2016-01-24T09:43:30Z</time>
      </trkpt>
      <trkpt lat="45.49328" lon="6.61145">
        <ele>1991.03</ele>
        <time>2016-01-24T09:43:46Z</time>
      </trkpt>
      <trkpt lat="45.49321" lon="6.61143">
        <ele>1992.95</ele>
        <time>2016-01-24T09:44:00Z</time>
      </trkpt>
      <trkpt lat="45.49313" lon="6.61141">
        <ele>1993.43</ele>
        <time>2016-01-24T09:44:14Z</time>
      </trkpt>
      <trkpt lat="45.49305" lon="6.61129">
        <ele>1995.35</ele>
        <time>2016-01-24T09:44:34Z</time>
      </trkpt>
      <trkpt lat="45.49294" lon="6.61114">
        <ele>1996.32</ele>
        <time>2016-01-24T09:44:54Z</time>
      </trkpt>
      <trkpt lat="45.49287" lon="6.61104">
        <ele>1997.28</ele>
        <time>2016-01-24T09:45:07Z</time>
      </trkpt>
      <trkpt lat="45.49278" lon="6.61087">
        <ele>1998.72</ele>
        <time>2016-01-24T09:45:25Z</time>
      </trkpt>
      <trkpt lat="45.49264" lon="6.61071">
        <ele>1999.68</ele>
        <time>2016-01-24T09:45:46Z</time>
      </trkpt>
      <trkpt lat="45.49251" lon="6.61056">
        <ele>2000.64</ele>
        <time>2016-01-24T09:46:06Z</time>
      </trkpt>
      <trkpt lat="45.49239" lon="6.61041">
        <ele>2002.08</ele>
        <time>2016-01-24T09:46:27Z</time>
      </trkpt>
      <trkpt lat="45.49227" lon="6.61027">
        <ele>2003.52</ele>
        <time>2016-01-24T09:46:46Z</time>
      </trkpt>
      <trkpt lat="45.49218" lon="6.61016">
        <ele>2004.49</ele>
        <time>2016-01-24T09:47:01Z</time>
      </trkpt>
      <trkpt lat="45.49205" lon="6.61001">
        <ele>2005.45</ele>
        <time>2016-01-24T09:47:22Z</time>
      </trkpt>
      <trkpt lat="45.49194" lon="6.60985">
        <ele>2006.89</ele>
        <time>2016-01-24T09:47:41Z</time>
      </trkpt>
      <trkpt lat="45.49184" lon="6.60969">
        <ele>2008.81</ele>
        <time>2016-01-24T09:48:02Z</time>
      </trkpt>
      <trkpt lat="45.49178" lon="6.60959">
        <ele>2009.29</ele>
        <time>2016-01-24T09:48:17Z</time>
      </trkpt>
      <trkpt lat="45.49169" lon="6.60949">
        <ele>2010.25</ele>
        <time>2016-01-24T09:48:35Z</time>
      </trkpt>
      <trkpt lat="45.49162" lon="6.60943">
        <ele>2011.22</ele>
        <time>2016-01-24T09:48:59Z</time>
      </trkpt>
      <trkpt lat="45.49156" lon="6.60923">
        <ele>2012.18</ele>
        <time>2016-01-24T09:49:17Z</time>
      </trkpt>
      <trkpt lat="45.49159" lon="6.60904">
        <ele>2014.1</ele>
        <time>2016-01-24T09:49:35Z</time>
      </trkpt>
      <trkpt lat="45.49155" lon="6.60885">
        <ele>2017.46</ele>
        <time>2016-01-24T09:49:55Z</time>
      </trkpt>
      <trkpt lat="45.49149" lon="6.60874">
        <ele>2020.35</ele>
        <time>2016-01-24T09:50:14Z</time>
      </trkpt>
      <trkpt lat="45.49141" lon="6.6086">
        <ele>2023.23</ele>
        <time>2016-01-24T09:50:33Z</time>
      </trkpt>
      <trkpt lat="45.49134" lon="6.60849">
        <ele>2026.6</ele>
        <time>2016-01-24T09:50:51Z</time>
      </trkpt>
      <trkpt lat="45.49132" lon="6.60845">
        <ele>2027.08</ele>
        <time>2016-01-24T09:51:05Z</time>
      </trkpt>
      <trkpt lat="45.49131" lon="6.60842">
        <ele>2028.04</ele>
        <time>2016-01-24T09:51:18Z</time>
      </trkpt>
      <trkpt lat="45.49129" lon="6.6084">
        <ele>2028.52</ele>
        <time>2016-01-24T09:51:35Z</time>
      </trkpt>
      <trkpt lat="45.49122" lon="6.60829">
        <ele>2031.4</ele>
        <time>2016-01-24T09:51:52Z</time>
      </trkpt>
      <trkpt lat="45.49113" lon="6.60816">
        <ele>2034.77</ele>
        <time>2016-01-24T09:52:10Z</time>
      </trkpt>
      <trkpt lat="45.49103" lon="6.60802">
        <ele>2037.65</ele>
        <time>2016-01-24T09:52:30Z</time>
      </trkpt>
      <trkpt lat="45.49096" lon="6.60788">
        <ele>2040.54</ele>
        <time>2016-01-24T09:52:47Z</time>
      </trkpt>
      <trkpt lat="45.49089" lon="6.60775">
        <ele>2043.42</ele>
        <time>2016-01-24T09:53:04Z</time>
      </trkpt>
      <trkpt lat="45.49086" lon="6.60761">
        <ele>2044.38</ele>
        <time>2016-01-24T09:53:22Z</time>
      </trkpt>
      <trkpt lat="45.49085" lon="6.60762">
        <ele>2044.86</ele>
        <time>2016-01-24T09:53:36Z</time>
      </trkpt>
      <trkpt lat="45.49085" lon="6.60763">
        <ele>2044.86</ele>
        <time>2016-01-24T09:53:51Z</time>
      </trkpt>
      <trkpt lat="45.49086" lon="6.60764">
        <ele>2044.86</ele>
        <time>2016-01-24T09:54:14Z</time>
      </trkpt>
      <trkpt lat="45.49085" lon="6.60762">
        <ele>2044.86</ele>
        <time>2016-01-24T09:54:36Z</time>
      </trkpt>
      <trkpt lat="45.49086" lon="6.60764">
        <ele>2044.86</ele>
        <time>2016-01-24T09:54:51Z</time>
      </trkpt>
      <trkpt lat="45.49085" lon="6.60764">
        <ele>2044.86</ele>
        <time>2016-01-24T09:55:12Z</time>
      </trkpt>
      <trkpt lat="45.49085" lon="6.60763">
        <ele>2044.86</ele>
        <time>2016-01-24T09:55:26Z</time>
      </trkpt>
      <trkpt lat="45.49086" lon="6.60764">
        <ele>2045.34</ele>
        <time>2016-01-24T09:55:47Z</time>
      </trkpt>
      <trkpt lat="45.49085" lon="6.60759">
        <ele>2045.34</ele>
        <time>2016-01-24T09:56:02Z</time>
      </trkpt>
      <trkpt lat="45.49085" lon="6.60758">
        <ele>2045.34</ele>
        <time>2016-01-24T09:56:08Z</time>
      </trkpt>
      <trkpt lat="45.49084" lon="6.60756">
        <ele>2045.34</ele>
        <time>2016-01-24T09:56:23Z</time>
      </trkpt>
      <trkpt lat="45.49084" lon="6.60757">
        <ele>2045.34</ele>
        <time>2016-01-24T09:56:52Z</time>
      </trkpt>
      <trkpt lat="45.49084" lon="6.60755">
        <ele>2045.34</ele>
        <time>2016-01-24T09:56:54Z</time>
      </trkpt>
      <trkpt lat="45.49082" lon="6.60742">
        <ele>2043.42</ele>
        <time>2016-01-24T09:57:07Z</time>
      </trkpt>
      <trkpt lat="45.49081" lon="6.6074">
        <ele>2043.42</ele>
        <time>2016-01-24T09:57:37Z</time>
      </trkpt>
      <trkpt lat="45.49082" lon="6.60741">
        <ele>2043.42</ele>
        <time>2016-01-24T09:58:25Z</time>
      </trkpt>
      <trkpt lat="45.49083" lon="6.60744">
        <ele>2043.42</ele>
        <time>2016-01-24T09:58:40Z</time>
      </trkpt>
      <trkpt lat="45.49081" lon="6.60744">
        <ele>2043.42</ele>
        <time>2016-01-24T09:58:48Z</time>
      </trkpt>
      <trkpt lat="45.49081" lon="6.60746">
        <ele>2043.42</ele>
        <time>2016-01-24T09:58:50Z</time>
      </trkpt>
      <trkpt lat="45.49084" lon="6.60754">
        <ele>2045.34</ele>
        <time>2016-01-24T09:59:06Z</time>
      </trkpt>
      <trkpt lat="45.49083" lon="6.60755">
        <ele>2045.34</ele>
        <time>2016-01-24T09:59:28Z</time>
      </trkpt>
      <trkpt lat="45.49084" lon="6.60756">
        <ele>2045.34</ele>
        <time>2016-01-24T09:59:49Z</time>
      </trkpt>
      <trkpt lat="45.49084" lon="6.60756">
        <ele>2045.34</ele>
        <time>2016-01-24T10:00:06Z</time>
      </trkpt>
      <trkpt lat="45.49085" lon="6.60757">
        <ele>2045.34</ele>
        <time>2016-01-24T10:00:23Z</time>
      </trkpt>
      <trkpt lat="45.49084" lon="6.60756">
        <ele>2045.34</ele>
        <time>2016-01-24T10:00:44Z</time>
      </trkpt>
      <trkpt lat="45.49085" lon="6.60753">
        <ele>2045.34</ele>
        <time>2016-01-24T10:01:13Z</time>
      </trkpt>
      <trkpt lat="45.49084" lon="6.60754">
        <ele>2045.34</ele>
        <time>2016-01-24T10:01:30Z</time>
      </trkpt>
      <trkpt lat="45.49084" lon="6.60755">
        <ele>2045.34</ele>
        <time>2016-01-24T10:01:40Z</time>
      </trkpt>
      <trkpt lat="45.49084" lon="6.60756">
        <ele>2045.34</ele>
        <time>2016-01-24T10:01:58Z</time>
      </trkpt>
      <trkpt lat="45.49083" lon="6.60756">
        <ele>2045.34</ele>
        <time>2016-01-24T10:02:09Z</time>
      </trkpt>
      <trkpt lat="45.49084" lon="6.60756">
        <ele>2045.34</ele>
        <time>2016-01-24T10:02:26Z</time>
      </trkpt>
      <trkpt lat="45.49085" lon="6.60758">
        <ele>2045.34</ele>
        <time>2016-01-24T10:02:52Z</time>
      </trkpt>
      <trkpt lat="45.49084" lon="6.60757">
        <ele>2045.82</ele>
        <time>2016-01-24T10:03:16Z</time>
      </trkpt>
      <trkpt lat="45.49084" lon="6.60756">
        <ele>2045.82</ele>
        <time>2016-01-24T10:03:31Z</time>
      </trkpt>
      <trkpt lat="45.49084" lon="6.60755">
        <ele>2045.82</ele>
        <time>2016-01-24T10:03:44Z</time>
      </trkpt>
      <trkpt lat="45.49085" lon="6.60754">
        <ele>2045.82</ele>
        <time>2016-01-24T10:04:07Z</time>
      </trkpt>
      <trkpt lat="45.49084" lon="6.60756">
        <ele>2045.82</ele>
        <time>2016-01-24T10:04:24Z</time>
      </trkpt>
      <trkpt lat="45.49084" lon="6.60756">
        <ele>2045.82</ele>
        <time>2016-01-24T10:04:37Z</time>
      </trkpt>
      <trkpt lat="45.49085" lon="6.60755">
        <ele>2045.82</ele>
        <time>2016-01-24T10:04:56Z</time>
      </trkpt>
      <trkpt lat="45.49085" lon="6.60755">
        <ele>2045.82</ele>
        <time>2016-01-24T10:05:17Z</time>
      </trkpt>
      <trkpt lat="45.49085" lon="6.60756">
        <ele>2045.82</ele>
        <time>2016-01-24T10:05:43Z</time>
      </trkpt>
      <trkpt lat="45.49083" lon="6.60759">
        <ele>2045.82</ele>
        <time>2016-01-24T10:06:06Z</time>
      </trkpt>
      <trkpt lat="45.49085" lon="6.60756">
        <ele>2045.82</ele>
        <time>2016-01-24T10:06:24Z</time>
      </trkpt>
      <trkpt lat="45.49084" lon="6.60754">
        <ele>2045.82</ele>
        <time>2016-01-24T10:06:49Z</time>
      </trkpt>
      <trkpt lat="45.49084" lon="6.60755">
        <ele>2045.82</ele>
        <time>2016-01-24T10:07:06Z</time>
      </trkpt>
      <trkpt lat="45.49083" lon="6.60757">
        <ele>2045.82</ele>
        <time>2016-01-24T10:07:34Z</time>
      </trkpt>
      <trkpt lat="45.49084" lon="6.60753">
        <ele>2045.82</ele>
        <time>2016-01-24T10:07:55Z</time>
      </trkpt>
      <trkpt lat="45.49083" lon="6.60757">
        <ele>2045.82</ele>
        <time>2016-01-24T10:08:13Z</time>
      </trkpt>
      <trkpt lat="45.49073" lon="6.60761">
        <ele>2046.78</ele>
        <time>2016-01-24T10:08:29Z</time>
      </trkpt>
      <trkpt lat="45.4906" lon="6.60766">
        <ele>2049.67</ele>
        <time>2016-01-24T10:08:48Z</time>
      </trkpt>
      <trkpt lat="45.49054" lon="6.60774">
        <ele>2052.07</ele>
        <time>2016-01-24T10:09:02Z</time>
      </trkpt>
      <trkpt lat="45.49049" lon="6.60793">
        <ele>2054.96</ele>
        <time>2016-01-24T10:09:21Z</time>
      </trkpt>
      <trkpt lat="45.49045" lon="6.60801">
        <ele>2056.88</ele>
        <time>2016-01-24T10:09:39Z</time>
      </trkpt>
      <trkpt lat="45.49038" lon="6.60786">
        <ele>2059.76</ele>
        <time>2016-01-24T10:09:58Z</time>
      </trkpt>
      <trkpt lat="45.49032" lon="6.60768">
        <ele>2062.65</ele>
        <time>2016-01-24T10:10:17Z</time>
      </trkpt>
      <trkpt lat="45.49026" lon="6.60756">
        <ele>2065.53</ele>
        <time>2016-01-24T10:10:35Z</time>
      </trkpt>
      <trkpt lat="45.49019" lon="6.60741">
        <ele>2068.89</ele>
        <time>2016-01-24T10:10:53Z</time>
      </trkpt>
      <trkpt lat="45.49012" lon="6.60733">
        <ele>2071.3</ele>
        <time>2016-01-24T10:11:09Z</time>
      </trkpt>
      <trkpt lat="45.49008" lon="6.60731">
        <ele>2072.74</ele>
        <time>2016-01-24T10:11:14Z</time>
      </trkpt>
      <trkpt lat="45.48997" lon="6.60728">
        <ele>2076.1</ele>
        <time>2016-01-24T10:11:33Z</time>
      </trkpt>
      <trkpt lat="45.48984" lon="6.60728">
        <ele>2078.99</ele>
        <time>2016-01-24T10:11:52Z</time>
      </trkpt>
      <trkpt lat="45.48973" lon="6.6073">
        <ele>2081.87</ele>
        <time>2016-01-24T10:12:12Z</time>
      </trkpt>
      <trkpt lat="45.48962" lon="6.60734">
        <ele>2084.76</ele>
        <time>2016-01-24T10:12:31Z</time>
      </trkpt>
      <trkpt lat="45.48953" lon="6.60739">
        <ele>2088.12</ele>
        <time>2016-01-24T10:12:49Z</time>
      </trkpt>
      <trkpt lat="45.48944" lon="6.60747">
        <ele>2089.56</ele>
        <time>2016-01-24T10:13:08Z</time>
      </trkpt>
      <trkpt lat="45.48941" lon="6.60751">
        <ele>2091</ele>
        <time>2016-01-24T10:13:17Z</time>
      </trkpt>
      <trkpt lat="45.48937" lon="6.60755">
        <ele>2092.93</ele>
        <time>2016-01-24T10:13:21Z</time>
      </trkpt>
      <trkpt lat="45.48932" lon="6.60761">
        <ele>2094.85</ele>
        <time>2016-01-24T10:13:26Z</time>
      </trkpt>
      <trkpt lat="45.48925" lon="6.60772">
        <ele>2096.77</ele>
        <time>2016-01-24T10:13:41Z</time>
      </trkpt>
      <trkpt lat="45.48922" lon="6.60777">
        <ele>2098.7</ele>
        <time>2016-01-24T10:13:58Z</time>
      </trkpt>
      <trkpt lat="45.48918" lon="6.60784">
        <ele>2099.66</ele>
        <time>2016-01-24T10:14:12Z</time>
      </trkpt>
      <trkpt lat="45.48914" lon="6.60792">
        <ele>2102.06</ele>
        <time>2016-01-24T10:14:27Z</time>
      </trkpt>
      <trkpt lat="45.48908" lon="6.60805">
        <ele>2105.42</ele>
        <time>2016-01-24T10:14:44Z</time>
      </trkpt>
      <trkpt lat="45.48899" lon="6.60812">
        <ele>2107.83</ele>
        <time>2016-01-24T10:15:02Z</time>
      </trkpt>
      <trkpt lat="45.48892" lon="6.60823">
        <ele>2111.19</ele>
        <time>2016-01-24T10:15:20Z</time>
      </trkpt>
      <trkpt lat="45.48884" lon="6.60841">
        <ele>2113.6</ele>
        <time>2016-01-24T10:15:42Z</time>
      </trkpt>
      <trkpt lat="45.48879" lon="6.60855">
        <ele>2115.52</ele>
        <time>2016-01-24T10:15:59Z</time>
      </trkpt>
      <trkpt lat="45.48872" lon="6.60873">
        <ele>2117.92</ele>
        <time>2016-01-24T10:16:20Z</time>
      </trkpt>
      <trkpt lat="45.48865" lon="6.60892">
        <ele>2120.81</ele>
        <time>2016-01-24T10:16:38Z</time>
      </trkpt>
      <trkpt lat="45.48861" lon="6.60913">
        <ele>2120.81</ele>
        <time>2016-01-24T10:16:54Z</time>
      </trkpt>
      <trkpt lat="45.48852" lon="6.60924">
        <ele>2122.73</ele>
        <time>2016-01-24T10:17:12Z</time>
      </trkpt>
      <trkpt lat="45.48849" lon="6.60936">
        <ele>2125.13</ele>
        <time>2016-01-24T10:17:24Z</time>
      </trkpt>
      <trkpt lat="45.48848" lon="6.60958">
        <ele>2126.09</ele>
        <time>2016-01-24T10:17:40Z</time>
      </trkpt>
      <trkpt lat="45.48843" lon="6.6098">
        <ele>2128.02</ele>
        <time>2016-01-24T10:18:00Z</time>
      </trkpt>
      <trkpt lat="45.48835" lon="6.60995">
        <ele>2130.42</ele>
        <time>2016-01-24T10:18:19Z</time>
      </trkpt>
      <trkpt lat="45.48826" lon="6.61001">
        <ele>2131.86</ele>
        <time>2016-01-24T10:18:35Z</time>
      </trkpt>
      <trkpt lat="45.48818" lon="6.61004">
        <ele>2134.26</ele>
        <time>2016-01-24T10:18:50Z</time>
      </trkpt>
      <trkpt lat="45.48807" lon="6.61005">
        <ele>2135.71</ele>
        <time>2016-01-24T10:19:08Z</time>
      </trkpt>
      <trkpt lat="45.48797" lon="6.61008">
        <ele>2138.59</ele>
        <time>2016-01-24T10:19:27Z</time>
      </trkpt>
      <trkpt lat="45.48788" lon="6.61011">
        <ele>2140.99</ele>
        <time>2016-01-24T10:19:43Z</time>
      </trkpt>
      <trkpt lat="45.48776" lon="6.61014">
        <ele>2143.88</ele>
        <time>2016-01-24T10:20:03Z</time>
      </trkpt>
      <trkpt lat="45.48767" lon="6.61019">
        <ele>2145.8</ele>
        <time>2016-01-24T10:20:20Z</time>
      </trkpt>
      <trkpt lat="45.48757" lon="6.61021">
        <ele>2147.72</ele>
        <time>2016-01-24T10:20:36Z</time>
      </trkpt>
      <trkpt lat="45.48746" lon="6.61024">
        <ele>2151.09</ele>
        <time>2016-01-24T10:20:55Z</time>
      </trkpt>
      <trkpt lat="45.48739" lon="6.6103">
        <ele>2153.49</ele>
        <time>2016-01-24T10:21:11Z</time>
      </trkpt>
      <trkpt lat="45.48729" lon="6.61036">
        <ele>2156.37</ele>
        <time>2016-01-24T10:21:29Z</time>
      </trkpt>
      <trkpt lat="45.4872" lon="6.61043">
        <ele>2159.74</ele>
        <time>2016-01-24T10:21:46Z</time>
      </trkpt>
      <trkpt lat="45.48712" lon="6.61052">
        <ele>2161.66</ele>
        <time>2016-01-24T10:22:04Z</time>
      </trkpt>
      <trkpt lat="45.48706" lon="6.61059">
        <ele>2163.1</ele>
        <time>2016-01-24T10:22:21Z</time>
      </trkpt>
      <trkpt lat="45.48702" lon="6.61066">
        <ele>2164.55</ele>
        <time>2016-01-24T10:22:37Z</time>
      </trkpt>
      <trkpt lat="45.48692" lon="6.6108">
        <ele>2166.47</ele>
        <time>2016-01-24T10:22:57Z</time>
      </trkpt>
      <trkpt lat="45.48681" lon="6.61092">
        <ele>2168.39</ele>
        <time>2016-01-24T10:23:14Z</time>
      </trkpt>
      <trkpt lat="45.48671" lon="6.61106">
        <ele>2171.27</ele>
        <time>2016-01-24T10:23:32Z</time>
      </trkpt>
      <trkpt lat="45.48664" lon="6.61122">
        <ele>2174.16</ele>
        <time>2016-01-24T10:23:51Z</time>
      </trkpt>
      <trkpt lat="45.48662" lon="6.61137">
        <ele>2176.08</ele>
        <time>2016-01-24T10:24:06Z</time>
      </trkpt>
      <trkpt lat="45.48661" lon="6.61154">
        <ele>2178</ele>
        <time>2016-01-24T10:24:23Z</time>
      </trkpt>
      <trkpt lat="45.48657" lon="6.61177">
        <ele>2179.45</ele>
        <time>2016-01-24T10:24:41Z</time>
      </trkpt>
      <trkpt lat="45.48655" lon="6.61199">
        <ele>2181.37</ele>
        <time>2016-01-24T10:25:01Z</time>
      </trkpt>
      <trkpt lat="45.48651" lon="6.61208">
        <ele>2182.81</ele>
        <time>2016-01-24T10:25:15Z</time>
      </trkpt>
      <trkpt lat="45.48646" lon="6.61224">
        <ele>2185.21</ele>
        <time>2016-01-24T10:25:31Z</time>
      </trkpt>
      <trkpt lat="45.48643" lon="6.61229">
        <ele>2186.66</ele>
        <time>2016-01-24T10:25:46Z</time>
      </trkpt>
      <trkpt lat="45.48642" lon="6.61228">
        <ele>2186.66</ele>
        <time>2016-01-24T10:26:04Z</time>
      </trkpt>
      <trkpt lat="45.48642" lon="6.6123">
        <ele>2186.66</ele>
        <time>2016-01-24T10:26:23Z</time>
      </trkpt>
      <trkpt lat="45.48642" lon="6.61231">
        <ele>2187.14</ele>
        <time>2016-01-24T10:26:35Z</time>
      </trkpt>
      <trkpt lat="45.48636" lon="6.61247">
        <ele>2188.58</ele>
        <time>2016-01-24T10:26:52Z</time>
      </trkpt>
      <trkpt lat="45.48627" lon="6.61266">
        <ele>2189.06</ele>
        <time>2016-01-24T10:27:08Z</time>
      </trkpt>
      <trkpt lat="45.4862" lon="6.61288">
        <ele>2190.02</ele>
        <time>2016-01-24T10:27:29Z</time>
      </trkpt>
      <trkpt lat="45.48616" lon="6.61296">
        <ele>2190.98</ele>
        <time>2016-01-24T10:27:37Z</time>
      </trkpt>
      <trkpt lat="45.48608" lon="6.61311">
        <ele>2193.87</ele>
        <time>2016-01-24T10:27:58Z</time>
      </trkpt>
      <trkpt lat="45.48599" lon="6.61324">
        <ele>2195.31</ele>
        <time>2016-01-24T10:28:15Z</time>
      </trkpt>
      <trkpt lat="45.48586" lon="6.61339">
        <ele>2197.23</ele>
        <time>2016-01-24T10:28:37Z</time>
      </trkpt>
      <trkpt lat="45.48576" lon="6.61352">
        <ele>2199.63</ele>
        <time>2016-01-24T10:28:56Z</time>
      </trkpt>
      <trkpt lat="45.48571" lon="6.61365">
        <ele>2202.04</ele>
        <time>2016-01-24T10:29:12Z</time>
      </trkpt>
      <trkpt lat="45.48569" lon="6.61375">
        <ele>2203.96</ele>
        <time>2016-01-24T10:29:27Z</time>
      </trkpt>
      <trkpt lat="45.48565" lon="6.61384">
        <ele>2205.88</ele>
        <time>2016-01-24T10:29:42Z</time>
      </trkpt>
      <trkpt lat="45.4856" lon="6.61394">
        <ele>2208.29</ele>
        <time>2016-01-24T10:29:59Z</time>
      </trkpt>
      <trkpt lat="45.48553" lon="6.61403">
        <ele>2210.21</ele>
        <time>2016-01-24T10:30:15Z</time>
      </trkpt>
      <trkpt lat="45.48546" lon="6.61417">
        <ele>2212.13</ele>
        <time>2016-01-24T10:30:34Z</time>
      </trkpt>
      <trkpt lat="45.4854" lon="6.61428">
        <ele>2214.53</ele>
        <time>2016-01-24T10:30:51Z</time>
      </trkpt>
      <trkpt lat="45.48534" lon="6.61438">
        <ele>2216.94</ele>
        <time>2016-01-24T10:31:08Z</time>
      </trkpt>
      <trkpt lat="45.48528" lon="6.61446">
        <ele>2219.34</ele>
        <time>2016-01-24T10:31:24Z</time>
      </trkpt>
      <trkpt lat="45.48521" lon="6.61454">
        <ele>2222.22</ele>
        <time>2016-01-24T10:31:41Z</time>
      </trkpt>
      <trkpt lat="45.48514" lon="6.61459">
        <ele>2224.15</ele>
        <time>2016-01-24T10:31:57Z</time>
      </trkpt>
      <trkpt lat="45.48508" lon="6.61467">
        <ele>2226.55</ele>
        <time>2016-01-24T10:32:12Z</time>
      </trkpt>
      <trkpt lat="45.48501" lon="6.61478">
        <ele>2229.43</ele>
        <time>2016-01-24T10:32:30Z</time>
      </trkpt>
      <trkpt lat="45.48495" lon="6.61491">
        <ele>2231.36</ele>
        <time>2016-01-24T10:32:48Z</time>
      </trkpt>
      <trkpt lat="45.48489" lon="6.61501">
        <ele>2233.28</ele>
        <time>2016-01-24T10:33:05Z</time>
      </trkpt>
      <trkpt lat="45.48485" lon="6.61509">
        <ele>2235.68</ele>
        <time>2016-01-24T10:33:20Z</time>
      </trkpt>
      <trkpt lat="45.48481" lon="6.6152">
        <ele>2238.09</ele>
        <time>2016-01-24T10:33:35Z</time>
      </trkpt>
      <trkpt lat="45.48481" lon="6.61526">
        <ele>2240.01</ele>
        <time>2016-01-24T10:33:48Z</time>
      </trkpt>
      <trkpt lat="45.48486" lon="6.61535">
        <ele>2242.41</ele>
        <time>2016-01-24T10:34:04Z</time>
      </trkpt>
      <trkpt lat="45.48492" lon="6.61543">
        <ele>2244.33</ele>
        <time>2016-01-24T10:34:20Z</time>
      </trkpt>
      <trkpt lat="45.48498" lon="6.61552">
        <ele>2246.74</ele>
        <time>2016-01-24T10:34:37Z</time>
      </trkpt>
      <trkpt lat="45.48505" lon="6.61563">
        <ele>2249.62</ele>
        <time>2016-01-24T10:34:56Z</time>
      </trkpt>
      <trkpt lat="45.48513" lon="6.6157">
        <ele>2252.51</ele>
        <time>2016-01-24T10:35:14Z</time>
      </trkpt>
      <trkpt lat="45.48522" lon="6.61577">
        <ele>2255.39</ele>
        <time>2016-01-24T10:35:32Z</time>
      </trkpt>
      <trkpt lat="45.48523" lon="6.61587">
        <ele>2257.31</ele>
        <time>2016-01-24T10:35:47Z</time>
      </trkpt>
      <trkpt lat="45.48519" lon="6.61601">
        <ele>2259.24</ele>
        <time>2016-01-24T10:36:04Z</time>
      </trkpt>
      <trkpt lat="45.48516" lon="6.61619">
        <ele>2261.16</ele>
        <time>2016-01-24T10:36:22Z</time>
      </trkpt>
      <trkpt lat="45.48512" lon="6.61634">
        <ele>2263.56</ele>
        <time>2016-01-24T10:36:39Z</time>
      </trkpt>
      <trkpt lat="45.48509" lon="6.61641">
        <ele>2264.04</ele>
        <time>2016-01-24T10:36:52Z</time>
      </trkpt>
      <trkpt lat="45.48502" lon="6.61656">
        <ele>2265</ele>
        <time>2016-01-24T10:37:07Z</time>
      </trkpt>
      <trkpt lat="45.48492" lon="6.61676">
        <ele>2267.41</ele>
        <time>2016-01-24T10:37:28Z</time>
      </trkpt>
      <trkpt lat="45.4849" lon="6.61698">
        <ele>2269.33</ele>
        <time>2016-01-24T10:37:48Z</time>
      </trkpt>
      <trkpt lat="45.48488" lon="6.61723">
        <ele>2270.29</ele>
        <time>2016-01-24T10:38:06Z</time>
      </trkpt>
      <trkpt lat="45.48486" lon="6.61735">
        <ele>2270.29</ele>
        <time>2016-01-24T10:38:15Z</time>
      </trkpt>
      <trkpt lat="45.48486" lon="6.61737">
        <ele>2270.29</ele>
        <time>2016-01-24T10:38:17Z</time>
      </trkpt>
      <trkpt lat="45.48482" lon="6.61761">
        <ele>2271.73</ele>
        <time>2016-01-24T10:38:36Z</time>
      </trkpt>
      <trkpt lat="45.48476" lon="6.61783">
        <ele>2272.69</ele>
        <time>2016-01-24T10:38:52Z</time>
      </trkpt>
      <trkpt lat="45.4847" lon="6.61802">
        <ele>2274.62</ele>
        <time>2016-01-24T10:39:10Z</time>
      </trkpt>
      <trkpt lat="45.48464" lon="6.61827">
        <ele>2276.54</ele>
        <time>2016-01-24T10:39:34Z</time>
      </trkpt>
      <trkpt lat="45.48464" lon="6.61842">
        <ele>2277.02</ele>
        <time>2016-01-24T10:39:45Z</time>
      </trkpt>
      <trkpt lat="45.48463" lon="6.61848">
        <ele>2277.02</ele>
        <time>2016-01-24T10:39:57Z</time>
      </trkpt>
      <trkpt lat="45.48461" lon="6.61861">
        <ele>2277.5</ele>
        <time>2016-01-24T10:40:12Z</time>
      </trkpt>
      <trkpt lat="45.4846" lon="6.61878">
        <ele>2277.98</ele>
        <time>2016-01-24T10:40:27Z</time>
      </trkpt>
      <trkpt lat="45.48457" lon="6.61898">
        <ele>2277.98</ele>
        <time>2016-01-24T10:40:40Z</time>
      </trkpt>
      <trkpt lat="45.48455" lon="6.61916">
        <ele>2277.98</ele>
        <time>2016-01-24T10:40:51Z</time>
      </trkpt>
      <trkpt lat="45.48455" lon="6.61934">
        <ele>2279.42</ele>
        <time>2016-01-24T10:41:09Z</time>
      </trkpt>
      <trkpt lat="45.48453" lon="6.61944">
        <ele>2281.83</ele>
        <time>2016-01-24T10:41:24Z</time>
      </trkpt>
      <trkpt lat="45.48451" lon="6.61958">
        <ele>2284.71</ele>
        <time>2016-01-24T10:41:42Z</time>
      </trkpt>
      <trkpt lat="45.48452" lon="6.61972">
        <ele>2287.11</ele>
        <time>2016-01-24T10:41:59Z</time>
      </trkpt>
      <trkpt lat="45.48455" lon="6.61985">
        <ele>2290</ele>
        <time>2016-01-24T10:42:15Z</time>
      </trkpt>
      <trkpt lat="45.48461" lon="6.61987">
        <ele>2291.44</ele>
        <time>2016-01-24T10:42:27Z</time>
      </trkpt>
      <trkpt lat="45.48468" lon="6.61988">
        <ele>2294.32</ele>
        <time>2016-01-24T10:42:42Z</time>
      </trkpt>
      <trkpt lat="45.48474" lon="6.62002">
        <ele>2297.69</ele>
        <time>2016-01-24T10:43:01Z</time>
      </trkpt>
      <trkpt lat="45.48481" lon="6.62016">
        <ele>2300.57</ele>
        <time>2016-01-24T10:43:20Z</time>
      </trkpt>
      <trkpt lat="45.48488" lon="6.62026">
        <ele>2302.98</ele>
        <time>2016-01-24T10:43:37Z</time>
      </trkpt>
      <trkpt lat="45.48495" lon="6.62034">
        <ele>2305.86</ele>
        <time>2016-01-24T10:43:53Z</time>
      </trkpt>
      <trkpt lat="45.48498" lon="6.62031">
        <ele>2306.82</ele>
        <time>2016-01-24T10:44:15Z</time>
      </trkpt>
      <trkpt lat="45.48501" lon="6.62026">
        <ele>2308.26</ele>
        <time>2016-01-24T10:44:30Z</time>
      </trkpt>
      <trkpt lat="45.48501" lon="6.62027">
        <ele>2307.3</ele>
        <time>2016-01-24T10:44:58Z</time>
      </trkpt>
      <trkpt lat="45.48501" lon="6.62027">
        <ele>2308.74</ele>
        <time>2016-01-24T10:45:43Z</time>
      </trkpt>
      <trkpt lat="45.48501" lon="6.62027">
        <ele>2308.74</ele>
        <time>2016-01-24T10:46:06Z</time>
      </trkpt>
      <trkpt lat="45.48504" lon="6.62027">
        <ele>2308.74</ele>
        <time>2016-01-24T10:46:35Z</time>
      </trkpt>
      <trkpt lat="45.48503" lon="6.62027">
        <ele>2308.74</ele>
        <time>2016-01-24T10:46:57Z</time>
      </trkpt>
      <trkpt lat="45.48501" lon="6.62027">
        <ele>2309.22</ele>
        <time>2016-01-24T10:47:23Z</time>
      </trkpt>
      <trkpt lat="45.48501" lon="6.62027">
        <ele>2309.22</ele>
        <time>2016-01-24T10:47:43Z</time>
      </trkpt>
      <trkpt lat="45.48505" lon="6.6203">
        <ele>2310.67</ele>
        <time>2016-01-24T10:47:54Z</time>
      </trkpt>
      <trkpt lat="45.48511" lon="6.62036">
        <ele>2313.55</ele>
        <time>2016-01-24T10:48:10Z</time>
      </trkpt>
      <trkpt lat="45.48519" lon="6.62029">
        <ele>2316.43</ele>
        <time>2016-01-24T10:48:27Z</time>
      </trkpt>
      <trkpt lat="45.48526" lon="6.62017">
        <ele>2319.32</ele>
        <time>2016-01-24T10:48:43Z</time>
      </trkpt>
      <trkpt lat="45.4853" lon="6.62014">
        <ele>2321.72</ele>
        <time>2016-01-24T10:48:58Z</time>
      </trkpt>
      <trkpt lat="45.48537" lon="6.62023">
        <ele>2325.09</ele>
        <time>2016-01-24T10:49:14Z</time>
      </trkpt>
      <trkpt lat="45.48543" lon="6.62016">
        <ele>2327.97</ele>
        <time>2016-01-24T10:49:29Z</time>
      </trkpt>
      <trkpt lat="45.48548" lon="6.62002">
        <ele>2331.33</ele>
        <time>2016-01-24T10:49:44Z</time>
      </trkpt>
      <trkpt lat="45.48556" lon="6.61991">
        <ele>2334.22</ele>
        <time>2016-01-24T10:49:59Z</time>
      </trkpt>
      <trkpt lat="45.48556" lon="6.61994">
        <ele>2335.66</ele>
        <time>2016-01-24T10:50:11Z</time>
      </trkpt>
      <trkpt lat="45.48562" lon="6.62006">
        <ele>2339.02</ele>
        <time>2016-01-24T10:50:27Z</time>
      </trkpt>
      <trkpt lat="45.48565" lon="6.61997">
        <ele>2340.95</ele>
        <time>2016-01-24T10:50:39Z</time>
      </trkpt>
      <trkpt lat="45.48572" lon="6.61987">
        <ele>2343.83</ele>
        <time>2016-01-24T10:50:51Z</time>
      </trkpt>
      <trkpt lat="45.48575" lon="6.61983">
        <ele>2345.75</ele>
        <time>2016-01-24T10:51:04Z</time>
      </trkpt>
      <trkpt lat="45.4858" lon="6.61991">
        <ele>2349.12</ele>
        <time>2016-01-24T10:51:18Z</time>
      </trkpt>
      <trkpt lat="45.48588" lon="6.61984">
        <ele>2352</ele>
        <time>2016-01-24T10:51:30Z</time>
      </trkpt>
      <trkpt lat="45.48594" lon="6.61992">
        <ele>2355.37</ele>
        <time>2016-01-24T10:51:43Z</time>
      </trkpt>
      <trkpt lat="45.48597" lon="6.61981">
        <ele>2357.29</ele>
        <time>2016-01-24T10:51:56Z</time>
      </trkpt>
      <trkpt lat="45.48603" lon="6.61971">
        <ele>2360.65</ele>
        <time>2016-01-24T10:52:07Z</time>
      </trkpt>
      <trkpt lat="45.48608" lon="6.61982">
        <ele>2363.54</ele>
        <time>2016-01-24T10:52:23Z</time>
      </trkpt>
      <trkpt lat="45.48613" lon="6.61991">
        <ele>2366.9</ele>
        <time>2016-01-24T10:52:36Z</time>
      </trkpt>
      <trkpt lat="45.48616" lon="6.61984">
        <ele>2369.31</ele>
        <time>2016-01-24T10:52:50Z</time>
      </trkpt>
      <trkpt lat="45.48619" lon="6.6198">
        <ele>2371.23</ele>
        <time>2016-01-24T10:52:56Z</time>
      </trkpt>
      <trkpt lat="45.48629" lon="6.61974">
        <ele>2374.59</ele>
        <time>2016-01-24T10:53:10Z</time>
      </trkpt>
      <trkpt lat="45.48628" lon="6.61977">
        <ele>2375.07</ele>
        <time>2016-01-24T10:53:16Z</time>
      </trkpt>
      <trkpt lat="45.48625" lon="6.6198">
        <ele>2376.04</ele>
        <time>2016-01-24T10:53:29Z</time>
      </trkpt>
      <trkpt lat="45.48627" lon="6.6198">
        <ele>2376.04</ele>
        <time>2016-01-24T10:53:49Z</time>
      </trkpt>
      <trkpt lat="45.48627" lon="6.6198">
        <ele>2376.04</ele>
        <time>2016-01-24T10:54:13Z</time>
      </trkpt>
      <trkpt lat="45.48626" lon="6.61978">
        <ele>2376.04</ele>
        <time>2016-01-24T10:54:35Z</time>
      </trkpt>
      <trkpt lat="45.48627" lon="6.61977">
        <ele>2376.52</ele>
        <time>2016-01-24T10:55:00Z</time>
      </trkpt>
      <trkpt lat="45.48634" lon="6.61974">
        <ele>2378.44</ele>
        <time>2016-01-24T10:55:15Z</time>
      </trkpt>
      <trkpt lat="45.4864" lon="6.61968">
        <ele>2381.8</ele>
        <time>2016-01-24T10:55:26Z</time>
      </trkpt>
      <trkpt lat="45.48647" lon="6.61962">
        <ele>2385.17</ele>
        <time>2016-01-24T10:55:37Z</time>
      </trkpt>
      <trkpt lat="45.48655" lon="6.61956">
        <ele>2388.05</ele>
        <time>2016-01-24T10:55:48Z</time>
      </trkpt>
      <trkpt lat="45.48666" lon="6.61948">
        <ele>2390.94</ele>
        <time>2016-01-24T10:56:04Z</time>
      </trkpt>
      <trkpt lat="45.48678" lon="6.61944">
        <ele>2393.82</ele>
        <time>2016-01-24T10:56:20Z</time>
      </trkpt>
      <trkpt lat="45.48679" lon="6.61957">
        <ele>2397.18</ele>
        <time>2016-01-24T10:56:33Z</time>
      </trkpt>
      <trkpt lat="45.4868" lon="6.61965">
        <ele>2398.63</ele>
        <time>2016-01-24T10:56:46Z</time>
      </trkpt>
      <trkpt lat="45.48688" lon="6.61953">
        <ele>2401.51</ele>
        <time>2016-01-24T10:57:01Z</time>
      </trkpt>
      <trkpt lat="45.48698" lon="6.61944">
        <ele>2404.88</ele>
        <time>2016-01-24T10:57:15Z</time>
      </trkpt>
      <trkpt lat="45.48699" lon="6.61958">
        <ele>2407.28</ele>
        <time>2016-01-24T10:57:27Z</time>
      </trkpt>
      <trkpt lat="45.487" lon="6.61967">
        <ele>2409.68</ele>
        <time>2016-01-24T10:57:44Z</time>
      </trkpt>
      <trkpt lat="45.48699" lon="6.61967">
        <ele>2409.68</ele>
        <time>2016-01-24T10:57:59Z</time>
      </trkpt>
      <trkpt lat="45.48699" lon="6.61967">
        <ele>2409.68</ele>
        <time>2016-01-24T10:58:22Z</time>
      </trkpt>
      <trkpt lat="45.48701" lon="6.61966">
        <ele>2409.68</ele>
        <time>2016-01-24T10:58:41Z</time>
      </trkpt>
      <trkpt lat="45.48699" lon="6.61966">
        <ele>2409.68</ele>
        <time>2016-01-24T10:59:05Z</time>
      </trkpt>
      <trkpt lat="45.48703" lon="6.61972">
        <ele>2410.64</ele>
        <time>2016-01-24T10:59:25Z</time>
      </trkpt>
      <trkpt lat="45.48708" lon="6.61975">
        <ele>2411.6</ele>
        <time>2016-01-24T10:59:31Z</time>
      </trkpt>
      <trkpt lat="45.48719" lon="6.61982">
        <ele>2414.49</ele>
        <time>2016-01-24T10:59:48Z</time>
      </trkpt>
      <trkpt lat="45.48731" lon="6.61983">
        <ele>2417.37</ele>
        <time>2016-01-24T11:00:03Z</time>
      </trkpt>
      <trkpt lat="45.48736" lon="6.61983">
        <ele>2417.85</ele>
        <time>2016-01-24T11:00:08Z</time>
      </trkpt>
      <trkpt lat="45.48747" lon="6.61995">
        <ele>2419.78</ele>
        <time>2016-01-24T11:00:25Z</time>
      </trkpt>
      <trkpt lat="45.4875" lon="6.62007">
        <ele>2421.22</ele>
        <time>2016-01-24T11:00:41Z</time>
      </trkpt>
      <trkpt lat="45.48751" lon="6.62005">
        <ele>2421.22</ele>
        <time>2016-01-24T11:00:52Z</time>
      </trkpt>
      <trkpt lat="45.48751" lon="6.62005">
        <ele>2421.22</ele>
        <time>2016-01-24T11:01:08Z</time>
      </trkpt>
      <trkpt lat="45.48752" lon="6.62005">
        <ele>2421.22</ele>
        <time>2016-01-24T11:01:28Z</time>
      </trkpt>
      <trkpt lat="45.48752" lon="6.62005">
        <ele>2421.22</ele>
        <time>2016-01-24T11:01:49Z</time>
      </trkpt>
      <trkpt lat="45.48752" lon="6.62005">
        <ele>2421.22</ele>
        <time>2016-01-24T11:02:21Z</time>
      </trkpt>
      <trkpt lat="45.48753" lon="6.62006">
        <ele>2421.7</ele>
        <time>2016-01-24T11:02:41Z</time>
      </trkpt>
      <trkpt lat="45.48753" lon="6.62006">
        <ele>2421.7</ele>
        <time>2016-01-24T11:03:14Z</time>
      </trkpt>
      <trkpt lat="45.48753" lon="6.62005">
        <ele>2421.7</ele>
        <time>2016-01-24T11:03:48Z</time>
      </trkpt>
      <trkpt lat="45.48753" lon="6.62006">
        <ele>2421.7</ele>
        <time>2016-01-24T11:04:05Z</time>
      </trkpt>
      <trkpt lat="45.48754" lon="6.62006">
        <ele>2421.7</ele>
        <time>2016-01-24T11:04:27Z</time>
      </trkpt>
      <trkpt lat="45.48755" lon="6.62006">
        <ele>2421.7</ele>
        <time>2016-01-24T11:04:52Z</time>
      </trkpt>
      <trkpt lat="45.4876" lon="6.62005">
        <ele>2422.18</ele>
        <time>2016-01-24T11:05:08Z</time>
      </trkpt>
      <trkpt lat="45.48762" lon="6.62006">
        <ele>2422.66</ele>
        <time>2016-01-24T11:05:11Z</time>
      </trkpt>
      <trkpt lat="45.4877" lon="6.61999">
        <ele>2425.06</ele>
        <time>2016-01-24T11:05:22Z</time>
      </trkpt>
      <trkpt lat="45.48778" lon="6.6199">
        <ele>2428.43</ele>
        <time>2016-01-24T11:05:35Z</time>
      </trkpt>
      <trkpt lat="45.48784" lon="6.61995">
        <ele>2430.35</ele>
        <time>2016-01-24T11:05:44Z</time>
      </trkpt>
      <trkpt lat="45.48799" lon="6.61995">
        <ele>2431.79</ele>
        <time>2016-01-24T11:06:02Z</time>
      </trkpt>
      <trkpt lat="45.48806" lon="6.6199">
        <ele>2433.71</ele>
        <time>2016-01-24T11:06:15Z</time>
      </trkpt>
      <trkpt lat="45.48812" lon="6.61994">
        <ele>2436.12</ele>
        <time>2016-01-24T11:06:29Z</time>
      </trkpt>
      <trkpt lat="45.48811" lon="6.62001">
        <ele>2438.04</ele>
        <time>2016-01-24T11:06:43Z</time>
      </trkpt>
      <trkpt lat="45.48816" lon="6.62005">
        <ele>2440.44</ele>
        <time>2016-01-24T11:06:59Z</time>
      </trkpt>
      <trkpt lat="45.48818" lon="6.62011">
        <ele>2442.37</ele>
        <time>2016-01-24T11:07:10Z</time>
      </trkpt>
      <trkpt lat="45.48821" lon="6.62016">
        <ele>2443.33</ele>
        <time>2016-01-24T11:07:15Z</time>
      </trkpt>
      <trkpt lat="45.48834" lon="6.62032">
        <ele>2445.25</ele>
        <time>2016-01-24T11:07:35Z</time>
      </trkpt>
      <trkpt lat="45.48838" lon="6.62031">
        <ele>2445.25</ele>
        <time>2016-01-24T11:07:55Z</time>
      </trkpt>
      <trkpt lat="45.48838" lon="6.62032">
        <ele>2445.25</ele>
        <time>2016-01-24T11:08:20Z</time>
      </trkpt>
      <trkpt lat="45.48839" lon="6.62033">
        <ele>2445.25</ele>
        <time>2016-01-24T11:08:44Z</time>
      </trkpt>
      <trkpt lat="45.4884" lon="6.62032">
        <ele>2445.73</ele>
        <time>2016-01-24T11:08:58Z</time>
      </trkpt>
      <trkpt lat="45.4884" lon="6.62033">
        <ele>2445.73</ele>
        <time>2016-01-24T11:09:20Z</time>
      </trkpt>
      <trkpt lat="45.48843" lon="6.62036">
        <ele>2445.73</ele>
        <time>2016-01-24T11:09:34Z</time>
      </trkpt>
      <trkpt lat="45.4885" lon="6.6204">
        <ele>2446.21</ele>
        <time>2016-01-24T11:09:47Z</time>
      </trkpt>
      <trkpt lat="45.48866" lon="6.62047">
        <ele>2443.81</ele>
        <time>2016-01-24T11:10:02Z</time>
      </trkpt>
      <trkpt lat="45.48873" lon="6.62051">
        <ele>2445.25</ele>
        <time>2016-01-24T11:10:12Z</time>
      </trkpt>
      <trkpt lat="45.4889" lon="6.62061">
        <ele>2445.25</ele>
        <time>2016-01-24T11:10:29Z</time>
      </trkpt>
      <trkpt lat="45.48905" lon="6.6207">
        <ele>2445.73</ele>
        <time>2016-01-24T11:10:44Z</time>
      </trkpt>
      <trkpt lat="45.4891" lon="6.62073">
        <ele>2446.69</ele>
        <time>2016-01-24T11:10:59Z</time>
      </trkpt>
      <trkpt lat="45.48913" lon="6.62079">
        <ele>2447.65</ele>
        <time>2016-01-24T11:11:19Z</time>
      </trkpt>
      <trkpt lat="45.48915" lon="6.62079">
        <ele>2447.65</ele>
        <time>2016-01-24T11:11:49Z</time>
      </trkpt>
      <trkpt lat="45.48914" lon="6.62079">
        <ele>2447.65</ele>
        <time>2016-01-24T11:12:05Z</time>
      </trkpt>
      <trkpt lat="45.48912" lon="6.62078">
        <ele>2447.65</ele>
        <time>2016-01-24T11:12:27Z</time>
      </trkpt>
      <trkpt lat="45.48912" lon="6.62078">
        <ele>2447.65</ele>
        <time>2016-01-24T11:12:40Z</time>
      </trkpt>
      <trkpt lat="45.48913" lon="6.62077">
        <ele>2448.13</ele>
        <time>2016-01-24T11:13:01Z</time>
      </trkpt>
      <trkpt lat="45.48913" lon="6.62077">
        <ele>2448.13</ele>
        <time>2016-01-24T11:13:21Z</time>
      </trkpt>
      <trkpt lat="45.48912" lon="6.6208">
        <ele>2448.62</ele>
        <time>2016-01-24T11:13:46Z</time>
      </trkpt>
      <trkpt lat="45.48917" lon="6.62084">
        <ele>2448.62</ele>
        <time>2016-01-24T11:14:04Z</time>
      </trkpt>
      <trkpt lat="45.48918" lon="6.62085">
        <ele>2448.62</ele>
        <time>2016-01-24T11:14:05Z</time>
      </trkpt>
      <trkpt lat="45.48924" lon="6.62096">
        <ele>2447.17</ele>
        <time>2016-01-24T11:14:12Z</time>
      </trkpt>
      <trkpt lat="45.48929" lon="6.62105">
        <ele>2445.73</ele>
        <time>2016-01-24T11:14:15Z</time>
      </trkpt>
      <trkpt lat="45.48933" lon="6.62114">
        <ele>2444.29</ele>
        <time>2016-01-24T11:14:18Z</time>
      </trkpt>
      <trkpt lat="45.48939" lon="6.62133">
        <ele>2443.81</ele>
        <time>2016-01-24T11:14:30Z</time>
      </trkpt>
      <trkpt lat="45.48943" lon="6.62141">
        <ele>2443.81</ele>
        <time>2016-01-24T11:14:44Z</time>
      </trkpt>
      <trkpt lat="45.48946" lon="6.62146">
        <ele>2445.25</ele>
        <time>2016-01-24T11:14:49Z</time>
      </trkpt>
      <trkpt lat="45.48951" lon="6.62157">
        <ele>2447.65</ele>
        <time>2016-01-24T11:15:03Z</time>
      </trkpt>
      <trkpt lat="45.48956" lon="6.62165">
        <ele>2449.1</ele>
        <time>2016-01-24T11:15:16Z</time>
      </trkpt>
      <trkpt lat="45.48962" lon="6.62175">
        <ele>2450.54</ele>
        <time>2016-01-24T11:15:30Z</time>
      </trkpt>
      <trkpt lat="45.48966" lon="6.62183">
        <ele>2451.98</ele>
        <time>2016-01-24T11:15:37Z</time>
      </trkpt>
      <trkpt lat="45.48967" lon="6.62185">
        <ele>2451.98</ele>
        <time>2016-01-24T11:15:38Z</time>
      </trkpt>
      <trkpt lat="45.48968" lon="6.62186">
        <ele>2452.46</ele>
        <time>2016-01-24T11:15:39Z</time>
      </trkpt>
      <trkpt lat="45.48969" lon="6.62188">
        <ele>2452.46</ele>
        <time>2016-01-24T11:15:40Z</time>
      </trkpt>
      <trkpt lat="45.48969" lon="6.62189">
        <ele>2452.46</ele>
        <time>2016-01-24T11:15:41Z</time>
      </trkpt>
      <trkpt lat="45.4897" lon="6.6219">
        <ele>2452.46</ele>
        <time>2016-01-24T11:15:42Z</time>
      </trkpt>
      <trkpt lat="45.4897" lon="6.62191">
        <ele>2452.46</ele>
        <time>2016-01-24T11:15:43Z</time>
      </trkpt>
      <trkpt lat="45.48971" lon="6.62193">
        <ele>2452.94</ele>
        <time>2016-01-24T11:15:44Z</time>
      </trkpt>
      <trkpt lat="45.48971" lon="6.62194">
        <ele>2452.94</ele>
        <time>2016-01-24T11:15:45Z</time>
      </trkpt>
      <trkpt lat="45.48972" lon="6.62195">
        <ele>2453.42</ele>
        <time>2016-01-24T11:15:46Z</time>
      </trkpt>
      <trkpt lat="45.48974" lon="6.62201">
        <ele>2453.42</ele>
        <time>2016-01-24T11:15:51Z</time>
      </trkpt>
      <trkpt lat="45.48974" lon="6.62203">
        <ele>2453.9</ele>
        <time>2016-01-24T11:15:52Z</time>
      </trkpt>
      <trkpt lat="45.48974" lon="6.62205">
        <ele>2453.9</ele>
        <time>2016-01-24T11:15:53Z</time>
      </trkpt>
      <trkpt lat="45.48977" lon="6.62225">
        <ele>2453.9</ele>
        <time>2016-01-24T11:16:05Z</time>
      </trkpt>
      <trkpt lat="45.48979" lon="6.6224">
        <ele>2454.38</ele>
        <time>2016-01-24T11:16:16Z</time>
      </trkpt>
      <trkpt lat="45.48981" lon="6.62245">
        <ele>2455.82</ele>
        <time>2016-01-24T11:16:20Z</time>
      </trkpt>
      <trkpt lat="45.48985" lon="6.62268">
        <ele>2455.34</ele>
        <time>2016-01-24T11:16:34Z</time>
      </trkpt>
      <trkpt lat="45.48987" lon="6.62279">
        <ele>2457.27</ele>
        <time>2016-01-24T11:16:50Z</time>
      </trkpt>
      <trkpt lat="45.48991" lon="6.62297">
        <ele>2458.23</ele>
        <time>2016-01-24T11:17:06Z</time>
      </trkpt>
      <trkpt lat="45.48995" lon="6.62321">
        <ele>2459.19</ele>
        <time>2016-01-24T11:17:25Z</time>
      </trkpt>
      <trkpt lat="45.48999" lon="6.62337">
        <ele>2461.59</ele>
        <time>2016-01-24T11:17:43Z</time>
      </trkpt>
      <trkpt lat="45.49001" lon="6.6235">
        <ele>2463.04</ele>
        <time>2016-01-24T11:18:00Z</time>
      </trkpt>
      <trkpt lat="45.49004" lon="6.62364">
        <ele>2464.96</ele>
        <time>2016-01-24T11:18:16Z</time>
      </trkpt>
      <trkpt lat="45.49008" lon="6.62375">
        <ele>2466.88</ele>
        <time>2016-01-24T11:18:27Z</time>
      </trkpt>
      <trkpt lat="45.49008" lon="6.62377">
        <ele>2467.36</ele>
        <time>2016-01-24T11:18:28Z</time>
      </trkpt>
      <trkpt lat="45.49013" lon="6.62394">
        <ele>2469.76</ele>
        <time>2016-01-24T11:18:40Z</time>
      </trkpt>
      <trkpt lat="45.49019" lon="6.62413">
        <ele>2473.13</ele>
        <time>2016-01-24T11:18:53Z</time>
      </trkpt>
      <trkpt lat="45.49025" lon="6.62431">
        <ele>2476.49</ele>
        <time>2016-01-24T11:19:06Z</time>
      </trkpt>
      <trkpt lat="45.49031" lon="6.62448">
        <ele>2479.86</ele>
        <time>2016-01-24T11:19:17Z</time>
      </trkpt>
      <trkpt lat="45.49036" lon="6.62468">
        <ele>2481.78</ele>
        <time>2016-01-24T11:19:29Z</time>
      </trkpt>
      <trkpt lat="45.4904" lon="6.62483">
        <ele>2485.15</ele>
        <time>2016-01-24T11:19:42Z</time>
      </trkpt>
      <trkpt lat="45.49045" lon="6.62501">
        <ele>2487.55</ele>
        <time>2016-01-24T11:20:02Z</time>
      </trkpt>
      <trkpt lat="45.49052" lon="6.62518">
        <ele>2487.55</ele>
        <time>2016-01-24T11:20:18Z</time>
      </trkpt>
      <trkpt lat="45.49058" lon="6.62531">
        <ele>2488.03</ele>
        <time>2016-01-24T11:20:34Z</time>
      </trkpt>
      <trkpt lat="45.49059" lon="6.62533">
        <ele>2488.03</ele>
        <time>2016-01-24T11:21:01Z</time>
      </trkpt>
      <trkpt lat="45.49059" lon="6.62534">
        <ele>2488.03</ele>
        <time>2016-01-24T11:21:06Z</time>
      </trkpt>
      <trkpt lat="45.4905" lon="6.6251">
        <ele>2488.03</ele>
        <time>2016-01-24T11:21:20Z</time>
      </trkpt>
      <trkpt lat="45.49046" lon="6.62501">
        <ele>2488.03</ele>
        <time>2016-01-24T11:21:29Z</time>
      </trkpt>
      <trkpt lat="45.49042" lon="6.62489">
        <ele>2486.11</ele>
        <time>2016-01-24T11:21:41Z</time>
      </trkpt>
      <trkpt lat="45.49036" lon="6.62479">
        <ele>2483.7</ele>
        <time>2016-01-24T11:21:55Z</time>
      </trkpt>
      <trkpt lat="45.49035" lon="6.62478">
        <ele>2483.7</ele>
        <time>2016-01-24T11:21:56Z</time>
      </trkpt>
      <trkpt lat="45.4903" lon="6.62459">
        <ele>2480.34</ele>
        <time>2016-01-24T11:22:06Z</time>
      </trkpt>
      <trkpt lat="45.49026" lon="6.62436">
        <ele>2476.97</ele>
        <time>2016-01-24T11:22:16Z</time>
      </trkpt>
      <trkpt lat="45.49025" lon="6.62434">
        <ele>2476.97</ele>
        <time>2016-01-24T11:22:17Z</time>
      </trkpt>
      <trkpt lat="45.49016" lon="6.62415">
        <ele>2473.61</ele>
        <time>2016-01-24T11:22:30Z</time>
      </trkpt>
      <trkpt lat="45.4901" lon="6.62391">
        <ele>2470.24</ele>
        <time>2016-01-24T11:22:44Z</time>
      </trkpt>
      <trkpt lat="45.49005" lon="6.6237">
        <ele>2466.88</ele>
        <time>2016-01-24T11:22:54Z</time>
      </trkpt>
      <trkpt lat="45.49001" lon="6.62346">
        <ele>2463.52</ele>
        <time>2016-01-24T11:23:04Z</time>
      </trkpt>
      <trkpt lat="45.48996" lon="6.62322">
        <ele>2460.15</ele>
        <time>2016-01-24T11:23:14Z</time>
      </trkpt>
      <trkpt lat="45.48995" lon="6.6232">
        <ele>2460.15</ele>
        <time>2016-01-24T11:23:23Z</time>
      </trkpt>
      <trkpt lat="45.48996" lon="6.62321">
        <ele>2460.15</ele>
        <time>2016-01-24T11:23:50Z</time>
      </trkpt>
      <trkpt lat="45.48998" lon="6.62322">
        <ele>2459.67</ele>
        <time>2016-01-24T11:24:21Z</time>
      </trkpt>
      <trkpt lat="45.48997" lon="6.62321">
        <ele>2459.67</ele>
        <time>2016-01-24T11:24:46Z</time>
      </trkpt>
      <trkpt lat="45.48993" lon="6.62297">
        <ele>2459.19</ele>
        <time>2016-01-24T11:24:58Z</time>
      </trkpt>
      <trkpt lat="45.48992" lon="6.6229">
        <ele>2458.71</ele>
        <time>2016-01-24T11:25:12Z</time>
      </trkpt>
      <trkpt lat="45.48985" lon="6.62262">
        <ele>2456.31</ele>
        <time>2016-01-24T11:25:24Z</time>
      </trkpt>
      <trkpt lat="45.48979" lon="6.62231">
        <ele>2454.86</ele>
        <time>2016-01-24T11:25:37Z</time>
      </trkpt>
      <trkpt lat="45.48975" lon="6.62202">
        <ele>2453.9</ele>
        <time>2016-01-24T11:25:50Z</time>
      </trkpt>
      <trkpt lat="45.48964" lon="6.62173">
        <ele>2451.5</ele>
        <time>2016-01-24T11:26:04Z</time>
      </trkpt>
      <trkpt lat="45.48952" lon="6.62152">
        <ele>2448.13</ele>
        <time>2016-01-24T11:26:14Z</time>
      </trkpt>
      <trkpt lat="45.48943" lon="6.62135">
        <ele>2445.25</ele>
        <time>2016-01-24T11:26:18Z</time>
      </trkpt>
      <trkpt lat="45.48935" lon="6.62114">
        <ele>2443.81</ele>
        <time>2016-01-24T11:26:28Z</time>
      </trkpt>
      <trkpt lat="45.4893" lon="6.62101">
        <ele>2445.73</ele>
        <time>2016-01-24T11:26:38Z</time>
      </trkpt>
      <trkpt lat="45.48929" lon="6.62098">
        <ele>2446.21</ele>
        <time>2016-01-24T11:26:40Z</time>
      </trkpt>
      <trkpt lat="45.48918" lon="6.62082">
        <ele>2448.62</ele>
        <time>2016-01-24T11:26:56Z</time>
      </trkpt>
      <trkpt lat="45.48915" lon="6.62076">
        <ele>2449.1</ele>
        <time>2016-01-24T11:27:09Z</time>
      </trkpt>
      <trkpt lat="45.48914" lon="6.62077">
        <ele>2448.62</ele>
        <time>2016-01-24T11:27:25Z</time>
      </trkpt>
      <trkpt lat="45.48914" lon="6.62077">
        <ele>2448.62</ele>
        <time>2016-01-24T11:27:57Z</time>
      </trkpt>
      <trkpt lat="45.48915" lon="6.62077">
        <ele>2448.62</ele>
        <time>2016-01-24T11:28:16Z</time>
      </trkpt>
      <trkpt lat="45.48914" lon="6.62078">
        <ele>2448.62</ele>
        <time>2016-01-24T11:28:37Z</time>
      </trkpt>
      <trkpt lat="45.48913" lon="6.62079">
        <ele>2447.65</ele>
        <time>2016-01-24T11:28:49Z</time>
      </trkpt>
      <trkpt lat="45.48913" lon="6.62076">
        <ele>2448.13</ele>
        <time>2016-01-24T11:29:21Z</time>
      </trkpt>
      <trkpt lat="45.48913" lon="6.62079">
        <ele>2448.13</ele>
        <time>2016-01-24T11:29:51Z</time>
      </trkpt>
      <trkpt lat="45.48914" lon="6.62078">
        <ele>2448.13</ele>
        <time>2016-01-24T11:30:17Z</time>
      </trkpt>
      <trkpt lat="45.48915" lon="6.62076">
        <ele>2448.62</ele>
        <time>2016-01-24T11:30:46Z</time>
      </trkpt>
      <trkpt lat="45.48914" lon="6.62073">
        <ele>2448.62</ele>
        <time>2016-01-24T11:31:32Z</time>
      </trkpt>
      <trkpt lat="45.48915" lon="6.62074">
        <ele>2448.62</ele>
        <time>2016-01-24T11:32:13Z</time>
      </trkpt>
      <trkpt lat="45.48915" lon="6.62077">
        <ele>2448.62</ele>
        <time>2016-01-24T11:32:46Z</time>
      </trkpt>
      <trkpt lat="45.48912" lon="6.62079">
        <ele>2448.62</ele>
        <time>2016-01-24T11:33:27Z</time>
      </trkpt>
      <trkpt lat="45.48914" lon="6.62077">
        <ele>2448.62</ele>
        <time>2016-01-24T11:34:10Z</time>
      </trkpt>
      <trkpt lat="45.48914" lon="6.62075">
        <ele>2449.58</ele>
        <time>2016-01-24T11:34:43Z</time>
      </trkpt>
      <trkpt lat="45.48913" lon="6.62076">
        <ele>2450.06</ele>
        <time>2016-01-24T11:35:15Z</time>
      </trkpt>
      <trkpt lat="45.48913" lon="6.62074">
        <ele>2449.1</ele>
        <time>2016-01-24T11:35:45Z</time>
      </trkpt>
      <trkpt lat="45.48911" lon="6.62077">
        <ele>2449.1</ele>
        <time>2016-01-24T11:36:09Z</time>
      </trkpt>
      <trkpt lat="45.48912" lon="6.62075">
        <ele>2449.1</ele>
        <time>2016-01-24T11:36:37Z</time>
      </trkpt>
      <trkpt lat="45.48913" lon="6.62073">
        <ele>2449.1</ele>
        <time>2016-01-24T11:36:59Z</time>
      </trkpt>
      <trkpt lat="45.48913" lon="6.62071">
        <ele>2449.1</ele>
        <time>2016-01-24T11:37:26Z</time>
      </trkpt>
      <trkpt lat="45.48913" lon="6.62074">
        <ele>2449.1</ele>
        <time>2016-01-24T11:37:50Z</time>
      </trkpt>
      <trkpt lat="45.48914" lon="6.62074">
        <ele>2448.62</ele>
        <time>2016-01-24T11:38:21Z</time>
      </trkpt>
      <trkpt lat="45.48914" lon="6.62074">
        <ele>2448.62</ele>
        <time>2016-01-24T11:38:52Z</time>
      </trkpt>
      <trkpt lat="45.48913" lon="6.62074">
        <ele>2448.62</ele>
        <time>2016-01-24T11:39:32Z</time>
      </trkpt>
      <trkpt lat="45.48914" lon="6.62073">
        <ele>2448.62</ele>
        <time>2016-01-24T11:40:00Z</time>
      </trkpt>
      <trkpt lat="45.4891" lon="6.62074">
        <ele>2448.62</ele>
        <time>2016-01-24T11:40:30Z</time>
      </trkpt>
      <trkpt lat="45.48912" lon="6.62077">
        <ele>2448.62</ele>
        <time>2016-01-24T11:41:10Z</time>
      </trkpt>
      <trkpt lat="45.48912" lon="6.62077">
        <ele>2448.62</ele>
        <time>2016-01-24T11:41:46Z</time>
      </trkpt>
      <trkpt lat="45.48913" lon="6.62077">
        <ele>2448.62</ele>
        <time>2016-01-24T11:42:22Z</time>
      </trkpt>
      <trkpt lat="45.48912" lon="6.62075">
        <ele>2449.1</ele>
        <time>2016-01-24T11:43:00Z</time>
      </trkpt>
      <trkpt lat="45.48913" lon="6.62073">
        <ele>2449.1</ele>
        <time>2016-01-24T11:43:30Z</time>
      </trkpt>
      <trkpt lat="45.48913" lon="6.62076">
        <ele>2450.54</ele>
        <time>2016-01-24T11:43:58Z</time>
      </trkpt>
      <trkpt lat="45.48913" lon="6.62076">
        <ele>2450.54</ele>
        <time>2016-01-24T11:43:59Z</time>
      </trkpt>
      <trkpt lat="45.48913" lon="6.62075">
        <ele>2451.02</ele>
        <time>2016-01-24T11:44:08Z</time>
      </trkpt>
      <trkpt lat="45.48912" lon="6.62077">
        <ele>2451.02</ele>
        <time>2016-01-24T11:44:30Z</time>
      </trkpt>
      <trkpt lat="45.48913" lon="6.62078">
        <ele>2450.06</ele>
        <time>2016-01-24T11:45:00Z</time>
      </trkpt>
      <trkpt lat="45.48914" lon="6.62077">
        <ele>2450.06</ele>
        <time>2016-01-24T11:45:15Z</time>
      </trkpt>
      <trkpt lat="45.48914" lon="6.62077">
        <ele>2450.06</ele>
        <time>2016-01-24T11:45:34Z</time>
      </trkpt>
      <trkpt lat="45.48914" lon="6.62079">
        <ele>2450.06</ele>
        <time>2016-01-24T11:45:57Z</time>
      </trkpt>
      <trkpt lat="45.48913" lon="6.62078">
        <ele>2450.06</ele>
        <time>2016-01-24T11:46:20Z</time>
      </trkpt>
      <trkpt lat="45.48912" lon="6.62077">
        <ele>2451.02</ele>
        <time>2016-01-24T11:46:36Z</time>
      </trkpt>
      <trkpt lat="45.48913" lon="6.62077">
        <ele>2451.02</ele>
        <time>2016-01-24T11:47:04Z</time>
      </trkpt>
      <trkpt lat="45.48914" lon="6.62077">
        <ele>2451.5</ele>
        <time>2016-01-24T11:47:29Z</time>
      </trkpt>
      <trkpt lat="45.48913" lon="6.62077">
        <ele>2451.02</ele>
        <time>2016-01-24T11:47:51Z</time>
      </trkpt>
      <trkpt lat="45.48914" lon="6.62075">
        <ele>2451.02</ele>
        <time>2016-01-24T11:48:25Z</time>
      </trkpt>
      <trkpt lat="45.48912" lon="6.62076">
        <ele>2451.02</ele>
        <time>2016-01-24T11:48:42Z</time>
      </trkpt>
      <trkpt lat="45.48912" lon="6.62077">
        <ele>2450.54</ele>
        <time>2016-01-24T11:48:56Z</time>
      </trkpt>
      <trkpt lat="45.48912" lon="6.62076">
        <ele>2451.5</ele>
        <time>2016-01-24T11:49:12Z</time>
      </trkpt>
      <trkpt lat="45.48913" lon="6.62077">
        <ele>2451.5</ele>
        <time>2016-01-24T11:49:32Z</time>
      </trkpt>
      <trkpt lat="45.48912" lon="6.62077">
        <ele>2451.5</ele>
        <time>2016-01-24T11:49:55Z</time>
      </trkpt>
      <trkpt lat="45.48911" lon="6.62078">
        <ele>2450.54</ele>
        <time>2016-01-24T11:50:22Z</time>
      </trkpt>
      <trkpt lat="45.48912" lon="6.62076">
        <ele>2450.54</ele>
        <time>2016-01-24T11:50:45Z</time>
      </trkpt>
      <trkpt lat="45.48912" lon="6.62075">
        <ele>2450.54</ele>
        <time>2016-01-24T11:51:18Z</time>
      </trkpt>
      <trkpt lat="45.48912" lon="6.62077">
        <ele>2450.06</ele>
        <time>2016-01-24T11:51:57Z</time>
      </trkpt>
      <trkpt lat="45.48911" lon="6.62076">
        <ele>2450.06</ele>
        <time>2016-01-24T11:52:17Z</time>
      </trkpt>
      <trkpt lat="45.48912" lon="6.62077">
        <ele>2450.06</ele>
        <time>2016-01-24T11:52:43Z</time>
      </trkpt>
      <trkpt lat="45.48911" lon="6.62078">
        <ele>2450.06</ele>
        <time>2016-01-24T11:53:13Z</time>
      </trkpt>
      <trkpt lat="45.48913" lon="6.62077">
        <ele>2450.06</ele>
        <time>2016-01-24T11:53:39Z</time>
      </trkpt>
      <trkpt lat="45.48914" lon="6.62082">
        <ele>2451.02</ele>
        <time>2016-01-24T11:53:55Z</time>
      </trkpt>
      <trkpt lat="45.48915" lon="6.62082">
        <ele>2450.06</ele>
        <time>2016-01-24T11:54:33Z</time>
      </trkpt>
      <trkpt lat="45.48913" lon="6.62081">
        <ele>2449.58</ele>
        <time>2016-01-24T11:55:09Z</time>
      </trkpt>
      <trkpt lat="45.48914" lon="6.62081">
        <ele>2449.58</ele>
        <time>2016-01-24T11:55:41Z</time>
      </trkpt>
      <trkpt lat="45.48914" lon="6.62081">
        <ele>2449.58</ele>
        <time>2016-01-24T11:56:03Z</time>
      </trkpt>
      <trkpt lat="45.48914" lon="6.62081">
        <ele>2451.5</ele>
        <time>2016-01-24T11:56:07Z</time>
      </trkpt>
      <trkpt lat="45.48914" lon="6.6208">
        <ele>2450.54</ele>
        <time>2016-01-24T11:56:13Z</time>
      </trkpt>
      <trkpt lat="45.48915" lon="6.62078">
        <ele>2450.54</ele>
        <time>2016-01-24T11:56:28Z</time>
      </trkpt>
      <trkpt lat="45.48914" lon="6.62077">
        <ele>2450.54</ele>
        <time>2016-01-24T11:56:53Z</time>
      </trkpt>
      <trkpt lat="45.48914" lon="6.62079">
        <ele>2450.54</ele>
        <time>2016-01-24T11:57:08Z</time>
      </trkpt>
      <trkpt lat="45.48913" lon="6.62078">
        <ele>2450.54</ele>
        <time>2016-01-24T11:57:37Z</time>
      </trkpt>
      <trkpt lat="45.48913" lon="6.62078">
        <ele>2450.54</ele>
        <time>2016-01-24T11:57:56Z</time>
      </trkpt>
      <trkpt lat="45.48912" lon="6.62078">
        <ele>2450.54</ele>
        <time>2016-01-24T11:58:18Z</time>
      </trkpt>
      <trkpt lat="45.48912" lon="6.62079">
        <ele>2449.1</ele>
        <time>2016-01-24T11:58:42Z</time>
      </trkpt>
      <trkpt lat="45.48912" lon="6.62078">
        <ele>2450.54</ele>
        <time>2016-01-24T11:59:06Z</time>
      </trkpt>
      <trkpt lat="45.48913" lon="6.62077">
        <ele>2450.54</ele>
        <time>2016-01-24T11:59:23Z</time>
      </trkpt>
      <trkpt lat="45.48913" lon="6.62076">
        <ele>2451.02</ele>
        <time>2016-01-24T11:59:48Z</time>
      </trkpt>
      <trkpt lat="45.48912" lon="6.62076">
        <ele>2451.02</ele>
        <time>2016-01-24T12:00:14Z</time>
      </trkpt>
      <trkpt lat="45.48912" lon="6.62076">
        <ele>2450.54</ele>
        <time>2016-01-24T12:00:32Z</time>
      </trkpt>
      <trkpt lat="45.48913" lon="6.62076">
        <ele>2450.06</ele>
        <time>2016-01-24T12:00:56Z</time>
      </trkpt>
      <trkpt lat="45.48913" lon="6.62076">
        <ele>2450.06</ele>
        <time>2016-01-24T12:01:18Z</time>
      </trkpt>
      <trkpt lat="45.48913" lon="6.62076">
        <ele>2450.06</ele>
        <time>2016-01-24T12:01:44Z</time>
      </trkpt>
      <trkpt lat="45.48912" lon="6.62075">
        <ele>2450.06</ele>
        <time>2016-01-24T12:02:13Z</time>
      </trkpt>
      <trkpt lat="45.48912" lon="6.62075">
        <ele>2450.06</ele>
        <time>2016-01-24T12:02:38Z</time>
      </trkpt>
      <trkpt lat="45.48912" lon="6.62075">
        <ele>2450.06</ele>
        <time>2016-01-24T12:02:58Z</time>
      </trkpt>
      <trkpt lat="45.48913" lon="6.62074">
        <ele>2450.06</ele>
        <time>2016-01-24T12:03:21Z</time>
      </trkpt>
      <trkpt lat="45.48912" lon="6.62074">
        <ele>2450.06</ele>
        <time>2016-01-24T12:03:48Z</time>
      </trkpt>
      <trkpt lat="45.48912" lon="6.62073">
        <ele>2450.06</ele>
        <time>2016-01-24T12:04:22Z</time>
      </trkpt>
      <trkpt lat="45.48913" lon="6.62075">
        <ele>2450.54</ele>
        <time>2016-01-24T12:04:46Z</time>
      </trkpt>
      <trkpt lat="45.48913" lon="6.62073">
        <ele>2448.13</ele>
        <time>2016-01-24T12:04:49Z</time>
      </trkpt>
      <trkpt lat="45.48913" lon="6.62074">
        <ele>2450.06</ele>
        <time>2016-01-24T12:04:51Z</time>
      </trkpt>
      <trkpt lat="45.48914" lon="6.62075">
        <ele>2450.54</ele>
        <time>2016-01-24T12:05:11Z</time>
      </trkpt>
      <trkpt lat="45.48914" lon="6.62075">
        <ele>2448.62</ele>
        <time>2016-01-24T12:05:14Z</time>
      </trkpt>
      <trkpt lat="45.48914" lon="6.62075">
        <ele>2450.54</ele>
        <time>2016-01-24T12:05:17Z</time>
      </trkpt>
      <trkpt lat="45.48913" lon="6.62075">
        <ele>2451.02</ele>
        <time>2016-01-24T12:05:38Z</time>
      </trkpt>
      <trkpt lat="45.48913" lon="6.62075">
        <ele>2446.69</ele>
        <time>2016-01-24T12:05:44Z</time>
      </trkpt>
      <trkpt lat="45.48913" lon="6.62075">
        <ele>2451.02</ele>
        <time>2016-01-24T12:05:45Z</time>
      </trkpt>
      <trkpt lat="45.48912" lon="6.62074">
        <ele>2451.02</ele>
        <time>2016-01-24T12:05:50Z</time>
      </trkpt>
      <trkpt lat="45.48913" lon="6.62074">
        <ele>2455.82</ele>
        <time>2016-01-24T12:05:57Z</time>
      </trkpt>
      <trkpt lat="45.48913" lon="6.62074">
        <ele>2451.98</ele>
        <time>2016-01-24T12:05:58Z</time>
      </trkpt>
      <trkpt lat="45.48913" lon="6.62074">
        <ele>2447.17</ele>
        <time>2016-01-24T12:06:00Z</time>
      </trkpt>
      <trkpt lat="45.48913" lon="6.62074">
        <ele>2449.1</ele>
        <time>2016-01-24T12:06:01Z</time>
      </trkpt>
      <trkpt lat="45.48913" lon="6.62075">
        <ele>2456.31</ele>
        <time>2016-01-24T12:06:02Z</time>
      </trkpt>
      <trkpt lat="45.48912" lon="6.62076">
        <ele>2451.98</ele>
        <time>2016-01-24T12:06:03Z</time>
      </trkpt>
      <trkpt lat="45.48912" lon="6.62077">
        <ele>2450.54</ele>
        <time>2016-01-24T12:06:05Z</time>
      </trkpt>
      <trkpt lat="45.48912" lon="6.62076">
        <ele>2450.06</ele>
        <time>2016-01-24T12:06:25Z</time>
      </trkpt>
      <trkpt lat="45.48912" lon="6.62075">
        <ele>2450.06</ele>
        <time>2016-01-24T12:06:44Z</time>
      </trkpt>
      <trkpt lat="45.4891" lon="6.62075">
        <ele>2450.06</ele>
        <time>2016-01-24T12:07:04Z</time>
      </trkpt>
      <trkpt lat="45.48911" lon="6.62075">
        <ele>2450.06</ele>
        <time>2016-01-24T12:07:30Z</time>
      </trkpt>
      <trkpt lat="45.48913" lon="6.62075">
        <ele>2449.58</ele>
        <time>2016-01-24T12:07:49Z</time>
      </trkpt>
      <trkpt lat="45.48912" lon="6.62076">
        <ele>2449.58</ele>
        <time>2016-01-24T12:08:08Z</time>
      </trkpt>
      <trkpt lat="45.4891" lon="6.62075">
        <ele>2449.58</ele>
        <time>2016-01-24T12:08:29Z</time>
      </trkpt>
      <trkpt lat="45.4891" lon="6.62077">
        <ele>2449.58</ele>
        <time>2016-01-24T12:08:53Z</time>
      </trkpt>
      <trkpt lat="45.4891" lon="6.62069">
        <ele>2448.13</ele>
        <time>2016-01-24T12:09:14Z</time>
      </trkpt>
      <trkpt lat="45.4891" lon="6.62065">
        <ele>2448.13</ele>
        <time>2016-01-24T12:09:15Z</time>
      </trkpt>
      <trkpt lat="45.48916" lon="6.62058">
        <ele>2444.29</ele>
        <time>2016-01-24T12:09:18Z</time>
      </trkpt>
      <trkpt lat="45.48917" lon="6.6205">
        <ele>2441.89</ele>
        <time>2016-01-24T12:09:21Z</time>
      </trkpt>
      <trkpt lat="45.48919" lon="6.62044">
        <ele>2439.96</ele>
        <time>2016-01-24T12:09:24Z</time>
      </trkpt>
      <trkpt lat="45.48918" lon="6.62043">
        <ele>2438.52</ele>
        <time>2016-01-24T12:09:26Z</time>
      </trkpt>
      <trkpt lat="45.48917" lon="6.62043">
        <ele>2438.52</ele>
        <time>2016-01-24T12:09:27Z</time>
      </trkpt>
      <trkpt lat="45.48926" lon="6.62041">
        <ele>2436.6</ele>
        <time>2016-01-24T12:09:32Z</time>
      </trkpt>
      <trkpt lat="45.48925" lon="6.62041">
        <ele>2436.12</ele>
        <time>2016-01-24T12:09:36Z</time>
      </trkpt>
      <trkpt lat="45.48927" lon="6.62032">
        <ele>2432.75</ele>
        <time>2016-01-24T12:09:40Z</time>
      </trkpt>
      <trkpt lat="45.48923" lon="6.62027">
        <ele>2431.31</ele>
        <time>2016-01-24T12:09:43Z</time>
      </trkpt>
      <trkpt lat="45.48919" lon="6.62024">
        <ele>2428.91</ele>
        <time>2016-01-24T12:09:52Z</time>
      </trkpt>
      <trkpt lat="45.48926" lon="6.62017">
        <ele>2424.58</ele>
        <time>2016-01-24T12:09:56Z</time>
      </trkpt>
      <trkpt lat="45.48931" lon="6.62016">
        <ele>2428.91</ele>
        <time>2016-01-24T12:09:57Z</time>
      </trkpt>
      <trkpt lat="45.48926" lon="6.62003">
        <ele>2420.74</ele>
        <time>2016-01-24T12:10:01Z</time>
      </trkpt>
      <trkpt lat="45.4893" lon="6.61998">
        <ele>2416.41</ele>
        <time>2016-01-24T12:10:03Z</time>
      </trkpt>
      <trkpt lat="45.48931" lon="6.61995">
        <ele>2416.41</ele>
        <time>2016-01-24T12:10:04Z</time>
      </trkpt>
      <trkpt lat="45.4893" lon="6.61992">
        <ele>2414.01</ele>
        <time>2016-01-24T12:10:06Z</time>
      </trkpt>
      <trkpt lat="45.4893" lon="6.61992">
        <ele>2414.01</ele>
        <time>2016-01-24T12:10:24Z</time>
      </trkpt>
      <trkpt lat="45.48931" lon="6.61984">
        <ele>2409.68</ele>
        <time>2016-01-24T12:10:27Z</time>
      </trkpt>
      <trkpt lat="45.48939" lon="6.61981">
        <ele>2406.32</ele>
        <time>2016-01-24T12:10:31Z</time>
      </trkpt>
      <trkpt lat="45.48939" lon="6.61981">
        <ele>2406.32</ele>
        <time>2016-01-24T12:10:32Z</time>
      </trkpt>
      <trkpt lat="45.48942" lon="6.61979">
        <ele>2403.91</ele>
        <time>2016-01-24T12:10:37Z</time>
      </trkpt>
      <trkpt lat="45.48942" lon="6.61972">
        <ele>2400.07</ele>
        <time>2016-01-24T12:10:40Z</time>
      </trkpt>
      <trkpt lat="45.4894" lon="6.6197">
        <ele>2397.67</ele>
        <time>2016-01-24T12:10:41Z</time>
      </trkpt>
      <trkpt lat="45.48944" lon="6.61963">
        <ele>2395.26</ele>
        <time>2016-01-24T12:10:44Z</time>
      </trkpt>
      <trkpt lat="45.48946" lon="6.61962">
        <ele>2389.97</ele>
        <time>2016-01-24T12:10:45Z</time>
      </trkpt>
      <trkpt lat="45.4895" lon="6.61959">
        <ele>2401.51</ele>
        <time>2016-01-24T12:10:46Z</time>
      </trkpt>
      <trkpt lat="45.48953" lon="6.61955">
        <ele>2390.46</ele>
        <time>2016-01-24T12:10:47Z</time>
      </trkpt>
      <trkpt lat="45.48949" lon="6.61951">
        <ele>2386.61</ele>
        <time>2016-01-24T12:10:49Z</time>
      </trkpt>
      <trkpt lat="45.48949" lon="6.61949">
        <ele>2389.01</ele>
        <time>2016-01-24T12:10:50Z</time>
      </trkpt>
      <trkpt lat="45.48952" lon="6.61947">
        <ele>2385.17</ele>
        <time>2016-01-24T12:10:51Z</time>
      </trkpt>
      <trkpt lat="45.48953" lon="6.61946">
        <ele>2384.69</ele>
        <time>2016-01-24T12:10:52Z</time>
      </trkpt>
      <trkpt lat="45.4896" lon="6.61944">
        <ele>2382.28</ele>
        <time>2016-01-24T12:10:55Z</time>
      </trkpt>
      <trkpt lat="45.48956" lon="6.61937">
        <ele>2377.48</ele>
        <time>2016-01-24T12:11:00Z</time>
      </trkpt>
      <trkpt lat="45.48954" lon="6.6193">
        <ele>2374.11</ele>
        <time>2016-01-24T12:11:14Z</time>
      </trkpt>
      <trkpt lat="45.48954" lon="6.61929">
        <ele>2375.55</ele>
        <time>2016-01-24T12:11:15Z</time>
      </trkpt>
      <trkpt lat="45.4896" lon="6.61925">
        <ele>2372.19</ele>
        <time>2016-01-24T12:11:17Z</time>
      </trkpt>
      <trkpt lat="45.48964" lon="6.61923">
        <ele>2369.79</ele>
        <time>2016-01-24T12:11:21Z</time>
      </trkpt>
      <trkpt lat="45.48967" lon="6.6192">
        <ele>2363.54</ele>
        <time>2016-01-24T12:11:23Z</time>
      </trkpt>
      <trkpt lat="45.48968" lon="6.61916">
        <ele>2370.27</ele>
        <time>2016-01-24T12:11:24Z</time>
      </trkpt>
      <trkpt lat="45.48966" lon="6.61914">
        <ele>2364.98</ele>
        <time>2016-01-24T12:11:25Z</time>
      </trkpt>
      <trkpt lat="45.48964" lon="6.61912">
        <ele>2364.02</ele>
        <time>2016-01-24T12:11:27Z</time>
      </trkpt>
      <trkpt lat="45.48961" lon="6.61911">
        <ele>2362.58</ele>
        <time>2016-01-24T12:11:35Z</time>
      </trkpt>
      <trkpt lat="45.48962" lon="6.61908">
        <ele>2359.69</ele>
        <time>2016-01-24T12:11:37Z</time>
      </trkpt>
      <trkpt lat="45.48966" lon="6.61903">
        <ele>2351.04</ele>
        <time>2016-01-24T12:11:39Z</time>
      </trkpt>
      <trkpt lat="45.48968" lon="6.61901">
        <ele>2365.46</ele>
        <time>2016-01-24T12:11:40Z</time>
      </trkpt>
      <trkpt lat="45.48968" lon="6.61898">
        <ele>2353.44</ele>
        <time>2016-01-24T12:11:41Z</time>
      </trkpt>
      <trkpt lat="45.48964" lon="6.61894">
        <ele>2351.52</ele>
        <time>2016-01-24T12:11:43Z</time>
      </trkpt>
      <trkpt lat="45.48948" lon="6.61879">
        <ele>2347.2</ele>
        <time>2016-01-24T12:11:48Z</time>
      </trkpt>
      <trkpt lat="45.48931" lon="6.61867">
        <ele>2343.35</ele>
        <time>2016-01-24T12:11:53Z</time>
      </trkpt>
      <trkpt lat="45.48925" lon="6.61863">
        <ele>2342.39</ele>
        <time>2016-01-24T12:11:55Z</time>
      </trkpt>
      <trkpt lat="45.48906" lon="6.61851">
        <ele>2339.51</ele>
        <time>2016-01-24T12:12:01Z</time>
      </trkpt>
      <trkpt lat="45.48892" lon="6.61842">
        <ele>2336.62</ele>
        <time>2016-01-24T12:12:05Z</time>
      </trkpt>
      <trkpt lat="45.48882" lon="6.61833">
        <ele>2333.74</ele>
        <time>2016-01-24T12:12:11Z</time>
      </trkpt>
      <trkpt lat="45.48875" lon="6.61828">
        <ele>2332.3</ele>
        <time>2016-01-24T12:12:14Z</time>
      </trkpt>
      <trkpt lat="45.48861" lon="6.61805">
        <ele>2327.01</ele>
        <time>2016-01-24T12:12:18Z</time>
      </trkpt>
      <trkpt lat="45.48861" lon="6.61799">
        <ele>2323.16</ele>
        <time>2016-01-24T12:12:19Z</time>
      </trkpt>
      <trkpt lat="45.4887" lon="6.61776">
        <ele>2319.8</ele>
        <time>2016-01-24T12:12:22Z</time>
      </trkpt>
      <trkpt lat="45.48874" lon="6.61768">
        <ele>2314.03</ele>
        <time>2016-01-24T12:12:23Z</time>
      </trkpt>
      <trkpt lat="45.48879" lon="6.6175">
        <ele>2308.74</ele>
        <time>2016-01-24T12:12:25Z</time>
      </trkpt>
      <trkpt lat="45.4888" lon="6.61743">
        <ele>2308.74</ele>
        <time>2016-01-24T12:12:26Z</time>
      </trkpt>
      <trkpt lat="45.48882" lon="6.61731">
        <ele>2304.9</ele>
        <time>2016-01-24T12:12:29Z</time>
      </trkpt>
      <trkpt lat="45.48881" lon="6.6173">
        <ele>2305.38</ele>
        <time>2016-01-24T12:12:30Z</time>
      </trkpt>
      <trkpt lat="45.48881" lon="6.61733">
        <ele>2305.38</ele>
        <time>2016-01-24T12:12:44Z</time>
      </trkpt>
      <trkpt lat="45.48879" lon="6.61729">
        <ele>2305.38</ele>
        <time>2016-01-24T12:13:26Z</time>
      </trkpt>
      <trkpt lat="45.4888" lon="6.6173">
        <ele>2304.9</ele>
        <time>2016-01-24T12:13:53Z</time>
      </trkpt>
      <trkpt lat="45.48879" lon="6.61729">
        <ele>2304.9</ele>
        <time>2016-01-24T12:14:14Z</time>
      </trkpt>
      <trkpt lat="45.48879" lon="6.61732">
        <ele>2305.86</ele>
        <time>2016-01-24T12:14:36Z</time>
      </trkpt>
      <trkpt lat="45.48879" lon="6.61735">
        <ele>2305.86</ele>
        <time>2016-01-24T12:15:02Z</time>
      </trkpt>
      <trkpt lat="45.48879" lon="6.61737">
        <ele>2305.86</ele>
        <time>2016-01-24T12:15:23Z</time>
      </trkpt>
      <trkpt lat="45.48879" lon="6.61736">
        <ele>2305.86</ele>
        <time>2016-01-24T12:15:39Z</time>
      </trkpt>
      <trkpt lat="45.4888" lon="6.61736">
        <ele>2305.86</ele>
        <time>2016-01-24T12:15:54Z</time>
      </trkpt>
      <trkpt lat="45.4888" lon="6.61735">
        <ele>2305.86</ele>
        <time>2016-01-24T12:16:18Z</time>
      </trkpt>
      <trkpt lat="45.4888" lon="6.61736">
        <ele>2305.86</ele>
        <time>2016-01-24T12:16:42Z</time>
      </trkpt>
      <trkpt lat="45.48881" lon="6.61735">
        <ele>2305.86</ele>
        <time>2016-01-24T12:17:09Z</time>
      </trkpt>
      <trkpt lat="45.4888" lon="6.61735">
        <ele>2305.86</ele>
        <time>2016-01-24T12:17:31Z</time>
      </trkpt>
      <trkpt lat="45.48879" lon="6.61735">
        <ele>2305.86</ele>
        <time>2016-01-24T12:17:47Z</time>
      </trkpt>
      <trkpt lat="45.4888" lon="6.61733">
        <ele>2305.86</ele>
        <time>2016-01-24T12:18:02Z</time>
      </trkpt>
      <trkpt lat="45.48881" lon="6.61732">
        <ele>2305.86</ele>
        <time>2016-01-24T12:18:22Z</time>
      </trkpt>
      <trkpt lat="45.48881" lon="6.61731">
        <ele>2304.9</ele>
        <time>2016-01-24T12:18:43Z</time>
      </trkpt>
      <trkpt lat="45.48881" lon="6.61732">
        <ele>2305.86</ele>
        <time>2016-01-24T12:19:04Z</time>
      </trkpt>
      <trkpt lat="45.48885" lon="6.6172">
        <ele>2302.49</ele>
        <time>2016-01-24T12:19:08Z</time>
      </trkpt>
      <trkpt lat="45.48889" lon="6.61713">
        <ele>2299.13</ele>
        <time>2016-01-24T12:19:09Z</time>
      </trkpt>
      <trkpt lat="45.48893" lon="6.61706">
        <ele>2296.73</ele>
        <time>2016-01-24T12:19:10Z</time>
      </trkpt>
      <trkpt lat="45.48901" lon="6.6169">
        <ele>2290.96</ele>
        <time>2016-01-24T12:19:12Z</time>
      </trkpt>
      <trkpt lat="45.48908" lon="6.61672">
        <ele>2284.23</ele>
        <time>2016-01-24T12:19:14Z</time>
      </trkpt>
      <trkpt lat="45.48912" lon="6.61663">
        <ele>2281.35</ele>
        <time>2016-01-24T12:19:15Z</time>
      </trkpt>
      <trkpt lat="45.48916" lon="6.61655">
        <ele>2276.54</ele>
        <time>2016-01-24T12:19:16Z</time>
      </trkpt>
      <trkpt lat="45.48917" lon="6.61647">
        <ele>2277.98</ele>
        <time>2016-01-24T12:19:17Z</time>
      </trkpt>
      <trkpt lat="45.48915" lon="6.6164">
        <ele>2274.62</ele>
        <time>2016-01-24T12:19:18Z</time>
      </trkpt>
      <trkpt lat="45.48911" lon="6.61623">
        <ele>2273.17</ele>
        <time>2016-01-24T12:19:21Z</time>
      </trkpt>
      <trkpt lat="45.4891" lon="6.61623">
        <ele>2272.21</ele>
        <time>2016-01-24T12:19:27Z</time>
      </trkpt>
      <trkpt lat="45.48907" lon="6.61623">
        <ele>2273.17</ele>
        <time>2016-01-24T12:19:46Z</time>
      </trkpt>
      <trkpt lat="45.48906" lon="6.61623">
        <ele>2271.25</ele>
        <time>2016-01-24T12:20:05Z</time>
      </trkpt>
      <trkpt lat="45.48907" lon="6.61623">
        <ele>2273.17</ele>
        <time>2016-01-24T12:20:11Z</time>
      </trkpt>
      <trkpt lat="45.48907" lon="6.61623">
        <ele>2273.17</ele>
        <time>2016-01-24T12:20:17Z</time>
      </trkpt>
      <trkpt lat="45.48915" lon="6.61613">
        <ele>2267.89</ele>
        <time>2016-01-24T12:20:20Z</time>
      </trkpt>
      <trkpt lat="45.48924" lon="6.61595">
        <ele>2261.64</ele>
        <time>2016-01-24T12:20:23Z</time>
      </trkpt>
      <trkpt lat="45.48928" lon="6.61589">
        <ele>2257.79</ele>
        <time>2016-01-24T12:20:24Z</time>
      </trkpt>
      <trkpt lat="45.48934" lon="6.61574">
        <ele>2252.99</ele>
        <time>2016-01-24T12:20:26Z</time>
      </trkpt>
      <trkpt lat="45.4894" lon="6.6157">
        <ele>2246.74</ele>
        <time>2016-01-24T12:20:27Z</time>
      </trkpt>
      <trkpt lat="45.48948" lon="6.61568">
        <ele>2241.93</ele>
        <time>2016-01-24T12:20:28Z</time>
      </trkpt>
      <trkpt lat="45.48954" lon="6.61562">
        <ele>2252.51</ele>
        <time>2016-01-24T12:20:29Z</time>
      </trkpt>
      <trkpt lat="45.48955" lon="6.61554">
        <ele>2240.49</ele>
        <time>2016-01-24T12:20:30Z</time>
      </trkpt>
      <trkpt lat="45.48951" lon="6.61546">
        <ele>2236.64</ele>
        <time>2016-01-24T12:20:31Z</time>
      </trkpt>
      <trkpt lat="45.48951" lon="6.61528">
        <ele>2229.92</ele>
        <time>2016-01-24T12:20:33Z</time>
      </trkpt>
      <trkpt lat="45.48955" lon="6.61521">
        <ele>2229.92</ele>
        <time>2016-01-24T12:20:34Z</time>
      </trkpt>
      <trkpt lat="45.48962" lon="6.61516">
        <ele>2226.07</ele>
        <time>2016-01-24T12:20:36Z</time>
      </trkpt>
      <trkpt lat="45.48965" lon="6.61512">
        <ele>2226.07</ele>
        <time>2016-01-24T12:20:37Z</time>
      </trkpt>
      <trkpt lat="45.48966" lon="6.61505">
        <ele>2222.71</ele>
        <time>2016-01-24T12:20:38Z</time>
      </trkpt>
      <trkpt lat="45.48968" lon="6.61498">
        <ele>2216.46</ele>
        <time>2016-01-24T12:20:39Z</time>
      </trkpt>
      <trkpt lat="45.48971" lon="6.61491">
        <ele>2223.67</ele>
        <time>2016-01-24T12:20:40Z</time>
      </trkpt>
      <trkpt lat="45.48972" lon="6.61484">
        <ele>2216.46</ele>
        <time>2016-01-24T12:20:41Z</time>
      </trkpt>
      <trkpt lat="45.48974" lon="6.61477">
        <ele>2213.09</ele>
        <time>2016-01-24T12:20:42Z</time>
      </trkpt>
      <trkpt lat="45.48974" lon="6.6147">
        <ele>2214.53</ele>
        <time>2016-01-24T12:20:43Z</time>
      </trkpt>
      <trkpt lat="45.48972" lon="6.61465">
        <ele>2211.17</ele>
        <time>2016-01-24T12:20:44Z</time>
      </trkpt>
      <trkpt lat="45.48971" lon="6.61459">
        <ele>2206.84</ele>
        <time>2016-01-24T12:20:45Z</time>
      </trkpt>
      <trkpt lat="45.48971" lon="6.61432">
        <ele>2195.79</ele>
        <time>2016-01-24T12:20:49Z</time>
      </trkpt>
      <trkpt lat="45.48973" lon="6.61427">
        <ele>2204.44</ele>
        <time>2016-01-24T12:20:50Z</time>
      </trkpt>
      <trkpt lat="45.48972" lon="6.61425">
        <ele>2197.23</ele>
        <time>2016-01-24T12:20:51Z</time>
      </trkpt>
      <trkpt lat="45.48971" lon="6.61424">
        <ele>2196.75</ele>
        <time>2016-01-24T12:20:53Z</time>
      </trkpt>
      <trkpt lat="45.48969" lon="6.61425">
        <ele>2198.19</ele>
        <time>2016-01-24T12:20:59Z</time>
      </trkpt>
      <trkpt lat="45.48968" lon="6.61425">
        <ele>2197.71</ele>
        <time>2016-01-24T12:21:19Z</time>
      </trkpt>
      <trkpt lat="45.48964" lon="6.61429">
        <ele>2197.71</ele>
        <time>2016-01-24T12:21:42Z</time>
      </trkpt>
      <trkpt lat="45.48965" lon="6.61427">
        <ele>2197.71</ele>
        <time>2016-01-24T12:22:08Z</time>
      </trkpt>
      <trkpt lat="45.48967" lon="6.61427">
        <ele>2197.71</ele>
        <time>2016-01-24T12:22:12Z</time>
      </trkpt>
      <trkpt lat="45.4897" lon="6.61421">
        <ele>2194.83</ele>
        <time>2016-01-24T12:22:15Z</time>
      </trkpt>
      <trkpt lat="45.48971" lon="6.61422">
        <ele>2194.35</ele>
        <time>2016-01-24T12:22:33Z</time>
      </trkpt>
      <trkpt lat="45.48971" lon="6.6142">
        <ele>2194.35</ele>
        <time>2016-01-24T12:23:15Z</time>
      </trkpt>
      <trkpt lat="45.48972" lon="6.6142">
        <ele>2194.83</ele>
        <time>2016-01-24T12:23:25Z</time>
      </trkpt>
      <trkpt lat="45.48975" lon="6.61416">
        <ele>2192.42</ele>
        <time>2016-01-24T12:23:27Z</time>
      </trkpt>
      <trkpt lat="45.48973" lon="6.6141">
        <ele>2189.06</ele>
        <time>2016-01-24T12:23:29Z</time>
      </trkpt>
      <trkpt lat="45.48972" lon="6.61408">
        <ele>2187.62</ele>
        <time>2016-01-24T12:23:30Z</time>
      </trkpt>
      <trkpt lat="45.48975" lon="6.61395">
        <ele>2181.37</ele>
        <time>2016-01-24T12:23:34Z</time>
      </trkpt>
      <trkpt lat="45.48975" lon="6.61385">
        <ele>2175.12</ele>
        <time>2016-01-24T12:23:36Z</time>
      </trkpt>
      <trkpt lat="45.48974" lon="6.61372">
        <ele>2161.66</ele>
        <time>2016-01-24T12:23:38Z</time>
      </trkpt>
      <trkpt lat="45.48975" lon="6.61363">
        <ele>2171.27</ele>
        <time>2016-01-24T12:23:39Z</time>
      </trkpt>
      <trkpt lat="45.48975" lon="6.61353">
        <ele>2161.18</ele>
        <time>2016-01-24T12:23:40Z</time>
      </trkpt>
      <trkpt lat="45.48978" lon="6.61332">
        <ele>2154.93</ele>
        <time>2016-01-24T12:23:42Z</time>
      </trkpt>
      <trkpt lat="45.48979" lon="6.61325">
        <ele>2154.93</ele>
        <time>2016-01-24T12:23:43Z</time>
      </trkpt>
      <trkpt lat="45.48981" lon="6.61313">
        <ele>2149.65</ele>
        <time>2016-01-24T12:23:44Z</time>
      </trkpt>
      <trkpt lat="45.48982" lon="6.61303">
        <ele>2149.65</ele>
        <time>2016-01-24T12:23:45Z</time>
      </trkpt>
      <trkpt lat="45.48982" lon="6.61291">
        <ele>2143.88</ele>
        <time>2016-01-24T12:23:46Z</time>
      </trkpt>
      <trkpt lat="45.48986" lon="6.61277">
        <ele>2136.19</ele>
        <time>2016-01-24T12:23:47Z</time>
      </trkpt>
      <trkpt lat="45.4899" lon="6.61264">
        <ele>2140.99</ele>
        <time>2016-01-24T12:23:48Z</time>
      </trkpt>
      <trkpt lat="45.48993" lon="6.6125">
        <ele>2130.9</ele>
        <time>2016-01-24T12:23:49Z</time>
      </trkpt>
      <trkpt lat="45.48998" lon="6.61229">
        <ele>2135.23</ele>
        <time>2016-01-24T12:23:53Z</time>
      </trkpt>
      <trkpt lat="45.48999" lon="6.61235">
        <ele>2133.78</ele>
        <time>2016-01-24T12:24:06Z</time>
      </trkpt>
      <trkpt lat="45.49005" lon="6.61236">
        <ele>2133.78</ele>
        <time>2016-01-24T12:24:35Z</time>
      </trkpt>
      <trkpt lat="45.49005" lon="6.61235">
        <ele>2133.78</ele>
        <time>2016-01-24T12:24:59Z</time>
      </trkpt>
      <trkpt lat="45.48998" lon="6.61224">
        <ele>2132.34</ele>
        <time>2016-01-24T12:25:03Z</time>
      </trkpt>
      <trkpt lat="45.48973" lon="6.6122">
        <ele>2127.05</ele>
        <time>2016-01-24T12:25:08Z</time>
      </trkpt>
      <trkpt lat="45.4896" lon="6.61217">
        <ele>2123.69</ele>
        <time>2016-01-24T12:25:10Z</time>
      </trkpt>
      <trkpt lat="45.48953" lon="6.61215">
        <ele>2122.73</ele>
        <time>2016-01-24T12:25:11Z</time>
      </trkpt>
      <trkpt lat="45.48947" lon="6.61213">
        <ele>2122.25</ele>
        <time>2016-01-24T12:25:12Z</time>
      </trkpt>
      <trkpt lat="45.48944" lon="6.61209">
        <ele>2120.32</ele>
        <time>2016-01-24T12:25:13Z</time>
      </trkpt>
      <trkpt lat="45.48943" lon="6.61202">
        <ele>2119.84</ele>
        <time>2016-01-24T12:25:14Z</time>
      </trkpt>
      <trkpt lat="45.48943" lon="6.61196">
        <ele>2116.48</ele>
        <time>2016-01-24T12:25:15Z</time>
      </trkpt>
      <trkpt lat="45.4894" lon="6.61189">
        <ele>2114.08</ele>
        <time>2016-01-24T12:25:16Z</time>
      </trkpt>
      <trkpt lat="45.48938" lon="6.61181">
        <ele>2113.12</ele>
        <time>2016-01-24T12:25:17Z</time>
      </trkpt>
      <trkpt lat="45.48941" lon="6.61174">
        <ele>2110.71</ele>
        <time>2016-01-24T12:25:18Z</time>
      </trkpt>
      <trkpt lat="45.48947" lon="6.6117">
        <ele>2108.79</ele>
        <time>2016-01-24T12:25:19Z</time>
      </trkpt>
      <trkpt lat="45.48951" lon="6.61169">
        <ele>2107.35</ele>
        <time>2016-01-24T12:25:20Z</time>
      </trkpt>
      <trkpt lat="45.48955" lon="6.6117">
        <ele>2107.35</ele>
        <time>2016-01-24T12:25:21Z</time>
      </trkpt>
      <trkpt lat="45.48959" lon="6.61169">
        <ele>2104.46</ele>
        <time>2016-01-24T12:25:22Z</time>
      </trkpt>
      <trkpt lat="45.48962" lon="6.61168">
        <ele>2105.91</ele>
        <time>2016-01-24T12:25:23Z</time>
      </trkpt>
      <trkpt lat="45.48962" lon="6.61167">
        <ele>2103.02</ele>
        <time>2016-01-24T12:25:24Z</time>
      </trkpt>
      <trkpt lat="45.4896" lon="6.61164">
        <ele>2103.02</ele>
        <time>2016-01-24T12:25:25Z</time>
      </trkpt>
      <trkpt lat="45.48959" lon="6.61159">
        <ele>2101.1</ele>
        <time>2016-01-24T12:25:26Z</time>
      </trkpt>
      <trkpt lat="45.4896" lon="6.6115">
        <ele>2097.73</ele>
        <time>2016-01-24T12:25:27Z</time>
      </trkpt>
      <trkpt lat="45.48966" lon="6.61125">
        <ele>2091.49</ele>
        <time>2016-01-24T12:25:29Z</time>
      </trkpt>
      <trkpt lat="45.48982" lon="6.61068">
        <ele>2084.76</ele>
        <time>2016-01-24T12:25:33Z</time>
      </trkpt>
      <trkpt lat="45.48985" lon="6.61052">
        <ele>2083.79</ele>
        <time>2016-01-24T12:25:34Z</time>
      </trkpt>
      <trkpt lat="45.48987" lon="6.61037">
        <ele>2081.87</ele>
        <time>2016-01-24T12:25:35Z</time>
      </trkpt>
      <trkpt lat="45.48988" lon="6.61021">
        <ele>2081.87</ele>
        <time>2016-01-24T12:25:36Z</time>
      </trkpt>
      <trkpt lat="45.48989" lon="6.61007">
        <ele>2081.87</ele>
        <time>2016-01-24T12:25:37Z</time>
      </trkpt>
      <trkpt lat="45.4899" lon="6.60997">
        <ele>2081.87</ele>
        <time>2016-01-24T12:25:38Z</time>
      </trkpt>
      <trkpt lat="45.48992" lon="6.60988">
        <ele>2081.39</ele>
        <time>2016-01-24T12:25:39Z</time>
      </trkpt>
      <trkpt lat="45.48998" lon="6.60961">
        <ele>2078.99</ele>
        <time>2016-01-24T12:25:42Z</time>
      </trkpt>
      <trkpt lat="45.49005" lon="6.60926">
        <ele>2075.14</ele>
        <time>2016-01-24T12:25:46Z</time>
      </trkpt>
      <trkpt lat="45.49009" lon="6.6091">
        <ele>2074.66</ele>
        <time>2016-01-24T12:25:48Z</time>
      </trkpt>
      <trkpt lat="45.49022" lon="6.6088">
        <ele>2071.3</ele>
        <time>2016-01-24T12:25:52Z</time>
      </trkpt>
      <trkpt lat="45.49035" lon="6.60847">
        <ele>2068.41</ele>
        <time>2016-01-24T12:25:57Z</time>
      </trkpt>
      <trkpt lat="45.49036" lon="6.60841">
        <ele>2068.41</ele>
        <time>2016-01-24T12:25:58Z</time>
      </trkpt>
      <trkpt lat="45.49046" lon="6.608">
        <ele>2064.57</ele>
        <time>2016-01-24T12:26:06Z</time>
      </trkpt>
      <trkpt lat="45.4905" lon="6.60787">
        <ele>2062.65</ele>
        <time>2016-01-24T12:26:08Z</time>
      </trkpt>
      <trkpt lat="45.49054" lon="6.60779">
        <ele>2061.2</ele>
        <time>2016-01-24T12:26:09Z</time>
      </trkpt>
      <trkpt lat="45.4906" lon="6.60772">
        <ele>2059.28</ele>
        <time>2016-01-24T12:26:10Z</time>
      </trkpt>
      <trkpt lat="45.49068" lon="6.60766">
        <ele>2055.92</ele>
        <time>2016-01-24T12:26:11Z</time>
      </trkpt>
      <trkpt lat="45.49076" lon="6.6076">
        <ele>2054.96</ele>
        <time>2016-01-24T12:26:12Z</time>
      </trkpt>
      <trkpt lat="45.49093" lon="6.60741">
        <ele>2054.47</ele>
        <time>2016-01-24T12:26:15Z</time>
      </trkpt>
      <trkpt lat="45.49097" lon="6.60733">
        <ele>2051.59</ele>
        <time>2016-01-24T12:26:16Z</time>
      </trkpt>
      <trkpt lat="45.49112" lon="6.60703">
        <ele>2050.15</ele>
        <time>2016-01-24T12:26:20Z</time>
      </trkpt>
      <trkpt lat="45.49114" lon="6.60695">
        <ele>2048.71</ele>
        <time>2016-01-24T12:26:21Z</time>
      </trkpt>
      <trkpt lat="45.49116" lon="6.60687">
        <ele>2047.75</ele>
        <time>2016-01-24T12:26:22Z</time>
      </trkpt>
      <trkpt lat="45.49118" lon="6.60679">
        <ele>2047.75</ele>
        <time>2016-01-24T12:26:23Z</time>
      </trkpt>
      <trkpt lat="45.49121" lon="6.60663">
        <ele>2046.78</ele>
        <time>2016-01-24T12:26:25Z</time>
      </trkpt>
      <trkpt lat="45.49124" lon="6.60658">
        <ele>2045.34</ele>
        <time>2016-01-24T12:26:26Z</time>
      </trkpt>
      <trkpt lat="45.49125" lon="6.60658">
        <ele>2045.34</ele>
        <time>2016-01-24T12:26:31Z</time>
      </trkpt>
      <trkpt lat="45.49127" lon="6.6066">
        <ele>2045.34</ele>
        <time>2016-01-24T12:26:50Z</time>
      </trkpt>
      <trkpt lat="45.49127" lon="6.6066">
        <ele>2045.34</ele>
        <time>2016-01-24T12:27:17Z</time>
      </trkpt>
      <trkpt lat="45.49127" lon="6.60662">
        <ele>2046.3</ele>
        <time>2016-01-24T12:27:39Z</time>
      </trkpt>
      <trkpt lat="45.49128" lon="6.60664">
        <ele>2046.3</ele>
        <time>2016-01-24T12:28:08Z</time>
      </trkpt>
      <trkpt lat="45.49128" lon="6.60663">
        <ele>2046.3</ele>
        <time>2016-01-24T12:28:36Z</time>
      </trkpt>
      <trkpt lat="45.49131" lon="6.60667">
        <ele>2045.82</ele>
        <time>2016-01-24T12:28:50Z</time>
      </trkpt>
      <trkpt lat="45.49133" lon="6.60667">
        <ele>2043.9</ele>
        <time>2016-01-24T12:28:51Z</time>
      </trkpt>
      <trkpt lat="45.49135" lon="6.60666">
        <ele>2043.9</ele>
        <time>2016-01-24T12:28:52Z</time>
      </trkpt>
      <trkpt lat="45.49138" lon="6.60658">
        <ele>2041.98</ele>
        <time>2016-01-24T12:28:54Z</time>
      </trkpt>
      <trkpt lat="45.49139" lon="6.60652">
        <ele>2041.02</ele>
        <time>2016-01-24T12:28:55Z</time>
      </trkpt>
      <trkpt lat="45.4914" lon="6.60646">
        <ele>2039.09</ele>
        <time>2016-01-24T12:28:56Z</time>
      </trkpt>
      <trkpt lat="45.49142" lon="6.6064">
        <ele>2039.09</ele>
        <time>2016-01-24T12:28:57Z</time>
      </trkpt>
      <trkpt lat="45.49151" lon="6.60634">
        <ele>2035.25</ele>
        <time>2016-01-24T12:28:59Z</time>
      </trkpt>
      <trkpt lat="45.49162" lon="6.60629">
        <ele>2029.96</ele>
        <time>2016-01-24T12:29:01Z</time>
      </trkpt>
      <trkpt lat="45.49169" lon="6.60628">
        <ele>2029.96</ele>
        <time>2016-01-24T12:29:02Z</time>
      </trkpt>
      <trkpt lat="45.49174" lon="6.60621">
        <ele>2026.6</ele>
        <time>2016-01-24T12:29:03Z</time>
      </trkpt>
      <trkpt lat="45.4918" lon="6.60602">
        <ele>2022.27</ele>
        <time>2016-01-24T12:29:05Z</time>
      </trkpt>
      <trkpt lat="45.4919" lon="6.60589">
        <ele>2017.46</ele>
        <time>2016-01-24T12:29:07Z</time>
      </trkpt>
      <trkpt lat="45.49199" lon="6.606">
        <ele>2015.06</ele>
        <time>2016-01-24T12:29:09Z</time>
      </trkpt>
      <trkpt lat="45.49202" lon="6.60616">
        <ele>2014.1</ele>
        <time>2016-01-24T12:29:11Z</time>
      </trkpt>
      <trkpt lat="45.49204" lon="6.60629">
        <ele>2013.14</ele>
        <time>2016-01-24T12:29:15Z</time>
      </trkpt>
      <trkpt lat="45.49207" lon="6.60624">
        <ele>2011.7</ele>
        <time>2016-01-24T12:29:18Z</time>
      </trkpt>
      <trkpt lat="45.49208" lon="6.6062">
        <ele>2011.7</ele>
        <time>2016-01-24T12:29:19Z</time>
      </trkpt>
      <trkpt lat="45.49215" lon="6.60609">
        <ele>2008.33</ele>
        <time>2016-01-24T12:29:22Z</time>
      </trkpt>
      <trkpt lat="45.4922" lon="6.60611">
        <ele>2007.37</ele>
        <time>2016-01-24T12:29:24Z</time>
      </trkpt>
      <trkpt lat="45.49221" lon="6.60614">
        <ele>2003.52</ele>
        <time>2016-01-24T12:29:25Z</time>
      </trkpt>
      <trkpt lat="45.49231" lon="6.60616">
        <ele>1997.76</ele>
        <time>2016-01-24T12:29:29Z</time>
      </trkpt>
      <trkpt lat="45.49234" lon="6.60618">
        <ele>1999.2</ele>
        <time>2016-01-24T12:29:30Z</time>
      </trkpt>
      <trkpt lat="45.49241" lon="6.6062">
        <ele>1994.39</ele>
        <time>2016-01-24T12:29:32Z</time>
      </trkpt>
      <trkpt lat="45.49246" lon="6.60617">
        <ele>1993.43</ele>
        <time>2016-01-24T12:29:34Z</time>
      </trkpt>
      <trkpt lat="45.49249" lon="6.60618">
        <ele>1990.55</ele>
        <time>2016-01-24T12:29:35Z</time>
      </trkpt>
      <trkpt lat="45.49251" lon="6.60619">
        <ele>1994.39</ele>
        <time>2016-01-24T12:29:36Z</time>
      </trkpt>
      <trkpt lat="45.49252" lon="6.60619">
        <ele>1990.55</ele>
        <time>2016-01-24T12:29:37Z</time>
      </trkpt>
      <trkpt lat="45.49256" lon="6.60613">
        <ele>1985.26</ele>
        <time>2016-01-24T12:29:39Z</time>
      </trkpt>
      <trkpt lat="45.49259" lon="6.60611">
        <ele>1987.66</ele>
        <time>2016-01-24T12:29:40Z</time>
      </trkpt>
      <trkpt lat="45.49264" lon="6.60607">
        <ele>1978.53</ele>
        <time>2016-01-24T12:29:42Z</time>
      </trkpt>
      <trkpt lat="45.49271" lon="6.60604">
        <ele>1979.49</ele>
        <time>2016-01-24T12:29:44Z</time>
      </trkpt>
      <trkpt lat="45.49277" lon="6.60596">
        <ele>1974.69</ele>
        <time>2016-01-24T12:29:46Z</time>
      </trkpt>
      <trkpt lat="45.49285" lon="6.60602">
        <ele>1972.28</ele>
        <time>2016-01-24T12:29:48Z</time>
      </trkpt>
      <trkpt lat="45.49288" lon="6.60606">
        <ele>1972.28</ele>
        <time>2016-01-24T12:29:49Z</time>
      </trkpt>
      <trkpt lat="45.49299" lon="6.60611">
        <ele>1966.99</ele>
        <time>2016-01-24T12:29:52Z</time>
      </trkpt>
      <trkpt lat="45.49302" lon="6.60598">
        <ele>1965.55</ele>
        <time>2016-01-24T12:29:56Z</time>
      </trkpt>
      <trkpt lat="45.49305" lon="6.60587">
        <ele>1963.15</ele>
        <time>2016-01-24T12:29:58Z</time>
      </trkpt>
      <trkpt lat="45.49318" lon="6.60579">
        <ele>1959.78</ele>
        <time>2016-01-24T12:30:02Z</time>
      </trkpt>
      <trkpt lat="45.49322" lon="6.60579">
        <ele>1955.94</ele>
        <time>2016-01-24T12:30:03Z</time>
      </trkpt>
      <trkpt lat="45.49326" lon="6.6057">
        <ele>1952.57</ele>
        <time>2016-01-24T12:30:05Z</time>
      </trkpt>
      <trkpt lat="45.49334" lon="6.60561">
        <ele>1950.65</ele>
        <time>2016-01-24T12:30:07Z</time>
      </trkpt>
      <trkpt lat="45.49343" lon="6.60556">
        <ele>1946.81</ele>
        <time>2016-01-24T12:30:09Z</time>
      </trkpt>
      <trkpt lat="45.49355" lon="6.60564">
        <ele>1942.48</ele>
        <time>2016-01-24T12:30:12Z</time>
      </trkpt>
      <trkpt lat="45.49358" lon="6.60556">
        <ele>1939.12</ele>
        <time>2016-01-24T12:30:14Z</time>
      </trkpt>
      <trkpt lat="45.49373" lon="6.60543">
        <ele>1933.83</ele>
        <time>2016-01-24T12:30:18Z</time>
      </trkpt>
      <trkpt lat="45.49387" lon="6.60537">
        <ele>1930.46</ele>
        <time>2016-01-24T12:30:21Z</time>
      </trkpt>
      <trkpt lat="45.49395" lon="6.6054">
        <ele>1928.54</ele>
        <time>2016-01-24T12:30:23Z</time>
      </trkpt>
      <trkpt lat="45.49403" lon="6.60542">
        <ele>1925.18</ele>
        <time>2016-01-24T12:30:25Z</time>
      </trkpt>
      <trkpt lat="45.49404" lon="6.6054">
        <ele>1925.18</ele>
        <time>2016-01-24T12:30:26Z</time>
      </trkpt>
      <trkpt lat="45.49406" lon="6.60536">
        <ele>1923.74</ele>
        <time>2016-01-24T12:30:30Z</time>
      </trkpt>
      <trkpt lat="45.49414" lon="6.60554">
        <ele>1922.29</ele>
        <time>2016-01-24T12:30:36Z</time>
      </trkpt>
      <trkpt lat="45.49419" lon="6.60564">
        <ele>1920.37</ele>
        <time>2016-01-24T12:30:38Z</time>
      </trkpt>
      <trkpt lat="45.49421" lon="6.60571">
        <ele>1918.93</ele>
        <time>2016-01-24T12:30:44Z</time>
      </trkpt>
      <trkpt lat="45.49421" lon="6.60578">
        <ele>1919.41</ele>
        <time>2016-01-24T12:30:46Z</time>
      </trkpt>
      <trkpt lat="45.4942" lon="6.60578">
        <ele>1918.45</ele>
        <time>2016-01-24T12:30:47Z</time>
      </trkpt>
      <trkpt lat="45.49421" lon="6.60575">
        <ele>1913.16</ele>
        <time>2016-01-24T12:30:49Z</time>
      </trkpt>
      <trkpt lat="45.49421" lon="6.60574">
        <ele>1921.81</ele>
        <time>2016-01-24T12:30:50Z</time>
      </trkpt>
      <trkpt lat="45.49421" lon="6.60575">
        <ele>1916.53</ele>
        <time>2016-01-24T12:30:51Z</time>
      </trkpt>
      <trkpt lat="45.49421" lon="6.60577">
        <ele>1919.89</ele>
        <time>2016-01-24T12:30:56Z</time>
      </trkpt>
      <trkpt lat="45.49423" lon="6.60578">
        <ele>1919.41</ele>
        <time>2016-01-24T12:31:01Z</time>
      </trkpt>
      <trkpt lat="45.49432" lon="6.60579">
        <ele>1914.6</ele>
        <time>2016-01-24T12:31:04Z</time>
      </trkpt>
      <trkpt lat="45.49438" lon="6.60581">
        <ele>1914.6</ele>
        <time>2016-01-24T12:31:05Z</time>
      </trkpt>
      <trkpt lat="45.49444" lon="6.60587">
        <ele>1910.76</ele>
        <time>2016-01-24T12:31:06Z</time>
      </trkpt>
      <trkpt lat="45.49444" lon="6.60611">
        <ele>1907.87</ele>
        <time>2016-01-24T12:31:10Z</time>
      </trkpt>
      <trkpt lat="45.49445" lon="6.60614">
        <ele>1907.87</ele>
        <time>2016-01-24T12:31:11Z</time>
      </trkpt>
      <trkpt lat="45.49452" lon="6.60612">
        <ele>1906.43</ele>
        <time>2016-01-24T12:31:14Z</time>
      </trkpt>
      <trkpt lat="45.49472" lon="6.60608">
        <ele>1903.07</ele>
        <time>2016-01-24T12:31:19Z</time>
      </trkpt>
      <trkpt lat="45.49492" lon="6.60602">
        <ele>1899.7</ele>
        <time>2016-01-24T12:31:23Z</time>
      </trkpt>
      <trkpt lat="45.495" lon="6.60594">
        <ele>1895.86</ele>
        <time>2016-01-24T12:31:25Z</time>
      </trkpt>
      <trkpt lat="45.49511" lon="6.60579">
        <ele>1892.01</ele>
        <time>2016-01-24T12:31:28Z</time>
      </trkpt>
      <trkpt lat="45.49519" lon="6.60567">
        <ele>1887.69</ele>
        <time>2016-01-24T12:31:30Z</time>
      </trkpt>
      <trkpt lat="45.49528" lon="6.60554">
        <ele>1883.36</ele>
        <time>2016-01-24T12:31:32Z</time>
      </trkpt>
      <trkpt lat="45.4953" lon="6.60537">
        <ele>1880.48</ele>
        <time>2016-01-24T12:31:34Z</time>
      </trkpt>
      <trkpt lat="45.49524" lon="6.60535">
        <ele>1880</ele>
        <time>2016-01-24T12:31:39Z</time>
      </trkpt>
      <trkpt lat="45.49523" lon="6.60534">
        <ele>1880</ele>
        <time>2016-01-24T12:31:42Z</time>
      </trkpt>
      <trkpt lat="45.49537" lon="6.60532">
        <ele>1876.63</ele>
        <time>2016-01-24T12:31:46Z</time>
      </trkpt>
      <trkpt lat="45.49542" lon="6.60529">
        <ele>1876.63</ele>
        <time>2016-01-24T12:31:47Z</time>
      </trkpt>
      <trkpt lat="45.49549" lon="6.60515">
        <ele>1873.27</ele>
        <time>2016-01-24T12:31:49Z</time>
      </trkpt>
      <trkpt lat="45.49549" lon="6.60505">
        <ele>1871.34</ele>
        <time>2016-01-24T12:31:50Z</time>
      </trkpt>
      <trkpt lat="45.4955" lon="6.60448">
        <ele>1866.54</ele>
        <time>2016-01-24T12:31:56Z</time>
      </trkpt>
      <trkpt lat="45.49551" lon="6.60439">
        <ele>1866.54</ele>
        <time>2016-01-24T12:31:57Z</time>
      </trkpt>
      <trkpt lat="45.49562" lon="6.60383">
        <ele>1862.21</ele>
        <time>2016-01-24T12:32:05Z</time>
      </trkpt>
      <trkpt lat="45.49574" lon="6.60363">
        <ele>1858.85</ele>
        <time>2016-01-24T12:32:08Z</time>
      </trkpt>
      <trkpt lat="45.49576" lon="6.60353">
        <ele>1857.4</ele>
        <time>2016-01-24T12:32:14Z</time>
      </trkpt>
      <trkpt lat="45.49574" lon="6.60354">
        <ele>1856.92</ele>
        <time>2016-01-24T12:32:36Z</time>
      </trkpt>
      <trkpt lat="45.49574" lon="6.60353">
        <ele>1857.89</ele>
        <time>2016-01-24T12:32:40Z</time>
      </trkpt>
      <trkpt lat="45.49574" lon="6.60352">
        <ele>1856.44</ele>
        <time>2016-01-24T12:32:53Z</time>
      </trkpt>
      <trkpt lat="45.49573" lon="6.60353">
        <ele>1857.4</ele>
        <time>2016-01-24T12:33:18Z</time>
      </trkpt>
      <trkpt lat="45.49563" lon="6.60333">
        <ele>1853.08</ele>
        <time>2016-01-24T12:33:23Z</time>
      </trkpt>
      <trkpt lat="45.4956" lon="6.60327">
        <ele>1853.08</ele>
        <time>2016-01-24T12:33:24Z</time>
      </trkpt>
      <trkpt lat="45.49555" lon="6.6032">
        <ele>1851.16</ele>
        <time>2016-01-24T12:33:25Z</time>
      </trkpt>
      <trkpt lat="45.49552" lon="6.60314">
        <ele>1851.16</ele>
        <time>2016-01-24T12:33:26Z</time>
      </trkpt>
      <trkpt lat="45.4955" lon="6.60308">
        <ele>1851.16</ele>
        <time>2016-01-24T12:33:27Z</time>
      </trkpt>
      <trkpt lat="45.49549" lon="6.60302">
        <ele>1851.16</ele>
        <time>2016-01-24T12:33:28Z</time>
      </trkpt>
      <trkpt lat="45.49549" lon="6.60296">
        <ele>1850.68</ele>
        <time>2016-01-24T12:33:29Z</time>
      </trkpt>
      <trkpt lat="45.49548" lon="6.6027">
        <ele>1848.27</ele>
        <time>2016-01-24T12:33:32Z</time>
      </trkpt>
      <trkpt lat="45.49549" lon="6.60254">
        <ele>1847.79</ele>
        <time>2016-01-24T12:33:34Z</time>
      </trkpt>
      <trkpt lat="45.4955" lon="6.60248">
        <ele>1847.79</ele>
        <time>2016-01-24T12:33:35Z</time>
      </trkpt>
      <trkpt lat="45.49551" lon="6.60244">
        <ele>1847.79</ele>
        <time>2016-01-24T12:33:36Z</time>
      </trkpt>
      <trkpt lat="45.49552" lon="6.60239">
        <ele>1847.31</ele>
        <time>2016-01-24T12:33:37Z</time>
      </trkpt>
      <trkpt lat="45.49554" lon="6.60233">
        <ele>1846.35</ele>
        <time>2016-01-24T12:33:38Z</time>
      </trkpt>
      <trkpt lat="45.49559" lon="6.60217">
        <ele>1842.5</ele>
        <time>2016-01-24T12:33:40Z</time>
      </trkpt>
      <trkpt lat="45.4956" lon="6.60207">
        <ele>1842.5</ele>
        <time>2016-01-24T12:33:41Z</time>
      </trkpt>
      <trkpt lat="45.49561" lon="6.60198">
        <ele>1842.5</ele>
        <time>2016-01-24T12:33:42Z</time>
      </trkpt>
      <trkpt lat="45.49561" lon="6.60189">
        <ele>1842.5</ele>
        <time>2016-01-24T12:33:43Z</time>
      </trkpt>
      <trkpt lat="45.49562" lon="6.60182">
        <ele>1841.54</ele>
        <time>2016-01-24T12:33:44Z</time>
      </trkpt>
      <trkpt lat="45.49563" lon="6.60175">
        <ele>1841.54</ele>
        <time>2016-01-24T12:33:45Z</time>
      </trkpt>
      <trkpt lat="45.49563" lon="6.60163">
        <ele>1838.66</ele>
        <time>2016-01-24T12:33:46Z</time>
      </trkpt>
      <trkpt lat="45.49561" lon="6.60127">
        <ele>1833.85</ele>
        <time>2016-01-24T12:33:50Z</time>
      </trkpt>
      <trkpt lat="45.49567" lon="6.60107">
        <ele>1831.45</ele>
        <time>2016-01-24T12:33:54Z</time>
      </trkpt>
      <trkpt lat="45.49573" lon="6.60095">
        <ele>1825.68</ele>
        <time>2016-01-24T12:33:58Z</time>
      </trkpt>
      <trkpt lat="45.49576" lon="6.60082">
        <ele>1822.32</ele>
        <time>2016-01-24T12:34:00Z</time>
      </trkpt>
      <trkpt lat="45.49578" lon="6.60075">
        <ele>1818.95</ele>
        <time>2016-01-24T12:34:01Z</time>
      </trkpt>
      <trkpt lat="45.4958" lon="6.60069">
        <ele>1820.87</ele>
        <time>2016-01-24T12:34:02Z</time>
      </trkpt>
      <trkpt lat="45.49581" lon="6.60063">
        <ele>1817.51</ele>
        <time>2016-01-24T12:34:03Z</time>
      </trkpt>
      <trkpt lat="45.49582" lon="6.60056">
        <ele>1816.07</ele>
        <time>2016-01-24T12:34:04Z</time>
      </trkpt>
      <trkpt lat="45.49583" lon="6.60039">
        <ele>1813.18</ele>
        <time>2016-01-24T12:34:06Z</time>
      </trkpt>
      <trkpt lat="45.49582" lon="6.60029">
        <ele>1812.22</ele>
        <time>2016-01-24T12:34:07Z</time>
      </trkpt>
      <trkpt lat="45.4958" lon="6.60019">
        <ele>1808.86</ele>
        <time>2016-01-24T12:34:08Z</time>
      </trkpt>
      <trkpt lat="45.49568" lon="6.59986">
        <ele>1805.01</ele>
        <time>2016-01-24T12:34:11Z</time>
      </trkpt>
      <trkpt lat="45.49563" lon="6.59975">
        <ele>1804.05</ele>
        <time>2016-01-24T12:34:12Z</time>
      </trkpt>
      <trkpt lat="45.49556" lon="6.59965">
        <ele>1801.17</ele>
        <time>2016-01-24T12:34:13Z</time>
      </trkpt>
      <trkpt lat="45.4955" lon="6.5996">
        <ele>1801.17</ele>
        <time>2016-01-24T12:34:14Z</time>
      </trkpt>
      <trkpt lat="45.49545" lon="6.59957">
        <ele>1802.13</ele>
        <time>2016-01-24T12:34:15Z</time>
      </trkpt>
      <trkpt lat="45.49539" lon="6.59955">
        <ele>1805.97</ele>
        <time>2016-01-24T12:34:18Z</time>
      </trkpt>
      <trkpt lat="45.4954" lon="6.59955">
        <ele>1804.53</ele>
        <time>2016-01-24T12:34:19Z</time>
      </trkpt>
      <trkpt lat="45.49546" lon="6.59962">
        <ele>1803.09</ele>
        <time>2016-01-24T12:34:34Z</time>
      </trkpt>
      <trkpt lat="45.4955" lon="6.59965">
        <ele>1803.09</ele>
        <time>2016-01-24T12:34:38Z</time>
      </trkpt>
      <trkpt lat="45.49559" lon="6.59968">
        <ele>1801.17</ele>
        <time>2016-01-24T12:34:42Z</time>
      </trkpt>
      <trkpt lat="45.49561" lon="6.59968">
        <ele>1801.17</ele>
        <time>2016-01-24T12:34:43Z</time>
      </trkpt>
      <trkpt lat="45.49563" lon="6.59966">
        <ele>1797.8</ele>
        <time>2016-01-24T12:34:46Z</time>
      </trkpt>
      <trkpt lat="45.49567" lon="6.59972">
        <ele>1793.96</ele>
        <time>2016-01-24T12:34:51Z</time>
      </trkpt>
      <trkpt lat="45.49569" lon="6.59972">
        <ele>1793.96</ele>
        <time>2016-01-24T12:34:52Z</time>
      </trkpt>
      <trkpt lat="45.4957" lon="6.59973">
        <ele>1793</ele>
        <time>2016-01-24T12:34:53Z</time>
      </trkpt>
      <trkpt lat="45.49571" lon="6.59975">
        <ele>1791.07</ele>
        <time>2016-01-24T12:34:54Z</time>
      </trkpt>
      <trkpt lat="45.49573" lon="6.59977">
        <ele>1790.59</ele>
        <time>2016-01-24T12:34:55Z</time>
      </trkpt>
      <trkpt lat="45.49576" lon="6.59985">
        <ele>1787.23</ele>
        <time>2016-01-24T12:34:58Z</time>
      </trkpt>
      <trkpt lat="45.49582" lon="6.5999">
        <ele>1786.75</ele>
        <time>2016-01-24T12:35:00Z</time>
      </trkpt>
      <trkpt lat="45.49613" lon="6.59976">
        <ele>1783.86</ele>
        <time>2016-01-24T12:35:07Z</time>
      </trkpt>
      <trkpt lat="45.4961" lon="6.59959">
        <ele>1781.46</ele>
        <time>2016-01-24T12:35:11Z</time>
      </trkpt>
      <trkpt lat="45.49606" lon="6.59947">
        <ele>1779.54</ele>
        <time>2016-01-24T12:35:14Z</time>
      </trkpt>
      <trkpt lat="45.49603" lon="6.59934">
        <ele>1778.58</ele>
        <time>2016-01-24T12:35:16Z</time>
      </trkpt>
      <trkpt lat="45.49601" lon="6.59928">
        <ele>1776.17</ele>
        <time>2016-01-24T12:35:17Z</time>
      </trkpt>
      <trkpt lat="45.496" lon="6.59922">
        <ele>1776.17</ele>
        <time>2016-01-24T12:35:18Z</time>
      </trkpt>
      <trkpt lat="45.49598" lon="6.59914">
        <ele>1774.73</ele>
        <time>2016-01-24T12:35:19Z</time>
      </trkpt>
      <trkpt lat="45.49595" lon="6.59907">
        <ele>1773.29</ele>
        <time>2016-01-24T12:35:20Z</time>
      </trkpt>
      <trkpt lat="45.49589" lon="6.59901">
        <ele>1770.89</ele>
        <time>2016-01-24T12:35:21Z</time>
      </trkpt>
      <trkpt lat="45.49582" lon="6.59896">
        <ele>1769.92</ele>
        <time>2016-01-24T12:35:22Z</time>
      </trkpt>
      <trkpt lat="45.49574" lon="6.59892">
        <ele>1768.96</ele>
        <time>2016-01-24T12:35:23Z</time>
      </trkpt>
      <trkpt lat="45.49568" lon="6.59886">
        <ele>1767.04</ele>
        <time>2016-01-24T12:35:24Z</time>
      </trkpt>
      <trkpt lat="45.49564" lon="6.59879">
        <ele>1765.6</ele>
        <time>2016-01-24T12:35:25Z</time>
      </trkpt>
      <trkpt lat="45.49561" lon="6.59872">
        <ele>1767.52</ele>
        <time>2016-01-24T12:35:26Z</time>
      </trkpt>
      <trkpt lat="45.49556" lon="6.59867">
        <ele>1764.16</ele>
        <time>2016-01-24T12:35:27Z</time>
      </trkpt>
      <trkpt lat="45.49551" lon="6.59862">
        <ele>1762.71</ele>
        <time>2016-01-24T12:35:28Z</time>
      </trkpt>
      <trkpt lat="45.49545" lon="6.59856">
        <ele>1762.23</ele>
        <time>2016-01-24T12:35:29Z</time>
      </trkpt>
      <trkpt lat="45.49538" lon="6.59849">
        <ele>1760.31</ele>
        <time>2016-01-24T12:35:30Z</time>
      </trkpt>
      <trkpt lat="45.49533" lon="6.59843">
        <ele>1760.31</ele>
        <time>2016-01-24T12:35:31Z</time>
      </trkpt>
      <trkpt lat="45.49513" lon="6.59827">
        <ele>1756.47</ele>
        <time>2016-01-24T12:35:34Z</time>
      </trkpt>
      <trkpt lat="45.49504" lon="6.59823">
        <ele>1759.83</ele>
        <time>2016-01-24T12:35:36Z</time>
      </trkpt>
      <trkpt lat="45.49506" lon="6.5982">
        <ele>1757.91</ele>
        <time>2016-01-24T12:35:37Z</time>
      </trkpt>
      <trkpt lat="45.49503" lon="6.59812">
        <ele>1756.95</ele>
        <time>2016-01-24T12:35:54Z</time>
      </trkpt>
      <trkpt lat="45.49505" lon="6.59811">
        <ele>1757.43</ele>
        <time>2016-01-24T12:36:08Z</time>
      </trkpt>
      <trkpt lat="45.49508" lon="6.5981">
        <ele>1756.95</ele>
        <time>2016-01-24T12:36:29Z</time>
      </trkpt>
      <trkpt lat="45.49509" lon="6.59809">
        <ele>1755.5</ele>
        <time>2016-01-24T12:36:45Z</time>
      </trkpt>
      <trkpt lat="45.49509" lon="6.59808">
        <ele>1755.02</ele>
        <time>2016-01-24T12:37:19Z</time>
      </trkpt>
      <trkpt lat="45.49508" lon="6.5981">
        <ele>1755.02</ele>
        <time>2016-01-24T12:37:52Z</time>
      </trkpt>
      <trkpt lat="45.49506" lon="6.59808">
        <ele>1754.54</ele>
        <time>2016-01-24T12:38:30Z</time>
      </trkpt>
      <trkpt lat="45.49509" lon="6.59809">
        <ele>1754.54</ele>
        <time>2016-01-24T12:39:05Z</time>
      </trkpt>
      <trkpt lat="45.49508" lon="6.5981">
        <ele>1754.06</ele>
        <time>2016-01-24T12:39:28Z</time>
      </trkpt>
      <trkpt lat="45.49506" lon="6.59809">
        <ele>1754.06</ele>
        <time>2016-01-24T12:39:55Z</time>
      </trkpt>
      <trkpt lat="45.49507" lon="6.59808">
        <ele>1754.06</ele>
        <time>2016-01-24T12:40:17Z</time>
      </trkpt>
      <trkpt lat="45.49508" lon="6.59807">
        <ele>1753.58</ele>
        <time>2016-01-24T12:40:39Z</time>
      </trkpt>
      <trkpt lat="45.49508" lon="6.59803">
        <ele>1753.58</ele>
        <time>2016-01-24T12:40:54Z</time>
      </trkpt>
      <trkpt lat="45.49512" lon="6.59786">
        <ele>1749.74</ele>
        <time>2016-01-24T12:40:56Z</time>
      </trkpt>
      <trkpt lat="45.49516" lon="6.59777">
        <ele>1747.81</ele>
        <time>2016-01-24T12:40:57Z</time>
      </trkpt>
      <trkpt lat="45.4952" lon="6.59774">
        <ele>1747.33</ele>
        <time>2016-01-24T12:40:58Z</time>
      </trkpt>
      <trkpt lat="45.49523" lon="6.59774">
        <ele>1748.78</ele>
        <time>2016-01-24T12:40:59Z</time>
      </trkpt>
      <trkpt lat="45.49522" lon="6.59776">
        <ele>1749.26</ele>
        <time>2016-01-24T12:41:02Z</time>
      </trkpt>
      <trkpt lat="45.49515" lon="6.5976">
        <ele>1744.93</ele>
        <time>2016-01-24T12:41:05Z</time>
      </trkpt>
      <trkpt lat="45.49504" lon="6.59756">
        <ele>1741.08</ele>
        <time>2016-01-24T12:41:07Z</time>
      </trkpt>
      <trkpt lat="45.49498" lon="6.59745">
        <ele>1737.72</ele>
        <time>2016-01-24T12:41:09Z</time>
      </trkpt>
      <trkpt lat="45.4949" lon="6.59732">
        <ele>1731.95</ele>
        <time>2016-01-24T12:41:11Z</time>
      </trkpt>
      <trkpt lat="45.49484" lon="6.5972">
        <ele>1728.59</ele>
        <time>2016-01-24T12:41:13Z</time>
      </trkpt>
      <trkpt lat="45.49471" lon="6.59692">
        <ele>1718.97</ele>
        <time>2016-01-24T12:41:17Z</time>
      </trkpt>
      <trkpt lat="45.49462" lon="6.59682">
        <ele>1712.25</ele>
        <time>2016-01-24T12:41:19Z</time>
      </trkpt>
      <trkpt lat="45.49451" lon="6.59664">
        <ele>1715.61</ele>
        <time>2016-01-24T12:41:22Z</time>
      </trkpt>
      <trkpt lat="45.49446" lon="6.59657">
        <ele>1706.48</ele>
        <time>2016-01-24T12:41:23Z</time>
      </trkpt>
      <trkpt lat="45.49439" lon="6.59648">
        <ele>1701.19</ele>
        <time>2016-01-24T12:41:25Z</time>
      </trkpt>
      <trkpt lat="45.49436" lon="6.59642">
        <ele>1696.86</ele>
        <time>2016-01-24T12:41:26Z</time>
      </trkpt>
      <trkpt lat="45.49433" lon="6.59637">
        <ele>1700.71</ele>
        <time>2016-01-24T12:41:27Z</time>
      </trkpt>
      <trkpt lat="45.4943" lon="6.59636">
        <ele>1693.98</ele>
        <time>2016-01-24T12:41:28Z</time>
      </trkpt>
      <trkpt lat="45.49423" lon="6.59627">
        <ele>1690.14</ele>
        <time>2016-01-24T12:41:30Z</time>
      </trkpt>
      <trkpt lat="45.49424" lon="6.59621">
        <ele>1686.77</ele>
        <time>2016-01-24T12:41:31Z</time>
      </trkpt>
      <trkpt lat="45.49434" lon="6.5961">
        <ele>1685.81</ele>
        <time>2016-01-24T12:41:33Z</time>
      </trkpt>
      <trkpt lat="45.49443" lon="6.59594">
        <ele>1683.89</ele>
        <time>2016-01-24T12:41:36Z</time>
      </trkpt>
      <trkpt lat="45.49443" lon="6.59592">
        <ele>1681.96</ele>
        <time>2016-01-24T12:41:37Z</time>
      </trkpt>
      <trkpt lat="45.49434" lon="6.59598">
        <ele>1680.52</ele>
        <time>2016-01-24T12:41:39Z</time>
      </trkpt>
      <trkpt lat="45.49426" lon="6.59609">
        <ele>1679.56</ele>
        <time>2016-01-24T12:41:41Z</time>
      </trkpt>
      <trkpt lat="45.49425" lon="6.59612">
        <ele>1679.56</ele>
        <time>2016-01-24T12:41:42Z</time>
      </trkpt>
      <trkpt lat="45.49416" lon="6.59616">
        <ele>1676.68</ele>
        <time>2016-01-24T12:41:46Z</time>
      </trkpt>
      <trkpt lat="45.49411" lon="6.59619">
        <ele>1675.72</ele>
        <time>2016-01-24T12:41:47Z</time>
      </trkpt>
      <trkpt lat="45.49406" lon="6.59623">
        <ele>1675.72</ele>
        <time>2016-01-24T12:41:48Z</time>
      </trkpt>
      <trkpt lat="45.49398" lon="6.59629">
        <ele>1673.79</ele>
        <time>2016-01-24T12:41:50Z</time>
      </trkpt>
      <trkpt lat="45.49395" lon="6.59627">
        <ele>1673.31</ele>
        <time>2016-01-24T12:41:51Z</time>
      </trkpt>
      <trkpt lat="45.49398" lon="6.59605">
        <ele>1668.99</ele>
        <time>2016-01-24T12:41:54Z</time>
      </trkpt>
      <trkpt lat="45.49399" lon="6.59587">
        <ele>1666.58</ele>
        <time>2016-01-24T12:41:56Z</time>
      </trkpt>
      <trkpt lat="45.49402" lon="6.59574">
        <ele>1665.62</ele>
        <time>2016-01-24T12:41:58Z</time>
      </trkpt>
      <trkpt lat="45.49406" lon="6.59563">
        <ele>1662.26</ele>
        <time>2016-01-24T12:42:00Z</time>
      </trkpt>
      <trkpt lat="45.49407" lon="6.59555">
        <ele>1662.26</ele>
        <time>2016-01-24T12:42:01Z</time>
      </trkpt>
      <trkpt lat="45.49396" lon="6.59549">
        <ele>1656.49</ele>
        <time>2016-01-24T12:42:04Z</time>
      </trkpt>
      <trkpt lat="45.4939" lon="6.59539">
        <ele>1653.6</ele>
        <time>2016-01-24T12:42:06Z</time>
      </trkpt>
      <trkpt lat="45.4938" lon="6.59535">
        <ele>1649.76</ele>
        <time>2016-01-24T12:42:09Z</time>
      </trkpt>
      <trkpt lat="45.49376" lon="6.59538">
        <ele>1649.28</ele>
        <time>2016-01-24T12:42:10Z</time>
      </trkpt>
      <trkpt lat="45.49373" lon="6.5954">
        <ele>1649.76</ele>
        <time>2016-01-24T12:42:11Z</time>
      </trkpt>
      <trkpt lat="45.49363" lon="6.59546">
        <ele>1648.32</ele>
        <time>2016-01-24T12:42:17Z</time>
      </trkpt>
      <trkpt lat="45.49362" lon="6.59546">
        <ele>1648.8</ele>
        <time>2016-01-24T12:42:37Z</time>
      </trkpt>
      <trkpt lat="45.49351" lon="6.59531">
        <ele>1645.91</ele>
        <time>2016-01-24T12:42:40Z</time>
      </trkpt>
      <trkpt lat="45.49349" lon="6.59524">
        <ele>1643.03</ele>
        <time>2016-01-24T12:42:41Z</time>
      </trkpt>
      <trkpt lat="45.49349" lon="6.5951">
        <ele>1642.07</ele>
        <time>2016-01-24T12:42:43Z</time>
      </trkpt>
      <trkpt lat="45.4934" lon="6.59495">
        <ele>1636.78</ele>
        <time>2016-01-24T12:42:46Z</time>
      </trkpt>
      <trkpt lat="45.49341" lon="6.59488">
        <ele>1635.34</ele>
        <time>2016-01-24T12:42:47Z</time>
      </trkpt>
      <trkpt lat="45.49344" lon="6.59472">
        <ele>1632.94</ele>
        <time>2016-01-24T12:42:49Z</time>
      </trkpt>
      <trkpt lat="45.49342" lon="6.59442">
        <ele>1628.13</ele>
        <time>2016-01-24T12:42:53Z</time>
      </trkpt>
      <trkpt lat="45.49345" lon="6.59438">
        <ele>1628.61</ele>
        <time>2016-01-24T12:42:54Z</time>
      </trkpt>
      <trkpt lat="45.49347" lon="6.59436">
        <ele>1627.65</ele>
        <time>2016-01-24T12:42:55Z</time>
      </trkpt>
      <trkpt lat="45.49349" lon="6.59433">
        <ele>1627.65</ele>
        <time>2016-01-24T12:42:56Z</time>
      </trkpt>
      <trkpt lat="45.49351" lon="6.5943">
        <ele>1627.17</ele>
        <time>2016-01-24T12:42:57Z</time>
      </trkpt>
      <trkpt lat="45.49353" lon="6.59429">
        <ele>1627.17</ele>
        <time>2016-01-24T12:42:58Z</time>
      </trkpt>
      <trkpt lat="45.49352" lon="6.59431">
        <ele>1627.17</ele>
        <time>2016-01-24T12:43:11Z</time>
      </trkpt>
      <trkpt lat="45.49353" lon="6.59431">
        <ele>1627.17</ele>
        <time>2016-01-24T12:43:24Z</time>
      </trkpt>
      <trkpt lat="45.49353" lon="6.59427">
        <ele>1626.69</ele>
        <time>2016-01-24T12:43:49Z</time>
      </trkpt>
      <trkpt lat="45.49354" lon="6.59426">
        <ele>1626.69</ele>
        <time>2016-01-24T12:44:13Z</time>
      </trkpt>
      <trkpt lat="45.49355" lon="6.59429">
        <ele>1626.21</ele>
        <time>2016-01-24T12:44:37Z</time>
      </trkpt>
      <trkpt lat="45.49354" lon="6.5943">
        <ele>1626.21</ele>
        <time>2016-01-24T12:44:57Z</time>
      </trkpt>
      <trkpt lat="45.49356" lon="6.59426">
        <ele>1627.17</ele>
        <time>2016-01-24T12:45:17Z</time>
      </trkpt>
      <trkpt lat="45.4935" lon="6.59415">
        <ele>1625.73</ele>
        <time>2016-01-24T12:45:20Z</time>
      </trkpt>
      <trkpt lat="45.49344" lon="6.59413">
        <ele>1621.88</ele>
        <time>2016-01-24T12:45:21Z</time>
      </trkpt>
      <trkpt lat="45.49341" lon="6.59413">
        <ele>1621.88</ele>
        <time>2016-01-24T12:45:22Z</time>
      </trkpt>
      <trkpt lat="45.49336" lon="6.59412">
        <ele>1620.92</ele>
        <time>2016-01-24T12:45:23Z</time>
      </trkpt>
      <trkpt lat="45.49331" lon="6.59403">
        <ele>1619</ele>
        <time>2016-01-24T12:45:25Z</time>
      </trkpt>
      <trkpt lat="45.49336" lon="6.59398">
        <ele>1618.04</ele>
        <time>2016-01-24T12:45:28Z</time>
      </trkpt>
      <trkpt lat="45.49342" lon="6.59394">
        <ele>1616.11</ele>
        <time>2016-01-24T12:45:31Z</time>
      </trkpt>
      <trkpt lat="45.49342" lon="6.59394">
        <ele>1616.11</ele>
        <time>2016-01-24T12:45:32Z</time>
      </trkpt>
      <trkpt lat="45.49348" lon="6.59387">
        <ele>1613.23</ele>
        <time>2016-01-24T12:45:37Z</time>
      </trkpt>
      <trkpt lat="45.49348" lon="6.59387">
        <ele>1613.71</ele>
        <time>2016-01-24T12:45:39Z</time>
      </trkpt>
      <trkpt lat="45.49344" lon="6.59381">
        <ele>1608.42</ele>
        <time>2016-01-24T12:45:42Z</time>
      </trkpt>
      <trkpt lat="45.49343" lon="6.5938">
        <ele>1608.42</ele>
        <time>2016-01-24T12:45:43Z</time>
      </trkpt>
      <trkpt lat="45.49347" lon="6.59374">
        <ele>1606.5</ele>
        <time>2016-01-24T12:45:48Z</time>
      </trkpt>
      <trkpt lat="45.49346" lon="6.5937">
        <ele>1604.1</ele>
        <time>2016-01-24T12:45:50Z</time>
      </trkpt>
      <trkpt lat="45.49346" lon="6.59366">
        <ele>1602.66</ele>
        <time>2016-01-24T12:45:55Z</time>
      </trkpt>
      <trkpt lat="45.49346" lon="6.59365">
        <ele>1601.69</ele>
        <time>2016-01-24T12:45:56Z</time>
      </trkpt>
      <trkpt lat="45.49353" lon="6.5936">
        <ele>1601.21</ele>
        <time>2016-01-24T12:46:03Z</time>
      </trkpt>
      <trkpt lat="45.49357" lon="6.59355">
        <ele>1594</ele>
        <time>2016-01-24T12:46:05Z</time>
      </trkpt>
      <trkpt lat="45.4936" lon="6.59351">
        <ele>1600.73</ele>
        <time>2016-01-24T12:46:06Z</time>
      </trkpt>
      <trkpt lat="45.49364" lon="6.59345">
        <ele>1595.45</ele>
        <time>2016-01-24T12:46:07Z</time>
      </trkpt>
      <trkpt lat="45.4937" lon="6.59334">
        <ele>1596.41</ele>
        <time>2016-01-24T12:46:10Z</time>
      </trkpt>
      <trkpt lat="45.4937" lon="6.59328">
        <ele>1596.89</ele>
        <time>2016-01-24T12:46:12Z</time>
      </trkpt>
      <trkpt lat="45.49367" lon="6.59323">
        <ele>1593.04</ele>
        <time>2016-01-24T12:46:14Z</time>
      </trkpt>
      <trkpt lat="45.49363" lon="6.59322">
        <ele>1592.56</ele>
        <time>2016-01-24T12:46:15Z</time>
      </trkpt>
      <trkpt lat="45.49356" lon="6.59316">
        <ele>1590.16</ele>
        <time>2016-01-24T12:46:17Z</time>
      </trkpt>
      <trkpt lat="45.49355" lon="6.59309">
        <ele>1588.24</ele>
        <time>2016-01-24T12:46:18Z</time>
      </trkpt>
      <trkpt lat="45.49354" lon="6.593">
        <ele>1585.35</ele>
        <time>2016-01-24T12:46:19Z</time>
      </trkpt>
      <trkpt lat="45.49353" lon="6.5929">
        <ele>1584.87</ele>
        <time>2016-01-24T12:46:20Z</time>
      </trkpt>
      <trkpt lat="45.49353" lon="6.59283">
        <ele>1581.99</ele>
        <time>2016-01-24T12:46:21Z</time>
      </trkpt>
      <trkpt lat="45.49352" lon="6.59277">
        <ele>1580.54</ele>
        <time>2016-01-24T12:46:22Z</time>
      </trkpt>
      <trkpt lat="45.49351" lon="6.59271">
        <ele>1579.58</ele>
        <time>2016-01-24T12:46:23Z</time>
      </trkpt>
      <trkpt lat="45.4935" lon="6.59267">
        <ele>1576.22</ele>
        <time>2016-01-24T12:46:24Z</time>
      </trkpt>
      <trkpt lat="45.49346" lon="6.59258">
        <ele>1573.82</ele>
        <time>2016-01-24T12:46:25Z</time>
      </trkpt>
      <trkpt lat="45.49339" lon="6.59257">
        <ele>1571.41</ele>
        <time>2016-01-24T12:46:26Z</time>
      </trkpt>
      <trkpt lat="45.4933" lon="6.59257">
        <ele>1569.01</ele>
        <time>2016-01-24T12:46:27Z</time>
      </trkpt>
      <trkpt lat="45.49327" lon="6.59253">
        <ele>1569.01</ele>
        <time>2016-01-24T12:46:28Z</time>
      </trkpt>
      <trkpt lat="45.49328" lon="6.59249">
        <ele>1567.09</ele>
        <time>2016-01-24T12:46:29Z</time>
      </trkpt>
      <trkpt lat="45.49328" lon="6.59246">
        <ele>1567.09</ele>
        <time>2016-01-24T12:46:30Z</time>
      </trkpt>
      <trkpt lat="45.49329" lon="6.59243">
        <ele>1567.09</ele>
        <time>2016-01-24T12:46:31Z</time>
      </trkpt>
      <trkpt lat="45.49329" lon="6.5924">
        <ele>1567.09</ele>
        <time>2016-01-24T12:46:32Z</time>
      </trkpt>
      <trkpt lat="45.49329" lon="6.59231">
        <ele>1567.09</ele>
        <time>2016-01-24T12:46:44Z</time>
      </trkpt>
      <trkpt lat="45.49329" lon="6.59229">
        <ele>1567.09</ele>
        <time>2016-01-24T12:46:45Z</time>
      </trkpt>
      <trkpt lat="45.49329" lon="6.59227">
        <ele>1567.09</ele>
        <time>2016-01-24T12:46:46Z</time>
      </trkpt>
      <trkpt lat="45.49329" lon="6.59219">
        <ele>1563.24</ele>
        <time>2016-01-24T12:46:55Z</time>
      </trkpt>
      <trkpt lat="45.49329" lon="6.59219">
        <ele>1567.57</ele>
        <time>2016-01-24T12:46:56Z</time>
      </trkpt>
      <trkpt lat="45.49329" lon="6.5921">
        <ele>1564.2</ele>
        <time>2016-01-24T12:47:04Z</time>
      </trkpt>
      <trkpt lat="45.49328" lon="6.59202">
        <ele>1563.24</ele>
        <time>2016-01-24T12:47:06Z</time>
      </trkpt>
      <trkpt lat="45.49326" lon="6.59194">
        <ele>1561.32</ele>
        <time>2016-01-24T12:47:07Z</time>
      </trkpt>
      <trkpt lat="45.49325" lon="6.59186">
        <ele>1558.43</ele>
        <time>2016-01-24T12:47:08Z</time>
      </trkpt>
      <trkpt lat="45.49325" lon="6.5918">
        <ele>1557.95</ele>
        <time>2016-01-24T12:47:09Z</time>
      </trkpt>
      <trkpt lat="45.49324" lon="6.59172">
        <ele>1556.99</ele>
        <time>2016-01-24T12:47:10Z</time>
      </trkpt>
      <trkpt lat="45.49323" lon="6.59163">
        <ele>1555.55</ele>
        <time>2016-01-24T12:47:11Z</time>
      </trkpt>
      <trkpt lat="45.49323" lon="6.59155">
        <ele>1554.11</ele>
        <time>2016-01-24T12:47:12Z</time>
      </trkpt>
      <trkpt lat="45.49324" lon="6.59148">
        <ele>1553.63</ele>
        <time>2016-01-24T12:47:13Z</time>
      </trkpt>
      <trkpt lat="45.49325" lon="6.59141">
        <ele>1552.19</ele>
        <time>2016-01-24T12:47:14Z</time>
      </trkpt>
      <trkpt lat="45.49325" lon="6.59133">
        <ele>1550.26</ele>
        <time>2016-01-24T12:47:15Z</time>
      </trkpt>
      <trkpt lat="45.49325" lon="6.59126">
        <ele>1552.67</ele>
        <time>2016-01-24T12:47:16Z</time>
      </trkpt>
      <trkpt lat="45.49324" lon="6.59119">
        <ele>1548.82</ele>
        <time>2016-01-24T12:47:17Z</time>
      </trkpt>
      <trkpt lat="45.49321" lon="6.59112">
        <ele>1546.42</ele>
        <time>2016-01-24T12:47:18Z</time>
      </trkpt>
      <trkpt lat="45.49319" lon="6.59105">
        <ele>1545.94</ele>
        <time>2016-01-24T12:47:19Z</time>
      </trkpt>
      <trkpt lat="45.49317" lon="6.59097">
        <ele>1543.05</ele>
        <time>2016-01-24T12:47:20Z</time>
      </trkpt>
      <trkpt lat="45.49317" lon="6.59088">
        <ele>1542.09</ele>
        <time>2016-01-24T12:47:21Z</time>
      </trkpt>
      <trkpt lat="45.49316" lon="6.59067">
        <ele>1538.25</ele>
        <time>2016-01-24T12:47:23Z</time>
      </trkpt>
      <trkpt lat="45.49317" lon="6.59058">
        <ele>1536.8</ele>
        <time>2016-01-24T12:47:24Z</time>
      </trkpt>
      <trkpt lat="45.49318" lon="6.59055">
        <ele>1536.8</ele>
        <time>2016-01-24T12:47:25Z</time>
      </trkpt>
      <trkpt lat="45.49319" lon="6.5906">
        <ele>1537.29</ele>
        <time>2016-01-24T12:47:38Z</time>
      </trkpt>
      <trkpt lat="45.49321" lon="6.59062">
        <ele>1536.8</ele>
        <time>2016-01-24T12:48:08Z</time>
      </trkpt>
      <trkpt lat="45.4932" lon="6.5906">
        <ele>1536.8</ele>
        <time>2016-01-24T12:48:20Z</time>
      </trkpt>
      <trkpt lat="45.49319" lon="6.59056">
        <ele>1535.84</ele>
        <time>2016-01-24T12:48:21Z</time>
      </trkpt>
      <trkpt lat="45.49319" lon="6.59053">
        <ele>1534.4</ele>
        <time>2016-01-24T12:48:22Z</time>
      </trkpt>
      <trkpt lat="45.49324" lon="6.59047">
        <ele>1534.88</ele>
        <time>2016-01-24T12:48:32Z</time>
      </trkpt>
      <trkpt lat="45.49327" lon="6.59043">
        <ele>1532.96</ele>
        <time>2016-01-24T12:48:35Z</time>
      </trkpt>
      <trkpt lat="45.49328" lon="6.59042">
        <ele>1532</ele>
        <time>2016-01-24T12:48:38Z</time>
      </trkpt>
      <trkpt lat="45.49328" lon="6.59038">
        <ele>1531.52</ele>
        <time>2016-01-24T12:48:39Z</time>
      </trkpt>
      <trkpt lat="45.49327" lon="6.59032">
        <ele>1529.59</ele>
        <time>2016-01-24T12:48:40Z</time>
      </trkpt>
      <trkpt lat="45.49327" lon="6.59027">
        <ele>1527.67</ele>
        <time>2016-01-24T12:48:41Z</time>
      </trkpt>
      <trkpt lat="45.49327" lon="6.59025">
        <ele>1527.67</ele>
        <time>2016-01-24T12:48:42Z</time>
      </trkpt>
      <trkpt lat="45.49327" lon="6.59026">
        <ele>1529.11</ele>
        <time>2016-01-24T12:48:44Z</time>
      </trkpt>
      <trkpt lat="45.49325" lon="6.59029">
        <ele>1529.11</ele>
        <time>2016-01-24T12:49:03Z</time>
      </trkpt>
      <trkpt lat="45.4933" lon="6.5904">
        <ele>1528.63</ele>
        <time>2016-01-24T12:49:20Z</time>
      </trkpt>
      <trkpt lat="45.49325" lon="6.59044">
        <ele>1527.19</ele>
        <time>2016-01-24T12:49:40Z</time>
      </trkpt>
      <trkpt lat="45.4932" lon="6.59055">
        <ele>1527.19</ele>
        <time>2016-01-24T12:50:06Z</time>
      </trkpt>
      <trkpt lat="45.49329" lon="6.59057">
        <ele>1526.71</ele>
        <time>2016-01-24T12:50:11Z</time>
      </trkpt>
      <trkpt lat="45.49331" lon="6.59057">
        <ele>1526.71</ele>
        <time>2016-01-24T12:50:12Z</time>
      </trkpt>
      <trkpt lat="45.49333" lon="6.59059">
        <ele>1526.71</ele>
        <time>2016-01-24T12:50:13Z</time>
      </trkpt>
      <trkpt lat="45.49339" lon="6.59063">
        <ele>1525.27</ele>
        <time>2016-01-24T12:50:17Z</time>
      </trkpt>
      <trkpt lat="45.4934" lon="6.59064">
        <ele>1525.27</ele>
        <time>2016-01-24T12:50:18Z</time>
      </trkpt>
      <trkpt lat="45.49347" lon="6.59078">
        <ele>1523.83</ele>
        <time>2016-01-24T12:50:26Z</time>
      </trkpt>
      <trkpt lat="45.4935" lon="6.59087">
        <ele>1523.83</ele>
        <time>2016-01-24T12:50:29Z</time>
      </trkpt>
      <trkpt lat="45.49352" lon="6.5909">
        <ele>1523.35</ele>
        <time>2016-01-24T12:50:30Z</time>
      </trkpt>
      <trkpt lat="45.49353" lon="6.59092">
        <ele>1523.35</ele>
        <time>2016-01-24T12:50:31Z</time>
      </trkpt>
      <trkpt lat="45.49355" lon="6.59094">
        <ele>1523.35</ele>
        <time>2016-01-24T12:50:32Z</time>
      </trkpt>
      <trkpt lat="45.49358" lon="6.59095">
        <ele>1523.35</ele>
        <time>2016-01-24T12:50:33Z</time>
      </trkpt>
      <trkpt lat="45.49365" lon="6.59098">
        <ele>1523.35</ele>
        <time>2016-01-24T12:50:35Z</time>
      </trkpt>
      <trkpt lat="45.49368" lon="6.59099">
        <ele>1523.35</ele>
        <time>2016-01-24T12:50:36Z</time>
      </trkpt>
      <trkpt lat="45.49387" lon="6.5911">
        <ele>1522.39</ele>
        <time>2016-01-24T12:50:41Z</time>
      </trkpt>
      <trkpt lat="45.4939" lon="6.59115">
        <ele>1522.39</ele>
        <time>2016-01-24T12:50:42Z</time>
      </trkpt>
      <trkpt lat="45.49393" lon="6.59119">
        <ele>1522.39</ele>
        <time>2016-01-24T12:50:43Z</time>
      </trkpt>
      <trkpt lat="45.49395" lon="6.59122">
        <ele>1521.9</ele>
        <time>2016-01-24T12:50:44Z</time>
      </trkpt>
      <trkpt lat="45.49396" lon="6.59125">
        <ele>1521.9</ele>
        <time>2016-01-24T12:50:45Z</time>
      </trkpt>
      <trkpt lat="45.494" lon="6.59129">
        <ele>1520.94</ele>
        <time>2016-01-24T12:50:46Z</time>
      </trkpt>
      <trkpt lat="45.49401" lon="6.59133">
        <ele>1520.94</ele>
        <time>2016-01-24T12:50:47Z</time>
      </trkpt>
      <trkpt lat="45.49403" lon="6.59137">
        <ele>1520.94</ele>
        <time>2016-01-24T12:50:48Z</time>
      </trkpt>
      <trkpt lat="45.49404" lon="6.59141">
        <ele>1519.98</ele>
        <time>2016-01-24T12:50:49Z</time>
      </trkpt>
      <trkpt lat="45.49404" lon="6.59146">
        <ele>1519.5</ele>
        <time>2016-01-24T12:50:50Z</time>
      </trkpt>
      <trkpt lat="45.49403" lon="6.59147">
        <ele>1519.02</ele>
        <time>2016-01-24T12:50:51Z</time>
      </trkpt>
      <trkpt lat="45.49409" lon="6.5917">
        <ele>1516.62</ele>
        <time>2016-01-24T12:50:58Z</time>
      </trkpt>
      <trkpt lat="45.4941" lon="6.59192">
        <ele>1513.73</ele>
        <time>2016-01-24T12:51:04Z</time>
      </trkpt>
      <trkpt lat="45.49413" lon="6.59197">
        <ele>1512.29</ele>
        <time>2016-01-24T12:51:06Z</time>
      </trkpt>
      <trkpt lat="45.49423" lon="6.59203">
        <ele>1510.37</ele>
        <time>2016-01-24T12:51:09Z</time>
      </trkpt>
      <trkpt lat="45.49424" lon="6.59204">
        <ele>1509.89</ele>
        <time>2016-01-24T12:51:10Z</time>
      </trkpt>
      <trkpt lat="45.49434" lon="6.59206">
        <ele>1509.89</ele>
        <time>2016-01-24T12:51:12Z</time>
      </trkpt>
      <trkpt lat="45.4945" lon="6.59213">
        <ele>1508.45</ele>
        <time>2016-01-24T12:51:16Z</time>
      </trkpt>
      <trkpt lat="45.49474" lon="6.59225">
        <ele>1507.48</ele>
        <time>2016-01-24T12:51:19Z</time>
      </trkpt>
      <trkpt lat="45.49485" lon="6.59227">
        <ele>1507</ele>
        <time>2016-01-24T12:51:20Z</time>
      </trkpt>
      <trkpt lat="45.49494" lon="6.59229">
        <ele>1506.52</ele>
        <time>2016-01-24T12:51:21Z</time>
      </trkpt>
      <trkpt lat="45.49501" lon="6.59227">
        <ele>1506.52</ele>
        <time>2016-01-24T12:51:22Z</time>
      </trkpt>
      <trkpt lat="45.4951" lon="6.59226">
        <ele>1505.56</ele>
        <time>2016-01-24T12:51:23Z</time>
      </trkpt>
      <trkpt lat="45.49518" lon="6.59225">
        <ele>1505.56</ele>
        <time>2016-01-24T12:51:24Z</time>
      </trkpt>
      <trkpt lat="45.49526" lon="6.59223">
        <ele>1504.6</ele>
        <time>2016-01-24T12:51:25Z</time>
      </trkpt>
      <trkpt lat="45.49559" lon="6.59218">
        <ele>1501.72</ele>
        <time>2016-01-24T12:51:30Z</time>
      </trkpt>
      <trkpt lat="45.49579" lon="6.59219">
        <ele>1499.79</ele>
        <time>2016-01-24T12:51:33Z</time>
      </trkpt>
      <trkpt lat="45.49615" lon="6.59206">
        <ele>1496.43</ele>
        <time>2016-01-24T12:51:39Z</time>
      </trkpt>
      <trkpt lat="45.49637" lon="6.592">
        <ele>1494.51</ele>
        <time>2016-01-24T12:51:43Z</time>
      </trkpt>
      <trkpt lat="45.49641" lon="6.59196">
        <ele>1494.03</ele>
        <time>2016-01-24T12:51:44Z</time>
      </trkpt>
      <trkpt lat="45.49681" lon="6.59185">
        <ele>1491.14</ele>
        <time>2016-01-24T12:51:54Z</time>
      </trkpt>
      <trkpt lat="45.4969" lon="6.59189">
        <ele>1490.18</ele>
        <time>2016-01-24T12:51:57Z</time>
      </trkpt>
      <trkpt lat="45.49759" lon="6.59194">
        <ele>1486.82</ele>
        <time>2016-01-24T12:52:10Z</time>
      </trkpt>
      <trkpt lat="45.49778" lon="6.59197">
        <ele>1485.37</ele>
        <time>2016-01-24T12:52:13Z</time>
      </trkpt>
      <trkpt lat="45.49796" lon="6.59213">
        <ele>1484.41</ele>
        <time>2016-01-24T12:52:17Z</time>
      </trkpt>
      <trkpt lat="45.498" lon="6.59218">
        <ele>1484.41</ele>
        <time>2016-01-24T12:52:18Z</time>
      </trkpt>
      <trkpt lat="45.49814" lon="6.59228">
        <ele>1482.49</ele>
        <time>2016-01-24T12:52:21Z</time>
      </trkpt>
      <trkpt lat="45.49827" lon="6.59235">
        <ele>1482.01</ele>
        <time>2016-01-24T12:52:23Z</time>
      </trkpt>
      <trkpt lat="45.49832" lon="6.59237">
        <ele>1481.53</ele>
        <time>2016-01-24T12:52:24Z</time>
      </trkpt>
      <trkpt lat="45.49851" lon="6.59251">
        <ele>1478.16</ele>
        <time>2016-01-24T12:52:30Z</time>
      </trkpt>
      <trkpt lat="45.49854" lon="6.59253">
        <ele>1477.2</ele>
        <time>2016-01-24T12:52:32Z</time>
      </trkpt>
      <trkpt lat="45.49853" lon="6.59253">
        <ele>1476.72</ele>
        <time>2016-01-24T12:52:33Z</time>
      </trkpt>
      <trkpt lat="45.49859" lon="6.59253">
        <ele>1475.76</ele>
        <time>2016-01-24T12:52:35Z</time>
      </trkpt>
      <trkpt lat="45.49878" lon="6.59264">
        <ele>1473.84</ele>
        <time>2016-01-24T12:52:39Z</time>
      </trkpt>
      <trkpt lat="45.4989" lon="6.59273">
        <ele>1470.95</ele>
        <time>2016-01-24T12:52:44Z</time>
      </trkpt>
      <trkpt lat="45.499" lon="6.59276">
        <ele>1468.07</ele>
        <time>2016-01-24T12:52:50Z</time>
      </trkpt>
      <trkpt lat="45.49918" lon="6.59277">
        <ele>1466.15</ele>
        <time>2016-01-24T12:52:53Z</time>
      </trkpt>
      <trkpt lat="45.49939" lon="6.59277">
        <ele>1464.71</ele>
        <time>2016-01-24T12:52:56Z</time>
      </trkpt>
      <trkpt lat="45.49947" lon="6.59277">
        <ele>1464.71</ele>
        <time>2016-01-24T12:52:57Z</time>
      </trkpt>
      <trkpt lat="45.49988" lon="6.59284">
        <ele>1463.26</ele>
        <time>2016-01-24T12:53:02Z</time>
      </trkpt>
      <trkpt lat="45.50008" lon="6.59288">
        <ele>1461.82</ele>
        <time>2016-01-24T12:53:04Z</time>
      </trkpt>
      <trkpt lat="45.50033" lon="6.59294">
        <ele>1459.42</ele>
        <time>2016-01-24T12:53:07Z</time>
      </trkpt>
      <trkpt lat="45.50048" lon="6.593">
        <ele>1458.46</ele>
        <time>2016-01-24T12:53:09Z</time>
      </trkpt>
      <trkpt lat="45.5006" lon="6.59309">
        <ele>1457.5</ele>
        <time>2016-01-24T12:53:11Z</time>
      </trkpt>
      <trkpt lat="45.50078" lon="6.59323">
        <ele>1456.05</ele>
        <time>2016-01-24T12:53:14Z</time>
      </trkpt>
      <trkpt lat="45.50086" lon="6.59326">
        <ele>1455.09</ele>
        <time>2016-01-24T12:53:15Z</time>
      </trkpt>
      <trkpt lat="45.50093" lon="6.59331">
        <ele>1454.61</ele>
        <time>2016-01-24T12:53:16Z</time>
      </trkpt>
      <trkpt lat="45.501" lon="6.59336">
        <ele>1454.61</ele>
        <time>2016-01-24T12:53:17Z</time>
      </trkpt>
      <trkpt lat="45.50126" lon="6.5935">
        <ele>1454.13</ele>
        <time>2016-01-24T12:53:19Z</time>
      </trkpt>
      <trkpt lat="45.50136" lon="6.59355">
        <ele>1453.65</ele>
        <time>2016-01-24T12:53:20Z</time>
      </trkpt>
      <trkpt lat="45.50151" lon="6.59363">
        <ele>1452.21</ele>
        <time>2016-01-24T12:53:22Z</time>
      </trkpt>
      <trkpt lat="45.50156" lon="6.59368">
        <ele>1451.73</ele>
        <time>2016-01-24T12:53:23Z</time>
      </trkpt>
      <trkpt lat="45.50161" lon="6.59373">
        <ele>1450.77</ele>
        <time>2016-01-24T12:53:24Z</time>
      </trkpt>
      <trkpt lat="45.50167" lon="6.59378">
        <ele>1450.29</ele>
        <time>2016-01-24T12:53:25Z</time>
      </trkpt>
      <trkpt lat="45.50173" lon="6.59384">
        <ele>1449.81</ele>
        <time>2016-01-24T12:53:26Z</time>
      </trkpt>
      <trkpt lat="45.50184" lon="6.59394">
        <ele>1448.36</ele>
        <time>2016-01-24T12:53:28Z</time>
      </trkpt>
      <trkpt lat="45.502" lon="6.59409">
        <ele>1445.96</ele>
        <time>2016-01-24T12:53:31Z</time>
      </trkpt>
      <trkpt lat="45.50225" lon="6.59437">
        <ele>1443.08</ele>
        <time>2016-01-24T12:53:36Z</time>
      </trkpt>
      <trkpt lat="45.50234" lon="6.59447">
        <ele>1441.15</ele>
        <time>2016-01-24T12:53:38Z</time>
      </trkpt>
      <trkpt lat="45.50244" lon="6.5946">
        <ele>1439.71</ele>
        <time>2016-01-24T12:53:40Z</time>
      </trkpt>
      <trkpt lat="45.50249" lon="6.59466">
        <ele>1440.67</ele>
        <time>2016-01-24T12:53:41Z</time>
      </trkpt>
      <trkpt lat="45.50254" lon="6.59472">
        <ele>1439.23</ele>
        <time>2016-01-24T12:53:42Z</time>
      </trkpt>
      <trkpt lat="45.50258" lon="6.59478">
        <ele>1438.27</ele>
        <time>2016-01-24T12:53:43Z</time>
      </trkpt>
      <trkpt lat="45.50263" lon="6.59484">
        <ele>1438.27</ele>
        <time>2016-01-24T12:53:44Z</time>
      </trkpt>
      <trkpt lat="45.50268" lon="6.59488">
        <ele>1436.83</ele>
        <time>2016-01-24T12:53:45Z</time>
      </trkpt>
      <trkpt lat="45.50279" lon="6.59497">
        <ele>1435.87</ele>
        <time>2016-01-24T12:53:47Z</time>
      </trkpt>
      <trkpt lat="45.50296" lon="6.59504">
        <ele>1434.42</ele>
        <time>2016-01-24T12:53:51Z</time>
      </trkpt>
      <trkpt lat="45.50307" lon="6.59512">
        <ele>1431.54</ele>
        <time>2016-01-24T12:53:55Z</time>
      </trkpt>
      <trkpt lat="45.50311" lon="6.59514">
        <ele>1431.06</ele>
        <time>2016-01-24T12:53:56Z</time>
      </trkpt>
      <trkpt lat="45.50323" lon="6.59526">
        <ele>1431.06</ele>
        <time>2016-01-24T12:54:07Z</time>
      </trkpt>
      <trkpt lat="45.50322" lon="6.59523">
        <ele>1431.06</ele>
        <time>2016-01-24T12:54:28Z</time>
      </trkpt>
      <trkpt lat="45.50322" lon="6.59518">
        <ele>1430.58</ele>
        <time>2016-01-24T12:54:38Z</time>
      </trkpt>
      <trkpt lat="45.50324" lon="6.59514">
        <ele>1429.14</ele>
        <time>2016-01-24T12:54:39Z</time>
      </trkpt>
      <trkpt lat="45.50335" lon="6.59501">
        <ele>1424.33</ele>
        <time>2016-01-24T12:54:41Z</time>
      </trkpt>
      <trkpt lat="45.50362" lon="6.59489">
        <ele>1420</ele>
        <time>2016-01-24T12:54:44Z</time>
      </trkpt>
      <trkpt lat="45.50383" lon="6.59485">
        <ele>1417.6</ele>
        <time>2016-01-24T12:54:47Z</time>
      </trkpt>
      <trkpt lat="45.50407" lon="6.5949">
        <ele>1414.72</ele>
        <time>2016-01-24T12:54:53Z</time>
      </trkpt>
      <trkpt lat="45.50408" lon="6.59491">
        <ele>1414.72</ele>
        <time>2016-01-24T12:54:54Z</time>
      </trkpt>
      <trkpt lat="45.50411" lon="6.59491">
        <ele>1415.68</ele>
        <time>2016-01-24T12:54:57Z</time>
      </trkpt>
      <trkpt lat="45.50418" lon="6.59489">
        <ele>1412.31</ele>
        <time>2016-01-24T12:55:00Z</time>
      </trkpt>
      <trkpt lat="45.50426" lon="6.59485">
        <ele>1409.91</ele>
        <time>2016-01-24T12:55:02Z</time>
      </trkpt>
      <trkpt lat="45.50443" lon="6.59469">
        <ele>1405.1</ele>
        <time>2016-01-24T12:55:05Z</time>
      </trkpt>
      <trkpt lat="45.50459" lon="6.59444">
        <ele>1400.3</ele>
        <time>2016-01-24T12:55:08Z</time>
      </trkpt>
      <trkpt lat="45.50483" lon="6.5943">
        <ele>1396.93</ele>
        <time>2016-01-24T12:55:11Z</time>
      </trkpt>
      <trkpt lat="45.50491" lon="6.59433">
        <ele>1395.01</ele>
        <time>2016-01-24T12:55:12Z</time>
      </trkpt>
      <trkpt lat="45.50497" lon="6.59435">
        <ele>1395.01</ele>
        <time>2016-01-24T12:55:13Z</time>
      </trkpt>
      <trkpt lat="45.50503" lon="6.59436">
        <ele>1395.01</ele>
        <time>2016-01-24T12:55:14Z</time>
      </trkpt>
      <trkpt lat="45.50509" lon="6.59436">
        <ele>1393.09</ele>
        <time>2016-01-24T12:55:15Z</time>
      </trkpt>
      <trkpt lat="45.50513" lon="6.59434">
        <ele>1395.97</ele>
        <time>2016-01-24T12:55:16Z</time>
      </trkpt>
      <trkpt lat="45.50517" lon="6.59433">
        <ele>1394.05</ele>
        <time>2016-01-24T12:55:17Z</time>
      </trkpt>
      <trkpt lat="45.50521" lon="6.5943">
        <ele>1393.57</ele>
        <time>2016-01-24T12:55:18Z</time>
      </trkpt>
      <trkpt lat="45.50526" lon="6.59426">
        <ele>1395.01</ele>
        <time>2016-01-24T12:55:20Z</time>
      </trkpt>
      <trkpt lat="45.50539" lon="6.59405">
        <ele>1390.68</ele>
        <time>2016-01-24T12:55:24Z</time>
      </trkpt>
      <trkpt lat="45.50546" lon="6.59387">
        <ele>1387.32</ele>
        <time>2016-01-24T12:55:26Z</time>
      </trkpt>
      <trkpt lat="45.50553" lon="6.59382">
        <ele>1387.8</ele>
        <time>2016-01-24T12:55:32Z</time>
      </trkpt>
      <trkpt lat="45.50561" lon="6.59383">
        <ele>1387.32</ele>
        <time>2016-01-24T12:55:54Z</time>
      </trkpt>
      <trkpt lat="45.50562" lon="6.59385">
        <ele>1387.32</ele>
        <time>2016-01-24T12:56:10Z</time>
      </trkpt>
      <trkpt lat="45.50566" lon="6.59388">
        <ele>1386.84</ele>
        <time>2016-01-24T12:56:45Z</time>
      </trkpt>
      <trkpt lat="45.50563" lon="6.59386">
        <ele>1386.84</ele>
        <time>2016-01-24T12:57:07Z</time>
      </trkpt>
      <trkpt lat="45.50557" lon="6.59382">
        <ele>1386.36</ele>
        <time>2016-01-24T12:57:17Z</time>
      </trkpt>
      <trkpt lat="45.50552" lon="6.59369">
        <ele>1382.99</ele>
        <time>2016-01-24T12:57:21Z</time>
      </trkpt>
      <trkpt lat="45.50557" lon="6.5936">
        <ele>1380.11</ele>
        <time>2016-01-24T12:57:24Z</time>
      </trkpt>
      <trkpt lat="45.50554" lon="6.59353">
        <ele>1376.75</ele>
        <time>2016-01-24T12:57:26Z</time>
      </trkpt>
      <trkpt lat="45.50545" lon="6.59346">
        <ele>1373.86</ele>
        <time>2016-01-24T12:57:29Z</time>
      </trkpt>
      <trkpt lat="45.5054" lon="6.59344">
        <ele>1371.94</ele>
        <time>2016-01-24T12:57:31Z</time>
      </trkpt>
      <trkpt lat="45.5054" lon="6.59344">
        <ele>1371.94</ele>
        <time>2016-01-24T12:57:32Z</time>
      </trkpt>
      <trkpt lat="45.50531" lon="6.59347">
        <ele>1370.5</ele>
        <time>2016-01-24T12:57:39Z</time>
      </trkpt>
      <trkpt lat="45.50526" lon="6.59333">
        <ele>1365.69</ele>
        <time>2016-01-24T12:57:43Z</time>
      </trkpt>
      <trkpt lat="45.50521" lon="6.59326">
        <ele>1361.84</ele>
        <time>2016-01-24T12:57:45Z</time>
      </trkpt>
      <trkpt lat="45.50511" lon="6.5932">
        <ele>1358</ele>
        <time>2016-01-24T12:57:47Z</time>
      </trkpt>
      <trkpt lat="45.50491" lon="6.59309">
        <ele>1351.75</ele>
        <time>2016-01-24T12:57:50Z</time>
      </trkpt>
      <trkpt lat="45.50486" lon="6.59305">
        <ele>1357.04</ele>
        <time>2016-01-24T12:57:51Z</time>
      </trkpt>
      <trkpt lat="45.50483" lon="6.593">
        <ele>1352.23</ele>
        <time>2016-01-24T12:57:52Z</time>
      </trkpt>
      <trkpt lat="45.50487" lon="6.59293">
        <ele>1348.87</ele>
        <time>2016-01-24T12:57:54Z</time>
      </trkpt>
      <trkpt lat="45.5049" lon="6.5928">
        <ele>1344.54</ele>
        <time>2016-01-24T12:57:56Z</time>
      </trkpt>
      <trkpt lat="45.50491" lon="6.59268">
        <ele>1339.25</ele>
        <time>2016-01-24T12:57:58Z</time>
      </trkpt>
      <trkpt lat="45.50494" lon="6.59263">
        <ele>1341.18</ele>
        <time>2016-01-24T12:57:59Z</time>
      </trkpt>
      <trkpt lat="45.50495" lon="6.59257">
        <ele>1336.37</ele>
        <time>2016-01-24T12:58:00Z</time>
      </trkpt>
      <trkpt lat="45.50498" lon="6.59244">
        <ele>1333.01</ele>
        <time>2016-01-24T12:58:02Z</time>
      </trkpt>
      <trkpt lat="45.50503" lon="6.59241">
        <ele>1333.01</ele>
        <time>2016-01-24T12:58:03Z</time>
      </trkpt>
      <trkpt lat="45.50506" lon="6.5924">
        <ele>1331.56</ele>
        <time>2016-01-24T12:58:04Z</time>
      </trkpt>
      <trkpt lat="45.50511" lon="6.59238">
        <ele>1331.08</ele>
        <time>2016-01-24T12:58:05Z</time>
      </trkpt>
      <trkpt lat="45.50515" lon="6.59238">
        <ele>1331.08</ele>
        <time>2016-01-24T12:58:06Z</time>
      </trkpt>
      <trkpt lat="45.50517" lon="6.59238">
        <ele>1331.08</ele>
        <time>2016-01-24T12:58:07Z</time>
      </trkpt>
      <trkpt lat="45.5052" lon="6.59237">
        <ele>1331.08</ele>
        <time>2016-01-24T12:58:08Z</time>
      </trkpt>
      <trkpt lat="45.50522" lon="6.59236">
        <ele>1331.08</ele>
        <time>2016-01-24T12:58:09Z</time>
      </trkpt>
      <trkpt lat="45.50524" lon="6.59234">
        <ele>1330.6</ele>
        <time>2016-01-24T12:58:10Z</time>
      </trkpt>
      <trkpt lat="45.50538" lon="6.5923">
        <ele>1327.24</ele>
        <time>2016-01-24T12:58:15Z</time>
      </trkpt>
      <trkpt lat="45.50553" lon="6.59227">
        <ele>1323.39</ele>
        <time>2016-01-24T12:58:18Z</time>
      </trkpt>
      <trkpt lat="45.50577" lon="6.59222">
        <ele>1320.99</ele>
        <time>2016-01-24T12:58:22Z</time>
      </trkpt>
      <trkpt lat="45.50582" lon="6.59221">
        <ele>1320.51</ele>
        <time>2016-01-24T12:58:23Z</time>
      </trkpt>
      <trkpt lat="45.50585" lon="6.5922">
        <ele>1320.51</ele>
        <time>2016-01-24T12:58:24Z</time>
      </trkpt>
      <trkpt lat="45.50597" lon="6.5922">
        <ele>1318.1</ele>
        <time>2016-01-24T12:58:32Z</time>
      </trkpt>
      <trkpt lat="45.50599" lon="6.59222">
        <ele>1317.62</ele>
        <time>2016-01-24T12:58:33Z</time>
      </trkpt>
      <trkpt lat="45.50604" lon="6.59229">
        <ele>1317.62</ele>
        <time>2016-01-24T12:58:48Z</time>
      </trkpt>
      <trkpt lat="45.50603" lon="6.59233">
        <ele>1317.62</ele>
        <time>2016-01-24T12:59:08Z</time>
      </trkpt>
      <trkpt lat="45.50598" lon="6.59241">
        <ele>1317.14</ele>
        <time>2016-01-24T12:59:30Z</time>
      </trkpt>
      <trkpt lat="45.50593" lon="6.59244">
        <ele>1316.66</ele>
        <time>2016-01-24T13:00:00Z</time>
      </trkpt>
      <trkpt lat="45.506" lon="6.59237">
        <ele>1316.18</ele>
        <time>2016-01-24T13:00:25Z</time>
      </trkpt>
      <trkpt lat="45.50608" lon="6.59232">
        <ele>1314.74</ele>
        <time>2016-01-24T13:00:30Z</time>
      </trkpt>
      <trkpt lat="45.50618" lon="6.59229">
        <ele>1314.74</ele>
        <time>2016-01-24T13:00:39Z</time>
      </trkpt>
      <trkpt lat="45.50616" lon="6.59227">
        <ele>1314.74</ele>
        <time>2016-01-24T13:00:41Z</time>
      </trkpt>
      <trkpt lat="45.50616" lon="6.59226">
        <ele>1314.26</ele>
        <time>2016-01-24T13:00:42Z</time>
      </trkpt>
      <trkpt lat="45.50614" lon="6.59223">
        <ele>1313.78</ele>
        <time>2016-01-24T13:00:43Z</time>
      </trkpt>
      <trkpt lat="45.50613" lon="6.59221">
        <ele>1312.82</ele>
        <time>2016-01-24T13:00:44Z</time>
      </trkpt>
      <trkpt lat="45.50611" lon="6.59218">
        <ele>1312.82</ele>
        <time>2016-01-24T13:00:45Z</time>
      </trkpt>
      <trkpt lat="45.50599" lon="6.59201">
        <ele>1309.45</ele>
        <time>2016-01-24T13:00:51Z</time>
      </trkpt>
      <trkpt lat="45.5059" lon="6.59188">
        <ele>1307.05</ele>
        <time>2016-01-24T13:00:54Z</time>
      </trkpt>
      <trkpt lat="45.50586" lon="6.59184">
        <ele>1306.57</ele>
        <time>2016-01-24T13:00:55Z</time>
      </trkpt>
      <trkpt lat="45.50581" lon="6.59181">
        <ele>1305.61</ele>
        <time>2016-01-24T13:00:56Z</time>
      </trkpt>
      <trkpt lat="45.50577" lon="6.59177">
        <ele>1304.65</ele>
        <time>2016-01-24T13:00:57Z</time>
      </trkpt>
      <trkpt lat="45.50573" lon="6.59173">
        <ele>1304.17</ele>
        <time>2016-01-24T13:00:58Z</time>
      </trkpt>
      <trkpt lat="45.50553" lon="6.5915">
        <ele>1300.32</ele>
        <time>2016-01-24T13:01:04Z</time>
      </trkpt>
      <trkpt lat="45.50536" lon="6.5913">
        <ele>1295.99</ele>
        <time>2016-01-24T13:01:09Z</time>
      </trkpt>
      <trkpt lat="45.50533" lon="6.59125">
        <ele>1295.99</ele>
        <time>2016-01-24T13:01:10Z</time>
      </trkpt>
      <trkpt lat="45.50531" lon="6.59118">
        <ele>1294.07</ele>
        <time>2016-01-24T13:01:11Z</time>
      </trkpt>
      <trkpt lat="45.50529" lon="6.59113">
        <ele>1294.07</ele>
        <time>2016-01-24T13:01:12Z</time>
      </trkpt>
      <trkpt lat="45.50526" lon="6.59107">
        <ele>1292.15</ele>
        <time>2016-01-24T13:01:13Z</time>
      </trkpt>
      <trkpt lat="45.50523" lon="6.59101">
        <ele>1291.67</ele>
        <time>2016-01-24T13:01:14Z</time>
      </trkpt>
      <trkpt lat="45.50521" lon="6.59094">
        <ele>1291.67</ele>
        <time>2016-01-24T13:01:15Z</time>
      </trkpt>
      <trkpt lat="45.50518" lon="6.59086">
        <ele>1288.78</ele>
        <time>2016-01-24T13:01:16Z</time>
      </trkpt>
      <trkpt lat="45.50515" lon="6.59076">
        <ele>1287.82</ele>
        <time>2016-01-24T13:01:17Z</time>
      </trkpt>
      <trkpt lat="45.50512" lon="6.59067">
        <ele>1286.86</ele>
        <time>2016-01-24T13:01:18Z</time>
      </trkpt>
      <trkpt lat="45.50508" lon="6.59061">
        <ele>1286.38</ele>
        <time>2016-01-24T13:01:19Z</time>
      </trkpt>
      <trkpt lat="45.50503" lon="6.59057">
        <ele>1286.38</ele>
        <time>2016-01-24T13:01:20Z</time>
      </trkpt>
      <trkpt lat="45.50486" lon="6.59049">
        <ele>1283.5</ele>
        <time>2016-01-24T13:01:24Z</time>
      </trkpt>
      <trkpt lat="45.50464" lon="6.59033">
        <ele>1279.65</ele>
        <time>2016-01-24T13:01:29Z</time>
      </trkpt>
      <trkpt lat="45.50465" lon="6.59027">
        <ele>1275.81</ele>
        <time>2016-01-24T13:01:32Z</time>
      </trkpt>
      <trkpt lat="45.50466" lon="6.5903">
        <ele>1274.85</ele>
        <time>2016-01-24T13:01:33Z</time>
      </trkpt>
      <trkpt lat="45.50466" lon="6.59033">
        <ele>1273.88</ele>
        <time>2016-01-24T13:01:34Z</time>
      </trkpt>
      <trkpt lat="45.50483" lon="6.5902">
        <ele>1271.96</ele>
        <time>2016-01-24T13:01:43Z</time>
      </trkpt>
      <trkpt lat="45.50484" lon="6.5902">
        <ele>1272.44</ele>
        <time>2016-01-24T13:01:44Z</time>
      </trkpt>
      <trkpt lat="45.50488" lon="6.59011">
        <ele>1271.96</ele>
        <time>2016-01-24T13:01:48Z</time>
      </trkpt>
      <trkpt lat="45.50496" lon="6.58998">
        <ele>1271.96</ele>
        <time>2016-01-24T13:01:53Z</time>
      </trkpt>
      <trkpt lat="45.505" lon="6.59003">
        <ele>1273.4</ele>
        <time>2016-01-24T13:01:56Z</time>
      </trkpt>
      <trkpt lat="45.50502" lon="6.59004">
        <ele>1273.4</ele>
        <time>2016-01-24T13:01:57Z</time>
      </trkpt>
      <trkpt lat="45.50507" lon="6.59011">
        <ele>1273.4</ele>
        <time>2016-01-24T13:02:00Z</time>
      </trkpt>
      <trkpt lat="45.50511" lon="6.59031">
        <ele>1271.96</ele>
        <time>2016-01-24T13:02:09Z</time>
      </trkpt>
      <trkpt lat="45.50521" lon="6.5905">
        <ele>1270.04</ele>
        <time>2016-01-24T13:02:17Z</time>
      </trkpt>
      <trkpt lat="45.50538" lon="6.59065">
        <ele>1268.6</ele>
        <time>2016-01-24T13:02:23Z</time>
      </trkpt>
      <trkpt lat="45.50556" lon="6.59074">
        <ele>1267.16</ele>
        <time>2016-01-24T13:02:28Z</time>
      </trkpt>
      <trkpt lat="45.50582" lon="6.59083">
        <ele>1265.71</ele>
        <time>2016-01-24T13:02:34Z</time>
      </trkpt>
      <trkpt lat="45.50592" lon="6.59091">
        <ele>1263.31</ele>
        <time>2016-01-24T13:02:37Z</time>
      </trkpt>
      <trkpt lat="45.50597" lon="6.59096">
        <ele>1262.83</ele>
        <time>2016-01-24T13:02:38Z</time>
      </trkpt>
      <trkpt lat="45.50603" lon="6.591">
        <ele>1262.35</ele>
        <time>2016-01-24T13:02:39Z</time>
      </trkpt>
      <trkpt lat="45.50608" lon="6.59104">
        <ele>1261.39</ele>
        <time>2016-01-24T13:02:40Z</time>
      </trkpt>
      <trkpt lat="45.50614" lon="6.5911">
        <ele>1260.91</ele>
        <time>2016-01-24T13:02:41Z</time>
      </trkpt>
      <trkpt lat="45.50627" lon="6.59128">
        <ele>1259.46</ele>
        <time>2016-01-24T13:02:44Z</time>
      </trkpt>
      <trkpt lat="45.50641" lon="6.59152">
        <ele>1258.5</ele>
        <time>2016-01-24T13:02:49Z</time>
      </trkpt>
      <trkpt lat="45.50655" lon="6.59168">
        <ele>1258.5</ele>
        <time>2016-01-24T13:02:55Z</time>
      </trkpt>
      <trkpt lat="45.50655" lon="6.59174">
        <ele>1258.5</ele>
        <time>2016-01-24T13:02:56Z</time>
      </trkpt>
      <trkpt lat="45.50656" lon="6.59178">
        <ele>1258.02</ele>
        <time>2016-01-24T13:02:57Z</time>
      </trkpt>
      <trkpt lat="45.50658" lon="6.5918">
        <ele>1257.06</ele>
        <time>2016-01-24T13:02:58Z</time>
      </trkpt>
      <trkpt lat="45.50715" lon="6.59201">
        <ele>1256.1</ele>
        <time>2016-01-24T13:03:07Z</time>
      </trkpt>
      <trkpt lat="45.50726" lon="6.59206">
        <ele>1256.1</ele>
        <time>2016-01-24T13:03:10Z</time>
      </trkpt>
      <trkpt lat="45.50733" lon="6.59219">
        <ele>1256.1</ele>
        <time>2016-01-24T13:03:15Z</time>
      </trkpt>
      <trkpt lat="45.50737" lon="6.59227">
        <ele>1255.14</ele>
        <time>2016-01-24T13:03:17Z</time>
      </trkpt>
      <trkpt lat="45.50739" lon="6.5923">
        <ele>1255.14</ele>
        <time>2016-01-24T13:03:18Z</time>
      </trkpt>
      <trkpt lat="45.50728" lon="6.59243">
        <ele>1255.14</ele>
        <time>2016-01-24T13:03:19Z</time>
      </trkpt>
      <trkpt lat="45.5073" lon="6.59247">
        <ele>1255.14</ele>
        <time>2016-01-24T13:03:20Z</time>
      </trkpt>
      <trkpt lat="45.50733" lon="6.59249">
        <ele>1255.14</ele>
        <time>2016-01-24T13:03:21Z</time>
      </trkpt>
      <trkpt lat="45.50736" lon="6.59251">
        <ele>1255.14</ele>
        <time>2016-01-24T13:03:22Z</time>
      </trkpt>
      <trkpt lat="45.5074" lon="6.5925">
        <ele>1255.14</ele>
        <time>2016-01-24T13:03:23Z</time>
      </trkpt>
      <trkpt lat="45.50748" lon="6.59252">
        <ele>1255.14</ele>
        <time>2016-01-24T13:03:24Z</time>
      </trkpt>
      <trkpt lat="45.50752" lon="6.59253">
        <ele>1255.14</ele>
        <time>2016-01-24T13:03:25Z</time>
      </trkpt>
      <trkpt lat="45.50756" lon="6.59254">
        <ele>1255.14</ele>
        <time>2016-01-24T13:03:26Z</time>
      </trkpt>
      <trkpt lat="45.50761" lon="6.59254">
        <ele>1255.14</ele>
        <time>2016-01-24T13:03:27Z</time>
      </trkpt>
      <trkpt lat="45.50765" lon="6.59254">
        <ele>1255.14</ele>
        <time>2016-01-24T13:03:28Z</time>
      </trkpt>
      <trkpt lat="45.50769" lon="6.59254">
        <ele>1255.14</ele>
        <time>2016-01-24T13:03:29Z</time>
      </trkpt>
      <trkpt lat="45.50774" lon="6.59256">
        <ele>1256.58</ele>
        <time>2016-01-24T13:03:30Z</time>
      </trkpt>
      <trkpt lat="45.50777" lon="6.59258">
        <ele>1256.58</ele>
        <time>2016-01-24T13:03:31Z</time>
      </trkpt>
      <trkpt lat="45.50785" lon="6.59247">
        <ele>1257.06</ele>
        <time>2016-01-24T13:03:43Z</time>
      </trkpt>
      <trkpt lat="45.50787" lon="6.59238">
        <ele>1256.58</ele>
        <time>2016-01-24T13:04:00Z</time>
      </trkpt>
      <trkpt lat="45.50787" lon="6.59233">
        <ele>1255.62</ele>
        <time>2016-01-24T13:04:22Z</time>
      </trkpt>
      <trkpt lat="45.50787" lon="6.59232">
        <ele>1259.46</ele>
        <time>2016-01-24T13:04:39Z</time>
      </trkpt>
      <trkpt lat="45.50786" lon="6.59232">
        <ele>1256.58</ele>
        <time>2016-01-24T13:04:40Z</time>
      </trkpt>
      <trkpt lat="45.50785" lon="6.59231">
        <ele>1257.54</ele>
        <time>2016-01-24T13:04:49Z</time>
      </trkpt>
      <trkpt lat="45.50784" lon="6.59231">
        <ele>1256.1</ele>
        <time>2016-01-24T13:04:51Z</time>
      </trkpt>
      <trkpt lat="45.50782" lon="6.59226">
        <ele>1256.1</ele>
        <time>2016-01-24T13:05:14Z</time>
      </trkpt>
      <trkpt lat="45.50783" lon="6.59223">
        <ele>1256.1</ele>
        <time>2016-01-24T13:05:40Z</time>
      </trkpt>
      <trkpt lat="45.50783" lon="6.59225">
        <ele>1256.1</ele>
        <time>2016-01-24T13:05:57Z</time>
      </trkpt>
      <trkpt lat="45.50787" lon="6.59226">
        <ele>1255.62</ele>
        <time>2016-01-24T13:06:13Z</time>
      </trkpt>
      <trkpt lat="45.50801" lon="6.59222">
        <ele>1257.06</ele>
        <time>2016-01-24T13:06:26Z</time>
      </trkpt>
      <trkpt lat="45.50802" lon="6.59221">
        <ele>1257.06</ele>
        <time>2016-01-24T13:06:27Z</time>
      </trkpt>
      <trkpt lat="45.50819" lon="6.59216">
        <ele>1258.02</ele>
        <time>2016-01-24T13:06:41Z</time>
      </trkpt>
      <trkpt lat="45.50831" lon="6.59219">
        <ele>1258.98</ele>
        <time>2016-01-24T13:06:53Z</time>
      </trkpt>
      <trkpt lat="45.50847" lon="6.59225">
        <ele>1259.94</ele>
        <time>2016-01-24T13:07:07Z</time>
      </trkpt>
      <trkpt lat="45.50862" lon="6.59239">
        <ele>1260.91</ele>
        <time>2016-01-24T13:07:23Z</time>
      </trkpt>
      <trkpt lat="45.50863" lon="6.59242">
        <ele>1260.91</ele>
        <time>2016-01-24T13:07:25Z</time>
      </trkpt>
      <trkpt lat="45.50864" lon="6.59244">
        <ele>1260.91</ele>
        <time>2016-01-24T13:07:26Z</time>
      </trkpt>
      <trkpt lat="45.50865" lon="6.59245">
        <ele>1260.91</ele>
        <time>2016-01-24T13:07:27Z</time>
      </trkpt>
      <trkpt lat="45.50876" lon="6.59264">
        <ele>1261.87</ele>
        <time>2016-01-24T13:07:40Z</time>
      </trkpt>
      <trkpt lat="45.50885" lon="6.59281">
        <ele>1262.83</ele>
        <time>2016-01-24T13:07:55Z</time>
      </trkpt>
      <trkpt lat="45.50895" lon="6.593">
        <ele>1263.79</ele>
        <time>2016-01-24T13:08:10Z</time>
      </trkpt>
      <trkpt lat="45.50901" lon="6.59307">
        <ele>1263.79</ele>
        <time>2016-01-24T13:08:16Z</time>
      </trkpt>
      <trkpt lat="45.50906" lon="6.59314">
        <ele>1264.75</ele>
        <time>2016-01-24T13:08:22Z</time>
      </trkpt>
      <trkpt lat="45.50907" lon="6.59315">
        <ele>1264.75</ele>
        <time>2016-01-24T13:08:23Z</time>
      </trkpt>
      <trkpt lat="45.50908" lon="6.59316">
        <ele>1265.23</ele>
        <time>2016-01-24T13:08:24Z</time>
      </trkpt>
      <trkpt lat="45.50919" lon="6.59332">
        <ele>1265.71</ele>
        <time>2016-01-24T13:08:38Z</time>
      </trkpt>
      <trkpt lat="45.50921" lon="6.59334">
        <ele>1265.71</ele>
        <time>2016-01-24T13:08:40Z</time>
      </trkpt>
      <trkpt lat="45.50933" lon="6.59346">
        <ele>1266.67</ele>
        <time>2016-01-24T13:08:54Z</time>
      </trkpt>
      <trkpt lat="45.50939" lon="6.5935">
        <ele>1267.16</ele>
        <time>2016-01-24T13:09:00Z</time>
      </trkpt>
      <trkpt lat="45.50951" lon="6.5936">
        <ele>1268.6</ele>
        <time>2016-01-24T13:09:11Z</time>
      </trkpt>
      <trkpt lat="45.50966" lon="6.59369">
        <ele>1269.08</ele>
        <time>2016-01-24T13:09:25Z</time>
      </trkpt>
      <trkpt lat="45.5098" lon="6.59371">
        <ele>1269.56</ele>
        <time>2016-01-24T13:09:37Z</time>
      </trkpt>
      <trkpt lat="45.5099" lon="6.59369">
        <ele>1269.56</ele>
        <time>2016-01-24T13:09:42Z</time>
      </trkpt>
      <trkpt lat="45.51004" lon="6.59354">
        <ele>1270.52</ele>
        <time>2016-01-24T13:09:56Z</time>
      </trkpt>
      <trkpt lat="45.51015" lon="6.59342">
        <ele>1271.96</ele>
        <time>2016-01-24T13:10:09Z</time>
      </trkpt>
      <trkpt lat="45.51019" lon="6.59344">
        <ele>1272.44</ele>
        <time>2016-01-24T13:10:14Z</time>
      </trkpt>
      <trkpt lat="45.51021" lon="6.59345">
        <ele>1272.92</ele>
        <time>2016-01-24T13:10:16Z</time>
      </trkpt>
      <trkpt lat="45.51033" lon="6.5935">
        <ele>1274.36</ele>
        <time>2016-01-24T13:10:30Z</time>
      </trkpt>
      <trkpt lat="45.51037" lon="6.59355">
        <ele>1274.36</ele>
        <time>2016-01-24T13:10:35Z</time>
      </trkpt>
      <trkpt lat="45.51048" lon="6.59361">
        <ele>1275.33</ele>
        <time>2016-01-24T13:10:47Z</time>
      </trkpt>
      <trkpt lat="45.51062" lon="6.59369">
        <ele>1275.33</ele>
        <time>2016-01-24T13:10:59Z</time>
      </trkpt>
      <trkpt lat="45.51067" lon="6.59374">
        <ele>1275.33</ele>
        <time>2016-01-24T13:11:05Z</time>
      </trkpt>
      <trkpt lat="45.51083" lon="6.59389">
        <ele>1275.33</ele>
        <time>2016-01-24T13:11:16Z</time>
      </trkpt>
      <trkpt lat="45.5109" lon="6.59401">
        <ele>1275.81</ele>
        <time>2016-01-24T13:11:26Z</time>
      </trkpt>
      <trkpt lat="45.51095" lon="6.59408">
        <ele>1276.29</ele>
        <time>2016-01-24T13:11:31Z</time>
      </trkpt>
      <trkpt lat="45.51105" lon="6.59423">
        <ele>1276.29</ele>
        <time>2016-01-24T13:11:45Z</time>
      </trkpt>
      <trkpt lat="45.5112" lon="6.59434">
        <ele>1276.29</ele>
        <time>2016-01-24T13:12:02Z</time>
      </trkpt>
      <trkpt lat="45.51128" lon="6.59443">
        <ele>1276.77</ele>
        <time>2016-01-24T13:12:12Z</time>
      </trkpt>
      <trkpt lat="45.51136" lon="6.59449">
        <ele>1276.77</ele>
        <time>2016-01-24T13:12:24Z</time>
      </trkpt>
      <trkpt lat="45.51136" lon="6.59452">
        <ele>1276.77</ele>
        <time>2016-01-24T13:12:38Z</time>
      </trkpt>
      <trkpt lat="45.51137" lon="6.59449">
        <ele>1276.77</ele>
        <time>2016-01-24T13:12:52Z</time>
      </trkpt>
      <trkpt lat="45.51137" lon="6.59447">
        <ele>1280.13</ele>
        <time>2016-01-24T13:12:55Z</time>
      </trkpt>
      <trkpt lat="45.51136" lon="6.59445">
        <ele>1276.77</ele>
        <time>2016-01-24T13:12:58Z</time>
      </trkpt>
      <trkpt lat="45.51135" lon="6.59446">
        <ele>1276.77</ele>
        <time>2016-01-24T13:13:16Z</time>
      </trkpt>
      <trkpt lat="45.51135" lon="6.59445">
        <ele>1276.29</ele>
        <time>2016-01-24T13:13:32Z</time>
      </trkpt>
    </trkseg>
  </trk>
</gpx>